Wetterdaten: Sonntag, 20.08.2023
Datum Zeit Temp. I. Temp. A. Feuchte I. Feuchte A. Luftdruck Regen Wind Richtung Richtung Sonnenschein Solar Taupunkt Windchill Windböen
20.08.2023 00:00 24,2 °C 26,1 °C 68 % 76 % 1018,2 hPa 0,0 l/m² 2,6 km/h (1 Bft) W-NW 282 ° 0 min 0 W/m² 21,5 °C 26,1 °C 4,8 km/h (1 Bft)
20.08.2023 00:02 24,2 °C 26,1 °C 68 % 76 % 1018,3 hPa 0,0 l/m² 0,6 km/h (0 Bft) W-NW 285 ° 0 min 0 W/m² 21,5 °C 26,1 °C 1,6 km/h (1 Bft)
20.08.2023 00:04 24,2 °C 26,1 °C 68 % 77 % 1018,3 hPa 0,0 l/m² 2,2 km/h (1 Bft) W-NW 298 ° 0 min 0 W/m² 21,7 °C 26,1 °C 6,4 km/h (2 Bft)
20.08.2023 00:06 24,2 °C 26,1 °C 68 % 77 % 1018,3 hPa 0,0 l/m² 1,4 km/h (1 Bft) W-NW 288 ° 0 min 0 W/m² 21,7 °C 26,1 °C 6,4 km/h (2 Bft)
20.08.2023 00:08 24,2 °C 26,0 °C 68 % 77 % 1018,3 hPa 0,0 l/m² 2,5 km/h (1 Bft) W 277 ° 0 min 0 W/m² 21,6 °C 26,0 °C 6,4 km/h (2 Bft)
20.08.2023 00:10 24,2 °C 26,0 °C 68 % 77 % 1018,4 hPa 0,0 l/m² 1,5 km/h (1 Bft) W-SW 248 ° 0 min 0 W/m² 21,6 °C 26,0 °C 6,4 km/h (2 Bft)
20.08.2023 00:11 24,2 °C 25,9 °C 68 % 77 % 1018,3 hPa 0,0 l/m² 2,7 km/h (1 Bft) W 269 ° 0 min 0 W/m² 21,5 °C 25,9 °C 4,8 km/h (1 Bft)
20.08.2023 00:13 24,2 °C 25,9 °C 68 % 77 % 1018,3 hPa 0,0 l/m² 1,1 km/h (1 Bft) W 269 ° 0 min 0 W/m² 21,5 °C 25,9 °C 4,8 km/h (1 Bft)
20.08.2023 00:14 24,2 °C 25,9 °C 68 % 77 % 1018,3 hPa 0,0 l/m² 0,2 km/h (0 Bft) W 269 ° 0 min 0 W/m² 21,5 °C 25,9 °C 1,6 km/h (1 Bft)
20.08.2023 00:15 24,2 °C 25,9 °C 68 % 77 % 1018,3 hPa 0,0 l/m² 1,5 km/h (1 Bft) W 277 ° 0 min 0 W/m² 21,5 °C 25,9 °C 3,2 km/h (1 Bft)
20.08.2023 00:17 24,2 °C 25,9 °C 68 % 77 % 1018,3 hPa 0,0 l/m² 0,4 km/h (0 Bft) W 275 ° 0 min 0 W/m² 21,5 °C 25,9 °C 1,6 km/h (1 Bft)
20.08.2023 00:19 24,2 °C 25,9 °C 69 % 77 % 1018,4 hPa 0,0 l/m² 0,8 km/h (0 Bft) W-SW 256 ° 0 min 0 W/m² 21,5 °C 25,9 °C 3,2 km/h (1 Bft)
20.08.2023 00:21 24,2 °C 25,8 °C 69 % 77 % 1018,4 hPa 0,0 l/m² 0,6 km/h (0 Bft) W 261 ° 0 min 0 W/m² 21,4 °C 25,8 °C 4,8 km/h (1 Bft)
20.08.2023 00:22 24,2 °C 25,8 °C 69 % 77 % 1018,3 hPa 0,0 l/m² 0,9 km/h (0 Bft) W 261 ° 0 min 0 W/m² 21,4 °C 25,8 °C 1,6 km/h (1 Bft)
20.08.2023 00:24 24,2 °C 25,8 °C 69 % 77 % 1018,4 hPa 0,0 l/m² 0,7 km/h (0 Bft) W 267 ° 0 min 0 W/m² 21,4 °C 25,8 °C 3,2 km/h (1 Bft)
20.08.2023 00:26 24,2 °C 25,8 °C 69 % 78 % 1018,5 hPa 0,0 l/m² 1,9 km/h (1 Bft) W 259 ° 0 min 0 W/m² 21,7 °C 25,8 °C 3,2 km/h (1 Bft)
20.08.2023 00:28 24,2 °C 25,8 °C 69 % 78 % 1018,6 hPa 0,0 l/m² 1,6 km/h (1 Bft) W 259 ° 0 min 0 W/m² 21,7 °C 25,8 °C 3,2 km/h (1 Bft)
20.08.2023 00:30 24,2 °C 25,7 °C 69 % 78 % 1018,6 hPa 0,0 l/m² 1,7 km/h (1 Bft) W 259 ° 0 min 0 W/m² 21,6 °C 25,7 °C 3,2 km/h (1 Bft)
20.08.2023 00:32 24,2 °C 25,7 °C 69 % 79 % 1018,6 hPa 0,0 l/m² 1,5 km/h (1 Bft) W 259 ° 0 min 0 W/m² 21,8 °C 25,7 °C 3,2 km/h (1 Bft)
20.08.2023 00:33 24,2 °C 25,6 °C 69 % 79 % 1018,6 hPa 0,0 l/m² 2,5 km/h (1 Bft) W 259 ° 0 min 0 W/m² 21,7 °C 25,6 °C 3,2 km/h (1 Bft)
20.08.2023 00:34 24,2 °C 25,6 °C 69 % 79 % 1018,7 hPa 0,0 l/m² 1,6 km/h (1 Bft) W 259 ° 0 min 0 W/m² 21,7 °C 25,6 °C 3,2 km/h (1 Bft)
20.08.2023 00:36 24,2 °C 25,6 °C 69 % 79 % 1018,7 hPa 0,0 l/m² 2,0 km/h (1 Bft) W 277 ° 0 min 0 W/m² 21,7 °C 25,6 °C 4,8 km/h (1 Bft)
20.08.2023 00:38 24,2 °C 25,5 °C 69 % 79 % 1018,8 hPa 0,0 l/m² 2,3 km/h (1 Bft) W-NW 282 ° 0 min 0 W/m² 21,6 °C 25,5 °C 11,3 km/h (2 Bft)
20.08.2023 00:40 24,2 °C 25,4 °C 69 % 79 % 1018,7 hPa 0,0 l/m² 0,0 km/h (0 Bft) W-NW 282 ° 0 min 0 W/m² 21,5 °C 25,4 °C 0,0 km/h (0 Bft)
20.08.2023 00:41 24,2 °C 25,4 °C 69 % 79 % 1018,7 hPa 0,0 l/m² 0,2 km/h (0 Bft) W-NW 282 ° 0 min 0 W/m² 21,5 °C 25,4 °C 1,6 km/h (1 Bft)
20.08.2023 00:42 24,2 °C 25,4 °C 69 % 79 % 1018,8 hPa 0,0 l/m² 0,7 km/h (0 Bft) W-NW 287 ° 0 min 0 W/m² 21,5 °C 25,4 °C 3,2 km/h (1 Bft)
20.08.2023 00:43 24,2 °C 25,4 °C 69 % 79 % 1018,8 hPa 0,0 l/m² 1,8 km/h (1 Bft) W-NW 290 ° 0 min 0 W/m² 21,5 °C 25,4 °C 3,2 km/h (1 Bft)
20.08.2023 00:44 24,2 °C 25,4 °C 69 % 79 % 1018,8 hPa 0,0 l/m² 1,6 km/h (1 Bft) W-NW 292 ° 0 min 0 W/m² 21,5 °C 25,4 °C 3,2 km/h (1 Bft)
20.08.2023 00:45 24,2 °C 25,3 °C 69 % 79 % 1018,8 hPa 0,0 l/m² 0,0 km/h (0 Bft) W-NW 292 ° 0 min 0 W/m² 21,4 °C 25,3 °C 3,2 km/h (1 Bft)
20.08.2023 00:51 24,2 °C 25,3 °C 69 % 79 % 1018,9 hPa 0,0 l/m² 0,0 km/h (0 Bft) NW 313 ° 0 min 0 W/m² 21,4 °C 25,3 °C 0,0 km/h (0 Bft)
20.08.2023 00:52 24,2 °C 25,2 °C 69 % 79 % 1018,8 hPa 0,0 l/m² 1,9 km/h (1 Bft) W-SW 242 ° 0 min 0 W/m² 21,3 °C 25,2 °C 6,4 km/h (2 Bft)
20.08.2023 00:53 24,2 °C 25,3 °C 69 % 79 % 1018,9 hPa 0,0 l/m² 1,3 km/h (1 Bft) W 268 ° 0 min 0 W/m² 21,4 °C 25,3 °C 4,8 km/h (1 Bft)
20.08.2023 00:54 24,2 °C 25,2 °C 69 % 79 % 1018,9 hPa 0,0 l/m² 2,1 km/h (1 Bft) N-NW 328 ° 0 min 0 W/m² 21,3 °C 25,2 °C 4,8 km/h (1 Bft)
20.08.2023 00:56 24,2 °C 25,2 °C 69 % 79 % 1018,9 hPa 0,0 l/m² 2,3 km/h (1 Bft) W 265 ° 0 min 0 W/m² 21,3 °C 25,2 °C 6,4 km/h (2 Bft)
20.08.2023 00:58 24,2 °C 25,1 °C 69 % 79 % 1018,9 hPa 0,0 l/m² 1,7 km/h (1 Bft) N 350 ° 0 min 0 W/m² 21,2 °C 25,1 °C 4,8 km/h (1 Bft)
20.08.2023 01:00 24,2 °C 25,1 °C 69 % 80 % 1019,0 hPa 0,0 l/m² 2,8 km/h (1 Bft) W-NW 289 ° 0 min 0 W/m² 21,4 °C 25,1 °C 11,3 km/h (2 Bft)
20.08.2023 01:01 24,2 °C 25,1 °C 69 % 80 % 1019,0 hPa 0,0 l/m² 2,5 km/h (1 Bft) W 259 ° 0 min 0 W/m² 21,4 °C 25,1 °C 4,8 km/h (1 Bft)
20.08.2023 01:02 24,2 °C 25,1 °C 69 % 80 % 1019,0 hPa 0,0 l/m² 4,9 km/h (1 Bft) W 267 ° 0 min 0 W/m² 21,4 °C 25,1 °C 9,7 km/h (2 Bft)
20.08.2023 01:03 24,2 °C 25,1 °C 69 % 80 % 1019,0 hPa 0,0 l/m² 3,0 km/h (1 Bft) W 259 ° 0 min 0 W/m² 21,4 °C 25,1 °C 6,4 km/h (2 Bft)
20.08.2023 01:05 24,2 °C 25,0 °C 69 % 80 % 1019,1 hPa 0,0 l/m² 2,9 km/h (1 Bft) W-NW 284 ° 0 min 0 W/m² 21,3 °C 25,0 °C 6,4 km/h (2 Bft)
20.08.2023 01:07 24,2 °C 25,0 °C 69 % 80 % 1019,0 hPa 0,0 l/m² 3,1 km/h (1 Bft) W 274 ° 0 min 0 W/m² 21,3 °C 25,0 °C 9,7 km/h (2 Bft)
20.08.2023 01:09 24,2 °C 24,9 °C 69 % 80 % 1019,0 hPa 0,0 l/m² 3,0 km/h (1 Bft) W 271 ° 0 min 0 W/m² 21,2 °C 24,9 °C 6,4 km/h (2 Bft)
20.08.2023 01:10 24,2 °C 24,9 °C 69 % 80 % 1019,0 hPa 0,0 l/m² 3,5 km/h (1 Bft) W-NW 296 ° 0 min 0 W/m² 21,2 °C 24,9 °C 4,8 km/h (1 Bft)
20.08.2023 01:12 24,2 °C 24,9 °C 69 % 80 % 1019,0 hPa 0,0 l/m² 1,6 km/h (1 Bft) W-NW 289 ° 0 min 0 W/m² 21,2 °C 24,9 °C 4,8 km/h (1 Bft)
20.08.2023 01:13 24,2 °C 24,9 °C 69 % 80 % 1019,0 hPa 0,0 l/m² 0,5 km/h (0 Bft) W-NW 283 ° 0 min 0 W/m² 21,2 °C 24,9 °C 1,6 km/h (1 Bft)
20.08.2023 01:15 24,2 °C 24,8 °C 69 % 80 % 1019,1 hPa 0,0 l/m² 1,3 km/h (1 Bft) W 267 ° 0 min 0 W/m² 21,1 °C 24,8 °C 4,8 km/h (1 Bft)
20.08.2023 01:17 24,2 °C 24,8 °C 69 % 80 % 1019,0 hPa 0,0 l/m² 0,4 km/h (0 Bft) W 267 ° 0 min 0 W/m² 21,1 °C 24,8 °C 3,2 km/h (1 Bft)
20.08.2023 01:19 24,2 °C 24,8 °C 69 % 80 % 1019,1 hPa 0,0 l/m² 1,3 km/h (1 Bft) W 277 ° 0 min 0 W/m² 21,1 °C 24,8 °C 8,0 km/h (2 Bft)
20.08.2023 01:20 24,2 °C 24,7 °C 69 % 80 % 1019,1 hPa 0,0 l/m² 2,2 km/h (1 Bft) W-NW 292 ° 0 min 0 W/m² 21,0 °C 24,7 °C 6,4 km/h (2 Bft)
20.08.2023 01:22 24,2 °C 24,7 °C 69 % 80 % 1019,1 hPa 0,0 l/m² 1,6 km/h (1 Bft) W 277 ° 0 min 0 W/m² 21,0 °C 24,7 °C 4,8 km/h (1 Bft)
20.08.2023 01:23 24,2 °C 24,7 °C 70 % 80 % 1019,1 hPa 0,0 l/m² 3,2 km/h (1 Bft) W 265 ° 0 min 0 W/m² 21,0 °C 24,7 °C 6,4 km/h (2 Bft)
20.08.2023 01:25 24,2 °C 24,7 °C 70 % 80 % 1019,2 hPa 0,0 l/m² 2,8 km/h (1 Bft) W 265 ° 0 min 0 W/m² 21,0 °C 24,7 °C 6,4 km/h (2 Bft)
20.08.2023 01:27 24,2 °C 24,6 °C 70 % 80 % 1019,2 hPa 0,0 l/m² 4,9 km/h (1 Bft) W 264 ° 0 min 0 W/m² 20,9 °C 24,6 °C 6,4 km/h (2 Bft)
20.08.2023 01:29 24,2 °C 24,6 °C 70 % 80 % 1019,2 hPa 0,0 l/m² 4,1 km/h (1 Bft) W 262 ° 0 min 0 W/m² 20,9 °C 24,6 °C 6,4 km/h (2 Bft)
20.08.2023 01:30 24,2 °C 24,6 °C 70 % 80 % 1019,3 hPa 0,0 l/m² 2,6 km/h (1 Bft) W 267 ° 0 min 0 W/m² 20,9 °C 24,6 °C 4,8 km/h (1 Bft)
20.08.2023 01:31 24,2 °C 24,6 °C 70 % 80 % 1019,2 hPa 0,0 l/m² 4,1 km/h (1 Bft) W-SW 257 ° 0 min 0 W/m² 20,9 °C 24,6 °C 6,4 km/h (2 Bft)
20.08.2023 01:32 24,2 °C 24,5 °C 70 % 80 % 1019,2 hPa 0,0 l/m² 3,3 km/h (1 Bft) W-SW 254 ° 0 min 0 W/m² 20,8 °C 24,5 °C 4,8 km/h (1 Bft)
20.08.2023 01:34 24,2 °C 24,4 °C 70 % 80 % 1019,2 hPa 0,0 l/m² 4,3 km/h (1 Bft) W 265 ° 0 min 0 W/m² 20,7 °C 24,4 °C 6,4 km/h (2 Bft)
20.08.2023 01:36 24,2 °C 24,4 °C 70 % 81 % 1019,2 hPa 0,0 l/m² 2,2 km/h (1 Bft) W 265 ° 0 min 0 W/m² 20,9 °C 24,4 °C 4,8 km/h (1 Bft)
20.08.2023 01:38 24,2 °C 24,4 °C 70 % 81 % 1019,2 hPa 0,0 l/m² 2,4 km/h (1 Bft) W 268 ° 0 min 0 W/m² 20,9 °C 24,4 °C 6,4 km/h (2 Bft)
20.08.2023 01:40 24,2 °C 24,4 °C 70 % 81 % 1019,2 hPa 0,0 l/m² 1,5 km/h (1 Bft) W 266 ° 0 min 0 W/m² 20,9 °C 24,4 °C 4,8 km/h (1 Bft)
20.08.2023 01:41 24,2 °C 24,3 °C 70 % 81 % 1019,2 hPa 0,0 l/m² 2,4 km/h (1 Bft) W-SW 257 ° 0 min 0 W/m² 20,8 °C 24,3 °C 4,8 km/h (1 Bft)
20.08.2023 01:42 24,2 °C 24,3 °C 70 % 81 % 1019,2 hPa 0,0 l/m² 2,5 km/h (1 Bft) W-SW 257 ° 0 min 0 W/m² 20,8 °C 24,3 °C 3,2 km/h (1 Bft)
20.08.2023 01:44 24,2 °C 24,3 °C 70 % 81 % 1019,2 hPa 0,0 l/m² 3,1 km/h (1 Bft) W-SW 257 ° 0 min 0 W/m² 20,8 °C 24,3 °C 6,4 km/h (2 Bft)
20.08.2023 01:46 24,2 °C 24,3 °C 70 % 81 % 1019,2 hPa 0,0 l/m² 3,4 km/h (1 Bft) W-SW 257 ° 0 min 0 W/m² 20,8 °C 24,3 °C 4,8 km/h (1 Bft)
20.08.2023 01:48 24,2 °C 24,2 °C 70 % 81 % 1019,2 hPa 0,0 l/m² 2,3 km/h (1 Bft) W 265 ° 0 min 0 W/m² 20,7 °C 24,2 °C 4,8 km/h (1 Bft)
20.08.2023 01:50 24,2 °C 24,2 °C 70 % 81 % 1019,2 hPa 0,0 l/m² 1,6 km/h (1 Bft) W 269 ° 0 min 0 W/m² 20,7 °C 24,2 °C 4,8 km/h (1 Bft)
20.08.2023 01:51 24,2 °C 24,2 °C 70 % 81 % 1019,2 hPa 0,0 l/m² 2,6 km/h (1 Bft) W 271 ° 0 min 0 W/m² 20,7 °C 24,2 °C 6,4 km/h (2 Bft)
20.08.2023 01:52 24,2 °C 24,2 °C 70 % 81 % 1019,2 hPa 0,0 l/m² 3,7 km/h (1 Bft) W 264 ° 0 min 0 W/m² 20,7 °C 24,2 °C 4,8 km/h (1 Bft)
20.08.2023 01:54 24,2 °C 24,1 °C 70 % 81 % 1019,2 hPa 0,0 l/m² 3,0 km/h (1 Bft) W-NW 284 ° 0 min 0 W/m² 20,6 °C 24,1 °C 6,4 km/h (2 Bft)
20.08.2023 01:56 24,2 °C 24,1 °C 70 % 82 % 1019,2 hPa 0,0 l/m² 3,0 km/h (1 Bft) W 275 ° 0 min 0 W/m² 20,8 °C 24,1 °C 6,4 km/h (2 Bft)
20.08.2023 01:58 24,2 °C 24,1 °C 70 % 82 % 1019,2 hPa 0,0 l/m² 3,2 km/h (1 Bft) W 274 ° 0 min 0 W/m² 20,8 °C 24,1 °C 6,4 km/h (2 Bft)
20.08.2023 02:00 24,2 °C 24,0 °C 70 % 82 % 1019,2 hPa 0,0 l/m² 2,3 km/h (1 Bft) W 275 ° 0 min 0 W/m² 20,7 °C 24,0 °C 6,4 km/h (2 Bft)
20.08.2023 02:01 24,2 °C 24,0 °C 70 % 82 % 1019,2 hPa 0,0 l/m² 1,4 km/h (1 Bft) W 278 ° 0 min 0 W/m² 20,7 °C 24,0 °C 3,2 km/h (1 Bft)
20.08.2023 02:03 24,2 °C 23,9 °C 70 % 82 % 1019,1 hPa 0,0 l/m² 1,2 km/h (1 Bft) W 274 ° 0 min 0 W/m² 20,6 °C 23,9 °C 4,8 km/h (1 Bft)
20.08.2023 02:04 24,2 °C 23,9 °C 70 % 82 % 1019,1 hPa 0,0 l/m² 0,1 km/h (0 Bft) W 274 ° 0 min 0 W/m² 20,6 °C 23,9 °C 1,6 km/h (1 Bft)
20.08.2023 02:06 24,2 °C 23,9 °C 70 % 82 % 1019,2 hPa 0,0 l/m² 0,9 km/h (0 Bft) W 277 ° 0 min 0 W/m² 20,6 °C 23,9 °C 3,2 km/h (1 Bft)
20.08.2023 02:07 24,2 °C 23,9 °C 70 % 82 % 1019,1 hPa 0,0 l/m² 0,2 km/h (0 Bft) W 277 ° 0 min 0 W/m² 20,6 °C 23,9 °C 1,6 km/h (1 Bft)
20.08.2023 02:08 24,2 °C 23,9 °C 70 % 82 % 1019,2 hPa 0,0 l/m² 0,2 km/h (0 Bft) NW 306 ° 0 min 0 W/m² 20,6 °C 23,9 °C 1,6 km/h (1 Bft)
20.08.2023 02:10 24,2 °C 23,9 °C 70 % 82 % 1019,2 hPa 0,0 l/m² 0,3 km/h (0 Bft) W-NW 294 ° 0 min 0 W/m² 20,6 °C 23,9 °C 1,6 km/h (1 Bft)
20.08.2023 02:11 24,2 °C 23,8 °C 70 % 82 % 1019,3 hPa 0,0 l/m² 0,4 km/h (0 Bft) W-NW 292 ° 0 min 0 W/m² 20,5 °C 23,8 °C 1,6 km/h (1 Bft)
20.08.2023 02:13 24,2 °C 23,8 °C 70 % 82 % 1019,3 hPa 0,0 l/m² 1,1 km/h (1 Bft) W 280 ° 0 min 0 W/m² 20,5 °C 23,8 °C 3,2 km/h (1 Bft)
20.08.2023 02:14 24,2 °C 23,8 °C 70 % 82 % 1019,2 hPa 0,0 l/m² 0,7 km/h (0 Bft) W 281 ° 0 min 0 W/m² 20,5 °C 23,8 °C 3,2 km/h (1 Bft)
20.08.2023 02:16 24,2 °C 23,8 °C 70 % 82 % 1019,2 hPa 0,0 l/m² 0,5 km/h (0 Bft) W 281 ° 0 min 0 W/m² 20,5 °C 23,8 °C 3,2 km/h (1 Bft)
20.08.2023 02:18 24,2 °C 23,8 °C 70 % 82 % 1019,2 hPa 0,0 l/m² 0,5 km/h (0 Bft) W 279 ° 0 min 0 W/m² 20,5 °C 23,8 °C 1,6 km/h (1 Bft)
20.08.2023 02:20 24,2 °C 23,7 °C 70 % 82 % 1019,2 hPa 0,0 l/m² 0,8 km/h (0 Bft) W 275 ° 0 min 0 W/m² 20,4 °C 23,7 °C 3,2 km/h (1 Bft)
20.08.2023 02:21 24,2 °C 23,7 °C 70 % 83 % 1019,3 hPa 0,0 l/m² 2,5 km/h (1 Bft) W 273 ° 0 min 0 W/m² 20,6 °C 23,7 °C 4,8 km/h (1 Bft)
20.08.2023 02:23 24,2 °C 23,7 °C 70 % 83 % 1019,2 hPa 0,0 l/m² 1,3 km/h (1 Bft) W 267 ° 0 min 0 W/m² 20,6 °C 23,7 °C 3,2 km/h (1 Bft)
20.08.2023 02:24 24,2 °C 23,7 °C 70 % 83 % 1019,3 hPa 0,0 l/m² 1,5 km/h (1 Bft) W 267 ° 0 min 0 W/m² 20,6 °C 23,7 °C 4,8 km/h (1 Bft)
20.08.2023 02:26 24,2 °C 23,7 °C 70 % 83 % 1019,4 hPa 0,0 l/m² 1,4 km/h (1 Bft) W 266 ° 0 min 0 W/m² 20,6 °C 23,7 °C 3,2 km/h (1 Bft)
20.08.2023 02:28 24,2 °C 23,6 °C 70 % 83 % 1019,4 hPa 0,0 l/m² 1,3 km/h (1 Bft) W 265 ° 0 min 0 W/m² 20,5 °C 23,6 °C 3,2 km/h (1 Bft)
20.08.2023 02:30 24,2 °C 23,6 °C 70 % 83 % 1019,4 hPa 0,0 l/m² 1,3 km/h (1 Bft) W 266 ° 0 min 0 W/m² 20,5 °C 23,6 °C 3,2 km/h (1 Bft)
20.08.2023 02:31 24,2 °C 23,6 °C 70 % 83 % 1019,4 hPa 0,0 l/m² 1,7 km/h (1 Bft) W 270 ° 0 min 0 W/m² 20,5 °C 23,6 °C 3,2 km/h (1 Bft)
20.08.2023 02:33 24,2 °C 23,6 °C 70 % 83 % 1019,5 hPa 0,0 l/m² 2,1 km/h (1 Bft) W 266 ° 0 min 0 W/m² 20,5 °C 23,6 °C 4,8 km/h (1 Bft)
20.08.2023 02:34 24,2 °C 23,5 °C 70 % 83 % 1019,4 hPa 0,0 l/m² 2,3 km/h (1 Bft) W 265 ° 0 min 0 W/m² 20,4 °C 23,5 °C 4,8 km/h (1 Bft)
20.08.2023 02:36 24,2 °C 23,4 °C 70 % 83 % 1019,5 hPa 0,0 l/m² 1,4 km/h (1 Bft) W 265 ° 0 min 0 W/m² 20,3 °C 23,4 °C 3,2 km/h (1 Bft)
20.08.2023 02:38 24,2 °C 23,4 °C 70 % 83 % 1019,4 hPa 0,0 l/m² 2,1 km/h (1 Bft) W 263 ° 0 min 0 W/m² 20,3 °C 23,4 °C 4,8 km/h (1 Bft)
20.08.2023 02:40 24,2 °C 23,4 °C 70 % 84 % 1019,5 hPa 0,0 l/m² 2,9 km/h (1 Bft) W 269 ° 0 min 0 W/m² 20,5 °C 23,4 °C 4,8 km/h (1 Bft)
20.08.2023 02:41 24,2 °C 23,4 °C 70 % 84 % 1019,5 hPa 0,0 l/m² 2,1 km/h (1 Bft) W 281 ° 0 min 0 W/m² 20,5 °C 23,4 °C 4,8 km/h (1 Bft)
20.08.2023 02:43 24,2 °C 23,3 °C 70 % 84 % 1019,4 hPa 0,0 l/m² 1,9 km/h (1 Bft) W 260 ° 0 min 0 W/m² 20,4 °C 23,3 °C 4,8 km/h (1 Bft)
20.08.2023 02:44 24,2 °C 23,3 °C 70 % 84 % 1019,5 hPa 0,0 l/m² 2,7 km/h (1 Bft) W 272 ° 0 min 0 W/m² 20,4 °C 23,3 °C 4,8 km/h (1 Bft)
20.08.2023 02:46 24,2 °C 23,3 °C 70 % 84 % 1019,5 hPa 0,0 l/m² 2,4 km/h (1 Bft) W 273 ° 0 min 0 W/m² 20,4 °C 23,3 °C 4,8 km/h (1 Bft)
20.08.2023 02:48 24,2 °C 23,3 °C 70 % 84 % 1019,6 hPa 0,0 l/m² 3,2 km/h (1 Bft) W-NW 301 ° 0 min 0 W/m² 20,4 °C 23,3 °C 6,4 km/h (2 Bft)
20.08.2023 02:50 24,2 °C 23,2 °C 70 % 84 % 1019,6 hPa 0,0 l/m² 3,3 km/h (1 Bft) W 272 ° 0 min 0 W/m² 20,3 °C 23,2 °C 6,4 km/h (2 Bft)
20.08.2023 02:51 24,2 °C 23,2 °C 70 % 84 % 1019,6 hPa 0,0 l/m² 2,4 km/h (1 Bft) W 272 ° 0 min 0 W/m² 20,3 °C 23,2 °C 4,8 km/h (1 Bft)
20.08.2023 02:53 24,2 °C 23,2 °C 70 % 84 % 1019,7 hPa 0,0 l/m² 3,3 km/h (1 Bft) W-NW 292 ° 0 min 0 W/m² 20,3 °C 23,2 °C 9,7 km/h (2 Bft)
20.08.2023 02:54 24,2 °C 23,1 °C 70 % 84 % 1019,6 hPa 0,0 l/m² 1,7 km/h (1 Bft) W 273 ° 0 min 0 W/m² 20,2 °C 23,1 °C 3,2 km/h (1 Bft)
20.08.2023 02:56 24,2 °C 23,2 °C 70 % 84 % 1019,7 hPa 0,0 l/m² 2,3 km/h (1 Bft) W-SW 250 ° 0 min 0 W/m² 20,3 °C 23,2 °C 9,7 km/h (2 Bft)
20.08.2023 02:58 24,2 °C 23,1 °C 70 % 85 % 1019,6 hPa 0,0 l/m² 3,1 km/h (1 Bft) W 265 ° 0 min 0 W/m² 20,4 °C 23,1 °C 9,7 km/h (2 Bft)
20.08.2023 03:00 24,2 °C 23,1 °C 70 % 85 % 1019,6 hPa 0,0 l/m² 1,4 km/h (1 Bft) W 266 ° 0 min 0 W/m² 20,4 °C 23,1 °C 3,2 km/h (1 Bft)
20.08.2023 03:01 24,2 °C 23,1 °C 70 % 85 % 1019,6 hPa 0,0 l/m² 3,2 km/h (1 Bft) W 270 ° 0 min 0 W/m² 20,4 °C 23,1 °C 4,8 km/h (1 Bft)
20.08.2023 03:06 24,2 °C 23,0 °C 70 % 85 % 1019,7 hPa 0,0 l/m² 0,8 km/h (0 Bft) W-NW 286 ° 0 min 0 W/m² 20,3 °C 23,0 °C 1,6 km/h (1 Bft)
20.08.2023 03:08 24,2 °C 22,9 °C 70 % 85 % 1019,7 hPa 0,0 l/m² 3,5 km/h (1 Bft) W-NW 295 ° 0 min 0 W/m² 20,2 °C 22,9 °C 11,3 km/h (2 Bft)
20.08.2023 03:09 24,2 °C 22,9 °C 70 % 85 % 1019,7 hPa 0,0 l/m² 2,4 km/h (1 Bft) W 267 ° 0 min 0 W/m² 20,2 °C 22,9 °C 6,4 km/h (2 Bft)
20.08.2023 03:10 24,2 °C 22,9 °C 70 % 85 % 1019,7 hPa 0,0 l/m² 0,8 km/h (0 Bft) W 266 ° 0 min 0 W/m² 20,2 °C 22,9 °C 3,2 km/h (1 Bft)
20.08.2023 03:12 24,2 °C 22,9 °C 70 % 85 % 1019,7 hPa 0,0 l/m² 1,2 km/h (1 Bft) W-SW 257 ° 0 min 0 W/m² 20,2 °C 22,9 °C 4,8 km/h (1 Bft)
20.08.2023 03:13 24,2 °C 22,9 °C 70 % 85 % 1019,7 hPa 0,0 l/m² 2,6 km/h (1 Bft) W 273 ° 0 min 0 W/m² 20,2 °C 22,9 °C 4,8 km/h (1 Bft)
20.08.2023 03:15 24,2 °C 22,9 °C 70 % 85 % 1019,7 hPa 0,0 l/m² 1,3 km/h (1 Bft) W 281 ° 0 min 0 W/m² 20,2 °C 22,9 °C 4,8 km/h (1 Bft)
20.08.2023 03:17 24,2 °C 22,9 °C 70 % 85 % 1019,8 hPa 0,0 l/m² 3,3 km/h (1 Bft) NW 304 ° 0 min 0 W/m² 20,2 °C 22,9 °C 6,4 km/h (2 Bft)
20.08.2023 03:19 24,2 °C 22,9 °C 70 % 85 % 1019,8 hPa 0,0 l/m² 1,7 km/h (1 Bft) W-NW 284 ° 0 min 0 W/m² 20,2 °C 22,9 °C 4,8 km/h (1 Bft)
20.08.2023 03:20 24,2 °C 22,9 °C 70 % 85 % 1019,8 hPa 0,0 l/m² 1,7 km/h (1 Bft) NW 306 ° 0 min 0 W/m² 20,2 °C 22,9 °C 4,8 km/h (1 Bft)
20.08.2023 03:22 24,2 °C 22,8 °C 70 % 85 % 1019,7 hPa 0,0 l/m² 2,7 km/h (1 Bft) W-NW 283 ° 0 min 0 W/m² 20,1 °C 22,8 °C 6,4 km/h (2 Bft)
20.08.2023 03:23 24,2 °C 22,8 °C 70 % 85 % 1019,7 hPa 0,0 l/m² 4,7 km/h (1 Bft) W-NW 286 ° 0 min 0 W/m² 20,1 °C 22,8 °C 9,7 km/h (2 Bft)
20.08.2023 03:25 24,2 °C 22,8 °C 70 % 85 % 1019,7 hPa 0,0 l/m² 3,2 km/h (1 Bft) W-NW 286 ° 0 min 0 W/m² 20,1 °C 22,8 °C 6,4 km/h (2 Bft)
20.08.2023 03:27 24,2 °C 22,8 °C 70 % 86 % 1019,7 hPa 0,0 l/m² 3,8 km/h (1 Bft) NW 313 ° 0 min 0 W/m² 20,3 °C 22,8 °C 8,0 km/h (2 Bft)
20.08.2023 03:29 24,2 °C 22,8 °C 70 % 85 % 1019,7 hPa 0,0 l/m² 2,0 km/h (1 Bft) NW 320 ° 0 min 0 W/m² 20,1 °C 22,8 °C 8,0 km/h (2 Bft)
20.08.2023 03:30 24,2 °C 22,8 °C 70 % 86 % 1019,7 hPa 0,0 l/m² 2,4 km/h (1 Bft) W-NW 293 ° 0 min 0 W/m² 20,3 °C 22,8 °C 6,4 km/h (2 Bft)
20.08.2023 03:32 24,2 °C 22,8 °C 70 % 86 % 1019,8 hPa 0,0 l/m² 3,7 km/h (1 Bft) W-NW 290 ° 0 min 0 W/m² 20,3 °C 22,8 °C 8,0 km/h (2 Bft)
20.08.2023 03:33 24,2 °C 22,8 °C 70 % 86 % 1019,8 hPa 0,0 l/m² 2,9 km/h (1 Bft) W 278 ° 0 min 0 W/m² 20,3 °C 22,8 °C 6,4 km/h (2 Bft)
20.08.2023 03:35 24,2 °C 22,8 °C 70 % 86 % 1019,7 hPa 0,0 l/m² 3,3 km/h (1 Bft) W-NW 293 ° 0 min 0 W/m² 20,3 °C 22,8 °C 9,7 km/h (2 Bft)
20.08.2023 03:37 24,2 °C 22,8 °C 70 % 86 % 1019,8 hPa 0,0 l/m² 2,3 km/h (1 Bft) W 274 ° 0 min 0 W/m² 20,3 °C 22,8 °C 6,4 km/h (2 Bft)
20.08.2023 03:39 24,2 °C 22,8 °C 70 % 86 % 1019,9 hPa 0,0 l/m² 2,0 km/h (1 Bft) W-NW 288 ° 0 min 0 W/m² 20,3 °C 22,8 °C 6,4 km/h (2 Bft)
20.08.2023 03:40 24,2 °C 22,8 °C 70 % 86 % 1019,8 hPa 0,0 l/m² 0,7 km/h (0 Bft) W-NW 284 ° 0 min 0 W/m² 20,3 °C 22,8 °C 3,2 km/h (1 Bft)
20.08.2023 03:42 24,2 °C 22,7 °C 70 % 86 % 1019,8 hPa 0,0 l/m² 0,1 km/h (0 Bft) W 277 ° 0 min 0 W/m² 20,2 °C 22,7 °C 1,6 km/h (1 Bft)
20.08.2023 03:43 24,2 °C 22,8 °C 70 % 86 % 1019,8 hPa 0,0 l/m² 0,8 km/h (0 Bft) W 279 ° 0 min 0 W/m² 20,3 °C 22,8 °C 3,2 km/h (1 Bft)
20.08.2023 03:45 24,2 °C 22,7 °C 70 % 86 % 1019,9 hPa 0,0 l/m² 0,2 km/h (0 Bft) W 279 ° 0 min 0 W/m² 20,2 °C 22,7 °C 1,6 km/h (1 Bft)
20.08.2023 03:47 24,2 °C 22,7 °C 70 % 86 % 1019,9 hPa 0,0 l/m² 1,0 km/h (0 Bft) W 281 ° 0 min 0 W/m² 20,2 °C 22,7 °C 4,8 km/h (1 Bft)
20.08.2023 03:48 24,2 °C 22,7 °C 70 % 86 % 1019,8 hPa 0,0 l/m² 1,5 km/h (1 Bft) W 281 ° 0 min 0 W/m² 20,2 °C 22,7 °C 3,2 km/h (1 Bft)
20.08.2023 03:50 24,2 °C 22,7 °C 70 % 86 % 1019,9 hPa 0,0 l/m² 0,2 km/h (0 Bft) W 281 ° 0 min 0 W/m² 20,2 °C 22,7 °C 1,6 km/h (1 Bft)
20.08.2023 03:51 24,1 °C 22,7 °C 70 % 86 % 1019,9 hPa 0,0 l/m² 2,5 km/h (1 Bft) W 269 ° 0 min 0 W/m² 20,2 °C 22,7 °C 4,8 km/h (1 Bft)
20.08.2023 03:52 24,2 °C 22,7 °C 70 % 86 % 1020,0 hPa 0,0 l/m² 1,8 km/h (1 Bft) W 274 ° 0 min 0 W/m² 20,2 °C 22,7 °C 4,8 km/h (1 Bft)
20.08.2023 03:54 24,2 °C 22,7 °C 70 % 86 % 1020,0 hPa 0,0 l/m² 1,9 km/h (1 Bft) W 260 ° 0 min 0 W/m² 20,2 °C 22,7 °C 6,4 km/h (2 Bft)
20.08.2023 03:56 24,2 °C 22,7 °C 70 % 86 % 1019,9 hPa 0,0 l/m² 3,7 km/h (1 Bft) W 264 ° 0 min 0 W/m² 20,2 °C 22,7 °C 6,4 km/h (2 Bft)
20.08.2023 03:57 24,1 °C 22,7 °C 70 % 86 % 1020,0 hPa 0,0 l/m² 3,9 km/h (1 Bft) W 263 ° 0 min 0 W/m² 20,2 °C 22,7 °C 6,4 km/h (2 Bft)
20.08.2023 03:59 24,2 °C 22,6 °C 70 % 86 % 1019,9 hPa 0,0 l/m² 2,1 km/h (1 Bft) W-NW 288 ° 0 min 0 W/m² 20,1 °C 22,6 °C 4,8 km/h (1 Bft)
20.08.2023 04:00 24,2 °C 22,6 °C 70 % 86 % 1020,0 hPa 0,0 l/m² 2,6 km/h (1 Bft) W 281 ° 0 min 0 W/m² 20,1 °C 22,6 °C 6,4 km/h (2 Bft)
20.08.2023 04:02 24,1 °C 22,6 °C 70 % 86 % 1020,0 hPa 0,0 l/m² 4,2 km/h (1 Bft) W-NW 284 ° 0 min 0 W/m² 20,1 °C 22,6 °C 11,3 km/h (2 Bft)
20.08.2023 04:04 24,2 °C 22,6 °C 70 % 86 % 1020,0 hPa 0,0 l/m² 0,1 km/h (0 Bft) W-NW 284 ° 0 min 0 W/m² 20,1 °C 22,6 °C 1,6 km/h (1 Bft)
20.08.2023 04:06 24,2 °C 22,6 °C 70 % 87 % 1020,0 hPa 0,0 l/m² 0,8 km/h (0 Bft) N-NW 328 ° 0 min 0 W/m² 20,3 °C 22,6 °C 8,0 km/h (2 Bft)
20.08.2023 04:08 24,2 °C 22,6 °C 70 % 87 % 1020,0 hPa 0,0 l/m² 3,7 km/h (1 Bft) W 268 ° 0 min 0 W/m² 20,3 °C 22,6 °C 9,7 km/h (2 Bft)
20.08.2023 04:10 24,2 °C 22,6 °C 70 % 87 % 1020,0 hPa 0,0 l/m² 1,8 km/h (1 Bft) W-NW 290 ° 0 min 0 W/m² 20,3 °C 22,6 °C 6,4 km/h (2 Bft)
20.08.2023 04:11 24,1 °C 22,6 °C 70 % 87 % 1020,1 hPa 0,0 l/m² 1,9 km/h (1 Bft) W 260 ° 0 min 0 W/m² 20,3 °C 22,6 °C 4,8 km/h (1 Bft)
20.08.2023 04:13 24,2 °C 22,6 °C 70 % 87 % 1020,0 hPa 0,0 l/m² 3,0 km/h (1 Bft) W-NW 290 ° 0 min 0 W/m² 20,3 °C 22,6 °C 11,3 km/h (2 Bft)
20.08.2023 04:15 24,2 °C 22,5 °C 70 % 87 % 1020,1 hPa 0,0 l/m² 3,5 km/h (1 Bft) W 279 ° 0 min 0 W/m² 20,2 °C 22,5 °C 12,9 km/h (3 Bft)
20.08.2023 04:17 24,1 °C 22,6 °C 70 % 87 % 1020,1 hPa 0,0 l/m² 6,6 km/h (2 Bft) W 267 ° 0 min 0 W/m² 20,3 °C 22,5 °C 14,5 km/h (3 Bft)
20.08.2023 04:19 24,2 °C 22,6 °C 70 % 87 % 1020,1 hPa 0,0 l/m² 3,0 km/h (1 Bft) W-SW 254 ° 0 min 0 W/m² 20,3 °C 22,6 °C 6,4 km/h (2 Bft)
20.08.2023 04:20 24,2 °C 22,6 °C 70 % 87 % 1020,2 hPa 0,0 l/m² 3,2 km/h (1 Bft) W 281 ° 0 min 0 W/m² 20,3 °C 22,6 °C 11,3 km/h (2 Bft)
20.08.2023 04:22 24,1 °C 22,5 °C 70 % 87 % 1020,2 hPa 0,0 l/m² 3,7 km/h (1 Bft) W-NW 302 ° 0 min 0 W/m² 20,2 °C 22,5 °C 6,4 km/h (2 Bft)
20.08.2023 04:24 24,1 °C 22,4 °C 70 % 87 % 1020,1 hPa 0,0 l/m² 3,2 km/h (1 Bft) NW 307 ° 0 min 0 W/m² 20,1 °C 22,4 °C 11,3 km/h (2 Bft)
20.08.2023 04:26 24,2 °C 22,4 °C 70 % 87 % 1020,0 hPa 0,0 l/m² 5,3 km/h (1 Bft) W-NW 300 ° 0 min 0 W/m² 20,1 °C 22,4 °C 11,3 km/h (2 Bft)
20.08.2023 04:28 24,1 °C 22,4 °C 70 % 87 % 1020,0 hPa 0,0 l/m² 2,9 km/h (1 Bft) NW 312 ° 0 min 0 W/m² 20,1 °C 22,4 °C 9,7 km/h (2 Bft)
20.08.2023 04:30 24,2 °C 22,4 °C 70 % 87 % 1020,1 hPa 0,0 l/m² 2,8 km/h (1 Bft) N-NW 336 ° 0 min 0 W/m² 20,1 °C 22,4 °C 8,0 km/h (2 Bft)
20.08.2023 04:31 24,1 °C 22,4 °C 70 % 87 % 1020,2 hPa 0,0 l/m² 4,4 km/h (1 Bft) NW 319 ° 0 min 0 W/m² 20,1 °C 22,4 °C 8,0 km/h (2 Bft)
20.08.2023 04:33 24,1 °C 22,4 °C 70 % 88 % 1020,2 hPa 0,0 l/m² 3,2 km/h (1 Bft) W-SW 247 ° 0 min 0 W/m² 20,3 °C 22,4 °C 9,7 km/h (2 Bft)
20.08.2023 04:35 24,2 °C 22,4 °C 70 % 88 % 1020,3 hPa 0,0 l/m² 2,5 km/h (1 Bft) NW 320 ° 0 min 0 W/m² 20,3 °C 22,4 °C 6,4 km/h (2 Bft)
20.08.2023 04:37 24,2 °C 22,4 °C 70 % 88 % 1020,3 hPa 0,0 l/m² 4,7 km/h (1 Bft) NW 315 ° 0 min 0 W/m² 20,3 °C 22,4 °C 11,3 km/h (2 Bft)
20.08.2023 04:39 24,1 °C 22,3 °C 70 % 88 % 1020,3 hPa 0,0 l/m² 5,9 km/h (2 Bft) W 281 ° 0 min 0 W/m² 20,2 °C 22,3 °C 16,1 km/h (3 Bft)
20.08.2023 04:41 24,1 °C 22,3 °C 70 % 88 % 1020,2 hPa 0,0 l/m² 2,4 km/h (1 Bft) W-NW 284 ° 0 min 0 W/m² 20,2 °C 22,3 °C 6,4 km/h (2 Bft)
20.08.2023 04:42 24,1 °C 22,3 °C 70 % 88 % 1020,3 hPa 0,0 l/m² 5,1 km/h (1 Bft) W-NW 286 ° 0 min 0 W/m² 20,2 °C 22,3 °C 11,3 km/h (2 Bft)
20.08.2023 04:44 24,2 °C 22,3 °C 70 % 88 % 1020,1 hPa 0,0 l/m² 3,7 km/h (1 Bft) W-NW 282 ° 0 min 0 W/m² 20,2 °C 22,3 °C 14,5 km/h (3 Bft)
20.08.2023 04:46 24,1 °C 22,3 °C 70 % 88 % 1020,2 hPa 0,0 l/m² 3,2 km/h (1 Bft) W-NW 285 ° 0 min 0 W/m² 20,2 °C 22,3 °C 9,7 km/h (2 Bft)
20.08.2023 04:48 24,1 °C 22,3 °C 70 % 88 % 1020,1 hPa 0,0 l/m² 4,8 km/h (1 Bft) NW 313 ° 0 min 0 W/m² 20,2 °C 22,3 °C 12,9 km/h (3 Bft)
20.08.2023 04:50 24,2 °C 22,3 °C 70 % 88 % 1020,1 hPa 0,0 l/m² 5,3 km/h (1 Bft) N-NW 330 ° 0 min 0 W/m² 20,2 °C 22,3 °C 11,3 km/h (2 Bft)
20.08.2023 04:51 24,1 °C 22,3 °C 70 % 89 % 1020,1 hPa 0,0 l/m² 4,3 km/h (1 Bft) N-NW 331 ° 0 min 0 W/m² 20,4 °C 22,3 °C 11,3 km/h (2 Bft)
20.08.2023 04:53 24,2 °C 22,3 °C 70 % 89 % 1020,1 hPa 0,0 l/m² 3,6 km/h (1 Bft) N-NW 332 ° 0 min 0 W/m² 20,4 °C 22,3 °C 9,7 km/h (2 Bft)
20.08.2023 04:55 24,1 °C 22,2 °C 70 % 89 % 1020,1 hPa 0,0 l/m² 3,1 km/h (1 Bft) W-NW 303 ° 0 min 0 W/m² 20,3 °C 22,2 °C 8,0 km/h (2 Bft)
20.08.2023 04:57 24,1 °C 22,2 °C 70 % 89 % 1020,0 hPa 0,0 l/m² 4,6 km/h (1 Bft) W 266 ° 0 min 0 W/m² 20,3 °C 22,2 °C 11,3 km/h (2 Bft)
20.08.2023 04:59 24,1 °C 22,2 °C 70 % 89 % 1020,1 hPa 0,0 l/m² 3,4 km/h (1 Bft) NW 316 ° 0 min 0 W/m² 20,3 °C 22,2 °C 8,0 km/h (2 Bft)
20.08.2023 05:01 24,1 °C 22,2 °C 70 % 89 % 1020,3 hPa 0,0 l/m² 4,9 km/h (1 Bft) NW 307 ° 0 min 0 W/m² 20,3 °C 22,2 °C 12,9 km/h (3 Bft)
20.08.2023 05:02 24,1 °C 22,2 °C 70 % 89 % 1020,2 hPa 0,0 l/m² 6,0 km/h (2 Bft) W-NW 291 ° 0 min 0 W/m² 20,3 °C 22,2 °C 14,5 km/h (3 Bft)
20.08.2023 05:03 24,1 °C 22,2 °C 70 % 89 % 1020,3 hPa 0,0 l/m² 5,4 km/h (2 Bft) W-NW 303 ° 0 min 0 W/m² 20,3 °C 22,2 °C 9,7 km/h (2 Bft)
20.08.2023 05:04 24,2 °C 22,2 °C 71 % 89 % 1020,2 hPa 0,0 l/m² 7,1 km/h (2 Bft) N 355 ° 0 min 0 W/m² 20,3 °C 22,0 °C 11,3 km/h (2 Bft)
20.08.2023 05:06 24,2 °C 22,2 °C 70 % 89 % 1020,3 hPa 0,0 l/m² 4,2 km/h (1 Bft) NW 320 ° 0 min 0 W/m² 20,3 °C 22,2 °C 9,7 km/h (2 Bft)
20.08.2023 05:08 24,2 °C 22,2 °C 71 % 89 % 1020,3 hPa 0,0 l/m² 6,3 km/h (2 Bft) W-NW 299 ° 0 min 0 W/m² 20,3 °C 22,2 °C 12,9 km/h (3 Bft)
20.08.2023 05:10 24,2 °C 22,1 °C 71 % 89 % 1020,3 hPa 0,0 l/m² 8,0 km/h (2 Bft) W-NW 293 ° 0 min 0 W/m² 20,2 °C 21,6 °C 14,5 km/h (3 Bft)
20.08.2023 05:11 24,1 °C 22,1 °C 71 % 89 % 1020,3 hPa 0,0 l/m² 7,1 km/h (2 Bft) W-NW 284 ° 0 min 0 W/m² 20,2 °C 21,9 °C 11,3 km/h (2 Bft)
20.08.2023 05:13 24,1 °C 22,1 °C 71 % 89 % 1020,3 hPa 0,0 l/m² 8,2 km/h (2 Bft) NW 311 ° 0 min 0 W/m² 20,2 °C 21,5 °C 14,5 km/h (3 Bft)
20.08.2023 05:15 24,1 °C 22,1 °C 71 % 89 % 1020,3 hPa 0,0 l/m² 7,0 km/h (2 Bft) W-NW 300 ° 0 min 0 W/m² 20,2 °C 21,9 °C 14,5 km/h (3 Bft)
20.08.2023 05:17 24,1 °C 22,1 °C 71 % 89 % 1020,2 hPa 0,0 l/m² 6,8 km/h (2 Bft) NW 317 ° 0 min 0 W/m² 20,2 °C 22,0 °C 12,9 km/h (3 Bft)
20.08.2023 05:19 24,1 °C 22,1 °C 71 % 89 % 1020,3 hPa 0,0 l/m² 9,0 km/h (2 Bft) NW 317 ° 0 min 0 W/m² 20,2 °C 21,2 °C 14,5 km/h (3 Bft)
20.08.2023 05:21 24,1 °C 22,1 °C 71 % 89 % 1020,4 hPa 0,0 l/m² 6,2 km/h (2 Bft) W-NW 290 ° 0 min 0 W/m² 20,2 °C 22,1 °C 14,5 km/h (3 Bft)
20.08.2023 05:22 24,1 °C 22,1 °C 71 % 89 % 1020,4 hPa 0,0 l/m² 9,1 km/h (2 Bft) W-NW 300 ° 0 min 0 W/m² 20,2 °C 21,2 °C 14,5 km/h (3 Bft)
20.08.2023 05:23 24,1 °C 22,1 °C 71 % 89 % 1020,4 hPa 0,0 l/m² 7,7 km/h (2 Bft) NW 324 ° 0 min 0 W/m² 20,2 °C 21,7 °C 14,5 km/h (3 Bft)
20.08.2023 05:24 24,1 °C 22,1 °C 71 % 89 % 1020,4 hPa 0,0 l/m² 9,5 km/h (2 Bft) NW 315 ° 0 min 0 W/m² 20,2 °C 21,1 °C 17,7 km/h (3 Bft)
20.08.2023 05:26 24,1 °C 22,0 °C 71 % 90 % 1020,4 hPa 0,0 l/m² 7,7 km/h (2 Bft) N 355 ° 0 min 0 W/m² 20,3 °C 21,6 °C 19,3 km/h (3 Bft)
20.08.2023 05:28 24,1 °C 22,1 °C 71 % 90 % 1020,4 hPa 0,0 l/m² 8,5 km/h (2 Bft) N 360 ° 0 min 0 W/m² 20,4 °C 21,4 °C 19,3 km/h (3 Bft)
20.08.2023 05:30 24,1 °C 22,0 °C 71 % 90 % 1020,4 hPa 0,0 l/m² 10,1 km/h (2 Bft) N 355 ° 0 min 0 W/m² 20,3 °C 20,8 °C 22,5 km/h (4 Bft)
20.08.2023 05:31 24,1 °C 22,0 °C 71 % 90 % 1020,4 hPa 0,0 l/m² 3,9 km/h (1 Bft) N-NW 335 ° 0 min 0 W/m² 20,3 °C 22,0 °C 8,0 km/h (2 Bft)
20.08.2023 05:33 24,1 °C 22,0 °C 71 % 90 % 1020,4 hPa 0,0 l/m² 6,3 km/h (2 Bft) N-NW 346 ° 0 min 0 W/m² 20,3 °C 22,0 °C 14,5 km/h (3 Bft)
20.08.2023 05:35 24,1 °C 22,0 °C 71 % 90 % 1020,4 hPa 0,0 l/m² 3,2 km/h (1 Bft) N 355 ° 0 min 0 W/m² 20,3 °C 22,0 °C 12,9 km/h (3 Bft)
20.08.2023 05:37 24,1 °C 22,0 °C 71 % 90 % 1020,4 hPa 0,0 l/m² 2,6 km/h (1 Bft) W-NW 290 ° 0 min 0 W/m² 20,3 °C 22,0 °C 11,3 km/h (2 Bft)
20.08.2023 05:39 24,1 °C 22,0 °C 71 % 90 % 1020,5 hPa 0,0 l/m² 11,4 km/h (2 Bft) N-NW 331 ° 0 min 0 W/m² 20,3 °C 20,5 °C 19,3 km/h (3 Bft)
20.08.2023 05:41 24,1 °C 22,0 °C 71 % 90 % 1020,5 hPa 0,0 l/m² 11,8 km/h (2 Bft) N 5 ° 0 min 0 W/m² 20,3 °C 20,4 °C 24,1 km/h (4 Bft)
20.08.2023 05:42 24,1 °C 22,0 °C 71 % 90 % 1020,4 hPa 0,0 l/m² 13,8 km/h (3 Bft) N 355 ° 0 min 0 W/m² 20,3 °C 19,9 °C 20,9 km/h (4 Bft)
20.08.2023 05:43 24,1 °C 22,0 °C 71 % 90 % 1020,4 hPa 0,0 l/m² 8,0 km/h (2 Bft) W-NW 290 ° 0 min 0 W/m² 20,3 °C 21,5 °C 14,5 km/h (3 Bft)
20.08.2023 05:44 24,1 °C 22,0 °C 71 % 90 % 1020,5 hPa 0,0 l/m² 3,7 km/h (1 Bft) N-NW 340 ° 0 min 0 W/m² 20,3 °C 22,0 °C 6,4 km/h (2 Bft)
20.08.2023 05:46 24,1 °C 22,0 °C 71 % 90 % 1020,5 hPa 0,0 l/m² 11,6 km/h (2 Bft) N-NW 333 ° 0 min 0 W/m² 20,3 °C 20,4 °C 19,3 km/h (3 Bft)
20.08.2023 05:48 24,1 °C 22,0 °C 71 % 90 % 1020,5 hPa 0,0 l/m² 7,0 km/h (2 Bft) W 267 ° 0 min 0 W/m² 20,3 °C 21,8 °C 12,9 km/h (3 Bft)
20.08.2023 05:50 24,1 °C 22,0 °C 71 % 90 % 1020,5 hPa 0,0 l/m² 6,7 km/h (2 Bft) W-NW 288 ° 0 min 0 W/m² 20,3 °C 21,9 °C 14,5 km/h (3 Bft)
20.08.2023 05:51 24,1 °C 22,0 °C 71 % 90 % 1020,5 hPa 0,0 l/m² 5,1 km/h (1 Bft) W-NW 296 ° 0 min 0 W/m² 20,3 °C 22,0 °C 14,5 km/h (3 Bft)
20.08.2023 05:53 24,1 °C 22,0 °C 71 % 90 % 1020,4 hPa 0,0 l/m² 6,7 km/h (2 Bft) N 360 ° 0 min 0 W/m² 20,3 °C 21,9 °C 16,1 km/h (3 Bft)
20.08.2023 05:55 24,1 °C 22,0 °C 71 % 90 % 1020,5 hPa 0,0 l/m² 6,1 km/h (2 Bft) N-NW 335 ° 0 min 0 W/m² 20,3 °C 22,0 °C 12,9 km/h (3 Bft)
20.08.2023 05:57 24,1 °C 22,0 °C 71 % 90 % 1020,5 hPa 0,0 l/m² 7,0 km/h (2 Bft) N-NW 329 ° 0 min 0 W/m² 20,3 °C 21,8 °C 16,1 km/h (3 Bft)
20.08.2023 05:59 24,1 °C 22,0 °C 71 % 90 % 1020,5 hPa 0,0 l/m² 11,2 km/h (2 Bft) W-NW 298 ° 0 min 0 W/m² 20,3 °C 20,5 °C 19,3 km/h (3 Bft)
20.08.2023 06:01 24,1 °C 22,0 °C 71 % 90 % 1020,5 hPa 0,0 l/m² 9,8 km/h (2 Bft) NW 321 ° 0 min 0 W/m² 20,3 °C 20,9 °C 20,9 km/h (4 Bft)
20.08.2023 06:02 24,1 °C 22,0 °C 71 % 90 % 1020,4 hPa 0,0 l/m² 12,1 km/h (2 Bft) N-NW 328 ° 0 min 0 W/m² 20,3 °C 20,3 °C 19,3 km/h (3 Bft)
20.08.2023 06:03 24,1 °C 22,0 °C 71 % 90 % 1020,4 hPa 0,0 l/m² 11,4 km/h (2 Bft) NW 319 ° 0 min 0 W/m² 20,3 °C 20,5 °C 20,9 km/h (4 Bft)
20.08.2023 06:04 24,1 °C 22,0 °C 71 % 90 % 1020,4 hPa 0,0 l/m² 10,7 km/h (2 Bft) N-NW 334 ° 0 min 0 W/m² 20,3 °C 20,7 °C 16,1 km/h (3 Bft)
20.08.2023 06:06 24,1 °C 22,0 °C 71 % 90 % 1020,4 hPa 0,0 l/m² 9,4 km/h (2 Bft) W-SW 248 ° 0 min 0 W/m² 20,3 °C 21,0 °C 16,1 km/h (3 Bft)
20.08.2023 06:08 24,1 °C 22,0 °C 71 % 90 % 1020,5 hPa 0,0 l/m² 7,2 km/h (2 Bft) W 278 ° 0 min 0 W/m² 20,3 °C 21,7 °C 12,9 km/h (3 Bft)
20.08.2023 06:10 24,1 °C 21,9 °C 72 % 90 % 1020,5 hPa 0,0 l/m² 3,6 km/h (1 Bft) W-NW 284 ° 0 min 0 W/m² 20,2 °C 21,9 °C 6,4 km/h (2 Bft)
20.08.2023 06:11 24,1 °C 22,0 °C 72 % 90 % 1020,5 hPa 0,0 l/m² 1,9 km/h (1 Bft) NW 305 ° 0 min 0 W/m² 20,3 °C 22,0 °C 4,8 km/h (1 Bft)
20.08.2023 06:13 24,1 °C 22,0 °C 72 % 90 % 1020,5 hPa 0,0 l/m² 1,5 km/h (1 Bft) N-NW 331 ° 0 min 0 W/m² 20,3 °C 22,0 °C 4,8 km/h (1 Bft)
20.08.2023 06:15 24,1 °C 22,0 °C 72 % 90 % 1020,5 hPa 0,0 l/m² 3,5 km/h (1 Bft) W-NW 302 ° 0 min 0 W/m² 20,3 °C 22,0 °C 8,0 km/h (2 Bft)
20.08.2023 06:17 24,1 °C 22,0 °C 71 % 90 % 1020,5 hPa 0,0 l/m² 3,0 km/h (1 Bft) W 281 ° 0 min 5 W/m² 20,3 °C 22,0 °C 8,0 km/h (2 Bft)
20.08.2023 06:19 24,1 °C 22,0 °C 72 % 90 % 1020,5 hPa 0,0 l/m² 3,6 km/h (1 Bft) W-NW 287 ° 0 min 5 W/m² 20,3 °C 22,0 °C 8,0 km/h (2 Bft)
20.08.2023 06:21 24,1 °C 22,0 °C 72 % 90 % 1020,6 hPa 0,0 l/m² 1,1 km/h (1 Bft) W-NW 302 ° 0 min 7 W/m² 20,3 °C 22,0 °C 6,4 km/h (2 Bft)
20.08.2023 06:22 24,1 °C 22,0 °C 72 % 90 % 1020,5 hPa 0,0 l/m² 0,2 km/h (0 Bft) W-NW 303 ° 0 min 9 W/m² 20,3 °C 22,0 °C 1,6 km/h (1 Bft)
20.08.2023 06:23 24,1 °C 22,0 °C 71 % 90 % 1020,5 hPa 0,0 l/m² 0,4 km/h (0 Bft) W-NW 302 ° 0 min 9 W/m² 20,3 °C 22,0 °C 1,6 km/h (1 Bft)
20.08.2023 06:24 24,1 °C 22,0 °C 71 % 90 % 1020,6 hPa 0,0 l/m² 2,1 km/h (1 Bft) NW 304 ° 0 min 9 W/m² 20,3 °C 22,0 °C 4,8 km/h (1 Bft)
20.08.2023 06:26 24,1 °C 22,0 °C 72 % 90 % 1020,6 hPa 0,0 l/m² 0,9 km/h (0 Bft) W-NW 302 ° 0 min 9 W/m² 20,3 °C 22,0 °C 3,2 km/h (1 Bft)
20.08.2023 06:28 24,1 °C 22,0 °C 71 % 90 % 1020,6 hPa 0,0 l/m² 3,8 km/h (1 Bft) W-NW 296 ° 0 min 9 W/m² 20,3 °C 22,0 °C 6,4 km/h (2 Bft)
20.08.2023 06:30 24,1 °C 22,0 °C 71 % 90 % 1020,5 hPa 0,0 l/m² 1,6 km/h (1 Bft) NW 309 ° 0 min 11 W/m² 20,3 °C 22,0 °C 4,8 km/h (1 Bft)
20.08.2023 06:31 24,1 °C 22,0 °C 71 % 90 % 1020,5 hPa 0,0 l/m² 1,8 km/h (1 Bft) NW 315 ° 0 min 12 W/m² 20,3 °C 22,0 °C 4,8 km/h (1 Bft)
20.08.2023 06:33 24,1 °C 22,0 °C 71 % 90 % 1020,6 hPa 0,0 l/m² 4,1 km/h (1 Bft) NW 310 ° 0 min 11 W/m² 20,3 °C 22,0 °C 11,3 km/h (2 Bft)
20.08.2023 06:35 24,1 °C 22,1 °C 71 % 90 % 1020,6 hPa 0,0 l/m² 4,1 km/h (1 Bft) N-NW 332 ° 0 min 9 W/m² 20,4 °C 22,1 °C 11,3 km/h (2 Bft)
20.08.2023 06:37 24,1 °C 22,1 °C 71 % 90 % 1020,7 hPa 0,0 l/m² 4,8 km/h (1 Bft) N 355 ° 0 min 11 W/m² 20,4 °C 22,1 °C 11,3 km/h (2 Bft)
20.08.2023 06:39 24,1 °C 22,1 °C 71 % 90 % 1020,6 hPa 0,0 l/m² 5,3 km/h (1 Bft) N-NO 22 ° 0 min 12 W/m² 20,4 °C 22,1 °C 8,0 km/h (2 Bft)
20.08.2023 06:41 24,1 °C 22,1 °C 71 % 90 % 1020,6 hPa 0,0 l/m² 5,2 km/h (1 Bft) NW 325 ° 0 min 12 W/m² 20,4 °C 22,1 °C 8,0 km/h (2 Bft)
20.08.2023 06:42 24,1 °C 22,1 °C 71 % 90 % 1020,6 hPa 0,0 l/m² 4,1 km/h (1 Bft) N 355 ° 0 min 12 W/m² 20,4 °C 22,1 °C 8,0 km/h (2 Bft)
20.08.2023 06:43 24,1 °C 22,1 °C 71 % 90 % 1020,6 hPa 0,0 l/m² 11,6 km/h (2 Bft) N-NW 331 ° 0 min 12 W/m² 20,4 °C 20,5 °C 17,7 km/h (3 Bft)
20.08.2023 06:44 24,1 °C 22,0 °C 71 % 90 % 1020,5 hPa 0,0 l/m² 8,5 km/h (2 Bft) N-NW 342 ° 0 min 12 W/m² 20,3 °C 21,3 °C 16,1 km/h (3 Bft)
20.08.2023 06:47 24,1 °C 22,0 °C 72 % 90 % 1020,6 hPa 0,0 l/m² 8,4 km/h (2 Bft) N-NW 333 ° 0 min 11 W/m² 20,3 °C 21,3 °C 17,7 km/h (3 Bft)
20.08.2023 06:49 24,1 °C 22,0 °C 71 % 90 % 1020,6 hPa 0,0 l/m² 7,9 km/h (2 Bft) W-NW 302 ° 0 min 11 W/m² 20,3 °C 21,5 °C 12,9 km/h (3 Bft)
20.08.2023 06:51 24,1 °C 22,0 °C 72 % 90 % 1020,6 hPa 0,0 l/m² 4,5 km/h (1 Bft) N-NW 343 ° 0 min 11 W/m² 20,3 °C 22,0 °C 9,7 km/h (2 Bft)
20.08.2023 06:52 24,1 °C 22,0 °C 71 % 90 % 1020,7 hPa 0,0 l/m² 5,1 km/h (1 Bft) NW 326 ° 0 min 11 W/m² 20,3 °C 22,0 °C 8,0 km/h (2 Bft)
20.08.2023 06:53 24,1 °C 22,0 °C 72 % 90 % 1020,6 hPa 0,0 l/m² 6,4 km/h (2 Bft) W-NW 289 ° 0 min 11 W/m² 20,3 °C 22,0 °C 11,3 km/h (2 Bft)
20.08.2023 06:54 24,1 °C 22,0 °C 71 % 90 % 1020,7 hPa 0,0 l/m² 7,0 km/h (2 Bft) W-NW 300 ° 0 min 9 W/m² 20,3 °C 21,8 °C 12,9 km/h (3 Bft)
20.08.2023 06:56 24,1 °C 22,1 °C 72 % 90 % 1020,8 hPa 0,0 l/m² 5,0 km/h (1 Bft) W-NW 288 ° 0 min 11 W/m² 20,4 °C 22,1 °C 9,7 km/h (2 Bft)
20.08.2023 06:58 24,1 °C 22,1 °C 71 % 90 % 1020,7 hPa 0,0 l/m² 1,0 km/h (0 Bft) W-NW 288 ° 0 min 11 W/m² 20,4 °C 22,1 °C 4,8 km/h (1 Bft)
20.08.2023 07:00 24,1 °C 22,1 °C 72 % 90 % 1020,7 hPa 0,0 l/m² 4,8 km/h (1 Bft) N-NW 331 ° 0 min 12 W/m² 20,4 °C 22,1 °C 8,0 km/h (2 Bft)
20.08.2023 07:01 24,1 °C 22,1 °C 71 % 90 % 1020,7 hPa 0,0 l/m² 4,6 km/h (1 Bft) W-NW 292 ° 0 min 14 W/m² 20,4 °C 22,1 °C 8,0 km/h (2 Bft)
20.08.2023 07:03 24,1 °C 22,1 °C 72 % 90 % 1020,7 hPa 0,0 l/m² 4,9 km/h (1 Bft) NW 322 ° 0 min 21 W/m² 20,4 °C 22,1 °C 12,9 km/h (3 Bft)
20.08.2023 07:05 24,1 °C 22,1 °C 72 % 90 % 1020,7 hPa 0,0 l/m² 4,5 km/h (1 Bft) N-NW 339 ° 0 min 21 W/m² 20,4 °C 22,1 °C 9,7 km/h (2 Bft)
20.08.2023 07:07 24,1 °C 22,1 °C 72 % 90 % 1020,7 hPa 0,0 l/m² 3,2 km/h (1 Bft) NW 321 ° 0 min 25 W/m² 20,4 °C 22,1 °C 6,4 km/h (2 Bft)
20.08.2023 07:09 24,1 °C 22,1 °C 72 % 90 % 1020,7 hPa 0,0 l/m² 2,7 km/h (1 Bft) NW 321 ° 0 min 21 W/m² 20,4 °C 22,1 °C 4,8 km/h (1 Bft)
20.08.2023 07:11 24,1 °C 22,1 °C 72 % 90 % 1020,9 hPa 0,0 l/m² 0,3 km/h (0 Bft) W-NW 296 ° 0 min 21 W/m² 20,4 °C 22,1 °C 3,2 km/h (1 Bft)
20.08.2023 07:12 24,1 °C 22,1 °C 72 % 90 % 1020,9 hPa 0,0 l/m² 0,3 km/h (0 Bft) W-NW 297 ° 0 min 25 W/m² 20,4 °C 22,1 °C 1,6 km/h (1 Bft)
20.08.2023 07:13 24,1 °C 22,1 °C 72 % 90 % 1020,9 hPa 0,0 l/m² 0,2 km/h (0 Bft) W-NW 297 ° 0 min 28 W/m² 20,4 °C 22,1 °C 1,6 km/h (1 Bft)
20.08.2023 07:14 24,1 °C 22,1 °C 72 % 90 % 1020,9 hPa 0,0 l/m² 1,8 km/h (1 Bft) W-NW 297 ° 0 min 30 W/m² 20,4 °C 22,1 °C 3,2 km/h (1 Bft)
20.08.2023 07:16 24,1 °C 22,1 °C 72 % 90 % 1020,9 hPa 0,0 l/m² 0,9 km/h (0 Bft) NW 309 ° 0 min 42 W/m² 20,4 °C 22,1 °C 4,8 km/h (1 Bft)
20.08.2023 07:18 24,1 °C 22,1 °C 72 % 90 % 1020,9 hPa 0,0 l/m² 0,7 km/h (0 Bft) NW 325 ° 2 min 60 W/m² 20,4 °C 22,1 °C 4,8 km/h (1 Bft)
20.08.2023 07:20 24,1 °C 22,2 °C 72 % 90 % 1020,9 hPa 0,0 l/m² 2,2 km/h (1 Bft) NW 313 ° 2 min 62 W/m² 20,5 °C 22,2 °C 4,8 km/h (1 Bft)
20.08.2023 07:21 24,1 °C 22,2 °C 72 % 90 % 1020,9 hPa 0,0 l/m² 1,0 km/h (0 Bft) NW 307 ° 1 min 63 W/m² 20,5 °C 22,2 °C 4,8 km/h (1 Bft)
20.08.2023 07:23 24,1 °C 22,1 °C 72 % 90 % 1020,9 hPa 0,0 l/m² 1,4 km/h (1 Bft) NW 309 ° 2 min 54 W/m² 20,4 °C 22,1 °C 4,8 km/h (1 Bft)
20.08.2023 07:25 24,1 °C 22,2 °C 72 % 90 % 1020,9 hPa 0,0 l/m² 0,8 km/h (0 Bft) NW 310 ° 2 min 53 W/m² 20,5 °C 22,2 °C 3,2 km/h (1 Bft)
20.08.2023 07:27 24,1 °C 22,2 °C 72 % 90 % 1020,9 hPa 0,0 l/m² 3,4 km/h (1 Bft) N-NW 331 ° 0 min 51 W/m² 20,5 °C 22,2 °C 8,0 km/h (2 Bft)
20.08.2023 07:29 24,1 °C 22,2 °C 72 % 91 % 1020,9 hPa 0,0 l/m² 4,5 km/h (1 Bft) NW 319 ° 2 min 54 W/m² 20,7 °C 22,2 °C 6,4 km/h (2 Bft)
20.08.2023 07:31 24,1 °C 22,2 °C 72 % 90 % 1020,9 hPa 0,0 l/m² 3,6 km/h (1 Bft) NW 314 ° 2 min 58 W/m² 20,5 °C 22,2 °C 6,4 km/h (2 Bft)
20.08.2023 07:32 24,1 °C 22,2 °C 72 % 90 % 1021,0 hPa 0,0 l/m² 3,2 km/h (1 Bft) NW 309 ° 1 min 62 W/m² 20,5 °C 22,2 °C 6,4 km/h (2 Bft)
20.08.2023 07:33 24,1 °C 22,2 °C 72 % 90 % 1020,9 hPa 0,0 l/m² 3,7 km/h (1 Bft) N 351 ° 1 min 65 W/m² 20,5 °C 22,2 °C 6,4 km/h (2 Bft)
20.08.2023 07:34 24,1 °C 22,2 °C 72 % 90 % 1020,9 hPa 0,0 l/m² 4,3 km/h (1 Bft) N-NW 327 ° 1 min 63 W/m² 20,5 °C 22,2 °C 4,8 km/h (1 Bft)
20.08.2023 07:36 24,1 °C 22,2 °C 72 % 90 % 1020,9 hPa 0,0 l/m² 5,7 km/h (2 Bft) N-NW 331 ° 2 min 62 W/m² 20,5 °C 22,2 °C 12,9 km/h (3 Bft)
20.08.2023 07:38 24,1 °C 22,2 °C 72 % 90 % 1020,9 hPa 0,0 l/m² 7,4 km/h (2 Bft) N-NW 332 ° 2 min 76 W/m² 20,5 °C 21,9 °C 9,7 km/h (2 Bft)
20.08.2023 07:40 24,1 °C 22,3 °C 72 % 90 % 1021,0 hPa 0,0 l/m² 5,6 km/h (2 Bft) N-NW 338 ° 2 min 58 W/m² 20,6 °C 22,3 °C 8,0 km/h (2 Bft)
20.08.2023 07:41 24,1 °C 22,3 °C 72 % 90 % 1021,0 hPa 0,0 l/m² 2,6 km/h (1 Bft) NW 321 ° 0 min 47 W/m² 20,6 °C 22,3 °C 8,0 km/h (2 Bft)
20.08.2023 07:43 24,1 °C 22,3 °C 72 % 90 % 1021,0 hPa 0,0 l/m² 2,8 km/h (1 Bft) NW 309 ° 0 min 46 W/m² 20,6 °C 22,3 °C 11,3 km/h (2 Bft)
20.08.2023 07:45 24,1 °C 22,3 °C 72 % 90 % 1021,0 hPa 0,0 l/m² 2,2 km/h (1 Bft) NW 322 ° 0 min 42 W/m² 20,6 °C 22,3 °C 6,4 km/h (2 Bft)
20.08.2023 07:47 24,1 °C 22,3 °C 72 % 90 % 1021,0 hPa 0,0 l/m² 1,3 km/h (1 Bft) NW 311 ° 0 min 47 W/m² 20,6 °C 22,3 °C 3,2 km/h (1 Bft)
20.08.2023 07:49 24,1 °C 22,3 °C 72 % 90 % 1021,0 hPa 0,0 l/m² 0,9 km/h (0 Bft) NW 317 ° 0 min 49 W/m² 20,6 °C 22,3 °C 3,2 km/h (1 Bft)
20.08.2023 07:51 24,1 °C 22,3 °C 72 % 90 % 1021,1 hPa 0,0 l/m² 1,3 km/h (1 Bft) N 5 ° 0 min 47 W/m² 20,6 °C 22,3 °C 4,8 km/h (1 Bft)
20.08.2023 07:52 24,1 °C 22,3 °C 72 % 90 % 1021,1 hPa 0,0 l/m² 2,2 km/h (1 Bft) W-NW 301 ° 0 min 44 W/m² 20,6 °C 22,3 °C 3,2 km/h (1 Bft)
20.08.2023 07:53 24,1 °C 22,3 °C 72 % 90 % 1021,2 hPa 0,0 l/m² 1,3 km/h (1 Bft) W-NW 302 ° 0 min 46 W/m² 20,6 °C 22,3 °C 3,2 km/h (1 Bft)
20.08.2023 07:54 24,1 °C 22,3 °C 72 % 90 % 1021,1 hPa 0,0 l/m² 1,0 km/h (0 Bft) W-NW 302 ° 0 min 47 W/m² 20,6 °C 22,3 °C 1,6 km/h (1 Bft)
20.08.2023 07:56 24,1 °C 22,3 °C 72 % 90 % 1021,2 hPa 0,0 l/m² 3,2 km/h (1 Bft) NW 304 ° 0 min 47 W/m² 20,6 °C 22,3 °C 8,0 km/h (2 Bft)
20.08.2023 07:58 24,1 °C 22,3 °C 72 % 90 % 1021,2 hPa 0,0 l/m² 6,2 km/h (2 Bft) NW 321 ° 0 min 35 W/m² 20,6 °C 22,3 °C 9,7 km/h (2 Bft)
20.08.2023 08:00 24,1 °C 22,4 °C 72 % 90 % 1021,2 hPa 0,0 l/m² 1,6 km/h (1 Bft) NW 321 ° 2 min 56 W/m² 20,7 °C 22,4 °C 4,8 km/h (1 Bft)
20.08.2023 08:01 24,1 °C 22,4 °C 72 % 90 % 1021,2 hPa 0,0 l/m² 0,2 km/h (0 Bft) W-NW 300 ° 1 min 60 W/m² 20,7 °C 22,4 °C 1,6 km/h (1 Bft)
20.08.2023 08:02 24,1 °C 22,4 °C 72 % 90 % 1021,2 hPa 0,0 l/m² 1,4 km/h (1 Bft) W-NW 284 ° 1 min 58 W/m² 20,7 °C 22,4 °C 3,2 km/h (1 Bft)
20.08.2023 08:03 24,1 °C 22,4 °C 72 % 90 % 1021,2 hPa 0,0 l/m² 3,0 km/h (1 Bft) W-NW 289 ° 1 min 63 W/m² 20,7 °C 22,4 °C 4,8 km/h (1 Bft)
20.08.2023 08:05 24,1 °C 22,4 °C 72 % 90 % 1021,3 hPa 0,0 l/m² 3,5 km/h (1 Bft) W-NW 291 ° 2 min 74 W/m² 20,7 °C 22,4 °C 9,7 km/h (2 Bft)
20.08.2023 08:07 24,1 °C 22,4 °C 72 % 90 % 1021,2 hPa 0,0 l/m² 3,4 km/h (1 Bft) W-NW 287 ° 2 min 97 W/m² 20,7 °C 22,4 °C 6,4 km/h (2 Bft)
20.08.2023 08:09 24,1 °C 22,4 °C 72 % 90 % 1021,3 hPa 0,0 l/m² 0,7 km/h (0 Bft) W 269 ° 2 min 114 W/m² 20,7 °C 22,4 °C 3,2 km/h (1 Bft)
20.08.2023 08:11 24,1 °C 22,5 °C 72 % 90 % 1021,4 hPa 0,0 l/m² 1,9 km/h (1 Bft) W-NW 296 ° 2 min 88 W/m² 20,8 °C 22,5 °C 4,8 km/h (1 Bft)
20.08.2023 08:12 24,1 °C 22,5 °C 72 % 90 % 1021,3 hPa 0,0 l/m² 1,9 km/h (1 Bft) NW 308 ° 1 min 70 W/m² 20,8 °C 22,5 °C 3,2 km/h (1 Bft)
20.08.2023 08:13 24,1 °C 22,5 °C 72 % 90 % 1021,4 hPa 0,0 l/m² 2,6 km/h (1 Bft) W 274 ° 1 min 84 W/m² 20,8 °C 22,5 °C 4,8 km/h (1 Bft)
20.08.2023 08:14 24,1 °C 22,6 °C 72 % 90 % 1021,4 hPa 0,0 l/m² 1,6 km/h (1 Bft) W-NW 290 ° 1 min 84 W/m² 20,9 °C 22,6 °C 3,2 km/h (1 Bft)
20.08.2023 08:16 24,1 °C 22,6 °C 72 % 90 % 1021,4 hPa 0,0 l/m² 4,7 km/h (1 Bft) W-NW 294 ° 2 min 70 W/m² 20,9 °C 22,6 °C 11,3 km/h (2 Bft)
20.08.2023 08:18 24,1 °C 22,6 °C 72 % 90 % 1021,4 hPa 0,0 l/m² 4,6 km/h (1 Bft) W-NW 288 ° 0 min 49 W/m² 20,9 °C 22,6 °C 11,3 km/h (2 Bft)
20.08.2023 08:20 24,1 °C 22,6 °C 72 % 90 % 1021,5 hPa 0,0 l/m² 3,8 km/h (1 Bft) N-NW 330 ° 0 min 49 W/m² 20,9 °C 22,6 °C 11,3 km/h (2 Bft)
20.08.2023 08:21 24,1 °C 22,6 °C 72 % 90 % 1021,5 hPa 0,0 l/m² 5,6 km/h (2 Bft) NW 317 ° 0 min 47 W/m² 20,9 °C 22,6 °C 9,7 km/h (2 Bft)
20.08.2023 08:23 24,1 °C 22,6 °C 72 % 90 % 1021,4 hPa 0,0 l/m² 8,3 km/h (2 Bft) W-NW 292 ° 0 min 40 W/m² 20,9 °C 22,0 °C 14,5 km/h (3 Bft)
20.08.2023 08:25 24,1 °C 22,6 °C 72 % 90 % 1021,4 hPa 0,0 l/m² 3,9 km/h (1 Bft) W-NW 289 ° 0 min 42 W/m² 20,9 °C 22,6 °C 11,3 km/h (2 Bft)
20.08.2023 08:27 24,1 °C 22,6 °C 72 % 90 % 1021,5 hPa 0,0 l/m² 5,1 km/h (1 Bft) W-NW 300 ° 0 min 49 W/m² 20,9 °C 22,6 °C 9,7 km/h (2 Bft)
20.08.2023 08:29 24,1 °C 22,6 °C 72 % 90 % 1021,5 hPa 0,0 l/m² 5,2 km/h (1 Bft) W-NW 292 ° 2 min 56 W/m² 20,9 °C 22,6 °C 12,9 km/h (3 Bft)
20.08.2023 08:31 24,1 °C 22,6 °C 72 % 90 % 1021,5 hPa 0,0 l/m² 7,8 km/h (2 Bft) W-NW 302 ° 2 min 54 W/m² 20,9 °C 22,1 °C 16,1 km/h (3 Bft)
20.08.2023 08:32 24,1 °C 22,6 °C 72 % 90 % 1021,5 hPa 0,0 l/m² 8,4 km/h (2 Bft) N-NW 331 ° 0 min 47 W/m² 20,9 °C 22,0 °C 14,5 km/h (3 Bft)
20.08.2023 08:33 24,1 °C 22,6 °C 72 % 90 % 1021,5 hPa 0,0 l/m² 8,6 km/h (2 Bft) NW 323 ° 0 min 40 W/m² 20,9 °C 21,9 °C 14,5 km/h (3 Bft)
20.08.2023 08:34 24,1 °C 22,6 °C 72 % 90 % 1021,5 hPa 0,0 l/m² 7,4 km/h (2 Bft) W 273 ° 0 min 39 W/m² 20,9 °C 22,3 °C 12,9 km/h (3 Bft)
20.08.2023 08:36 24,1 °C 22,6 °C 72 % 89 % 1021,6 hPa 0,0 l/m² 5,6 km/h (2 Bft) N-NW 333 ° 0 min 37 W/m² 20,7 °C 22,6 °C 9,7 km/h (2 Bft)
20.08.2023 08:38 24,1 °C 22,6 °C 72 % 89 % 1021,7 hPa 0,0 l/m² 5,0 km/h (1 Bft) NW 315 ° 0 min 46 W/m² 20,7 °C 22,6 °C 9,7 km/h (2 Bft)
20.08.2023 08:40 24,1 °C 22,6 °C 72 % 89 % 1021,6 hPa 0,0 l/m² 3,9 km/h (1 Bft) NW 304 ° 2 min 67 W/m² 20,7 °C 22,6 °C 8,0 km/h (2 Bft)
20.08.2023 08:41 24,1 °C 22,6 °C 72 % 89 % 1021,7 hPa 0,0 l/m² 4,4 km/h (1 Bft) NW 324 ° 1 min 62 W/m² 20,7 °C 22,6 °C 9,7 km/h (2 Bft)
20.08.2023 08:42 24,1 °C 22,6 °C 72 % 89 % 1021,7 hPa 0,0 l/m² 7,1 km/h (2 Bft) NW 320 ° 1 min 58 W/m² 20,7 °C 22,4 °C 9,7 km/h (2 Bft)
20.08.2023 08:43 24,1 °C 22,6 °C 71 % 89 % 1021,7 hPa 0,0 l/m² 5,2 km/h (1 Bft) N 355 ° 1 min 53 W/m² 20,7 °C 22,6 °C 9,7 km/h (2 Bft)
20.08.2023 08:45 24,1 °C 22,6 °C 72 % 89 % 1021,7 hPa 0,0 l/m² 6,1 km/h (2 Bft) N 5 ° 0 min 47 W/m² 20,7 °C 22,6 °C 9,7 km/h (2 Bft)
20.08.2023 08:47 24,1 °C 22,6 °C 72 % 89 % 1021,7 hPa 0,0 l/m² 4,9 km/h (1 Bft) NW 319 ° 0 min 35 W/m² 20,7 °C 22,6 °C 11,3 km/h (2 Bft)
20.08.2023 08:49 24,1 °C 22,6 °C 72 % 89 % 1021,8 hPa 0,0 l/m² 6,1 km/h (2 Bft) NW 312 ° 0 min 30 W/m² 20,7 °C 22,6 °C 12,9 km/h (3 Bft)
20.08.2023 08:51 24,1 °C 22,6 °C 72 % 89 % 1021,7 hPa 0,0 l/m² 6,4 km/h (2 Bft) N-NW 338 ° 0 min 30 W/m² 20,7 °C 22,6 °C 8,0 km/h (2 Bft)
20.08.2023 08:52 24,2 °C 22,5 °C 72 % 89 % 1021,7 hPa 0,0 l/m² 3,8 km/h (1 Bft) N-NW 334 ° 0 min 39 W/m² 20,6 °C 22,5 °C 4,8 km/h (1 Bft)
20.08.2023 08:53 24,1 °C 22,6 °C 72 % 89 % 1021,7 hPa 0,0 l/m² 3,3 km/h (1 Bft) NW 312 ° 0 min 51 W/m² 20,7 °C 22,6 °C 4,8 km/h (1 Bft)
20.08.2023 08:54 24,2 °C 22,5 °C 72 % 89 % 1021,8 hPa 0,0 l/m² 4,6 km/h (1 Bft) N-NW 327 ° 1 min 58 W/m² 20,6 °C 22,5 °C 9,7 km/h (2 Bft)
20.08.2023 08:56 24,2 °C 22,5 °C 72 % 89 % 1021,7 hPa 0,0 l/m² 3,9 km/h (1 Bft) NW 305 ° 2 min 63 W/m² 20,6 °C 22,5 °C 8,0 km/h (2 Bft)
20.08.2023 08:58 24,2 °C 22,5 °C 72 % 89 % 1021,7 hPa 0,0 l/m² 3,3 km/h (1 Bft) N-NW 343 ° 2 min 83 W/m² 20,6 °C 22,5 °C 6,4 km/h (2 Bft)
20.08.2023 09:00 24,2 °C 22,5 °C 72 % 89 % 1021,7 hPa 0,0 l/m² 4,8 km/h (1 Bft) N 5 ° 2 min 100 W/m² 20,6 °C 22,5 °C 9,7 km/h (2 Bft)
20.08.2023 09:01 24,2 °C 22,5 °C 72 % 89 % 1021,7 hPa 0,0 l/m² 3,3 km/h (1 Bft) N 9 ° 1 min 105 W/m² 20,6 °C 22,5 °C 4,8 km/h (1 Bft)
20.08.2023 09:02 24,2 °C 22,5 °C 72 % 89 % 1021,6 hPa 0,0 l/m² 3,4 km/h (1 Bft) N 5 ° 1 min 114 W/m² 20,6 °C 22,5 °C 4,8 km/h (1 Bft)
20.08.2023 09:03 24,2 °C 22,5 °C 72 % 89 % 1021,7 hPa 0,0 l/m² 3,5 km/h (1 Bft) N 5 ° 1 min 127 W/m² 20,6 °C 22,5 °C 6,4 km/h (2 Bft)
20.08.2023 09:05 24,2 °C 22,6 °C 72 % 89 % 1021,6 hPa 0,0 l/m² 3,7 km/h (1 Bft) N 351 ° 2 min 120 W/m² 20,7 °C 22,6 °C 6,4 km/h (2 Bft)
20.08.2023 09:07 24,2 °C 22,6 °C 72 % 89 % 1021,7 hPa 0,0 l/m² 2,6 km/h (1 Bft) N 355 ° 2 min 107 W/m² 20,7 °C 22,6 °C 4,8 km/h (1 Bft)
20.08.2023 09:09 24,2 °C 22,6 °C 72 % 89 % 1021,7 hPa 0,0 l/m² 3,1 km/h (1 Bft) N-NW 333 ° 2 min 104 W/m² 20,7 °C 22,6 °C 4,8 km/h (1 Bft)
20.08.2023 09:10 24,2 °C 22,5 °C 72 % 89 % 1021,7 hPa 0,0 l/m² 2,7 km/h (1 Bft) N-NW 331 ° 1 min 98 W/m² 20,6 °C 22,5 °C 4,8 km/h (1 Bft)
20.08.2023 09:11 24,2 °C 22,6 °C 72 % 89 % 1021,8 hPa 0,0 l/m² 3,6 km/h (1 Bft) NW 325 ° 1 min 102 W/m² 20,7 °C 22,6 °C 4,8 km/h (1 Bft)
20.08.2023 09:13 24,2 °C 22,6 °C 72 % 89 % 1021,9 hPa 0,0 l/m² 5,9 km/h (2 Bft) N-NW 332 ° 2 min 114 W/m² 20,7 °C 22,6 °C 12,9 km/h (3 Bft)
20.08.2023 09:14 24,2 °C 22,6 °C 72 % 88 % 1021,8 hPa 0,0 l/m² 6,6 km/h (2 Bft) N-NW 335 ° 1 min 120 W/m² 20,5 °C 22,5 °C 9,7 km/h (2 Bft)
20.08.2023 09:15 24,2 °C 22,6 °C 72 % 88 % 1021,9 hPa 0,0 l/m² 5,3 km/h (1 Bft) N-NW 339 ° 1 min 121 W/m² 20,5 °C 22,6 °C 8,0 km/h (2 Bft)
20.08.2023 09:16 24,2 °C 22,6 °C 72 % 88 % 1022,0 hPa 0,0 l/m² 5,6 km/h (2 Bft) NW 307 ° 1 min 118 W/m² 20,5 °C 22,6 °C 8,0 km/h (2 Bft)
20.08.2023 09:17 24,2 °C 22,6 °C 72 % 88 % 1021,9 hPa 0,0 l/m² 3,2 km/h (1 Bft) N-NW 333 ° 1 min 114 W/m² 20,5 °C 22,6 °C 4,8 km/h (1 Bft)
20.08.2023 09:18 24,2 °C 22,6 °C 72 % 88 % 1021,9 hPa 0,0 l/m² 3,2 km/h (1 Bft) NW 317 ° 1 min 113 W/m² 20,5 °C 22,6 °C 6,4 km/h (2 Bft)
20.08.2023 09:19 24,2 °C 22,6 °C 72 % 88 % 1021,9 hPa 0,0 l/m² 5,0 km/h (1 Bft) NW 325 ° 1 min 113 W/m² 20,5 °C 22,6 °C 6,4 km/h (2 Bft)
20.08.2023 09:21 24,3 °C 22,6 °C 72 % 88 % 1021,9 hPa 0,0 l/m² 6,0 km/h (2 Bft) N 349 ° 2 min 120 W/m² 20,5 °C 22,6 °C 8,0 km/h (2 Bft)
20.08.2023 09:23 24,3 °C 22,6 °C 72 % 88 % 1022,0 hPa 0,0 l/m² 5,7 km/h (2 Bft) N-NW 346 ° 2 min 135 W/m² 20,5 °C 22,6 °C 14,5 km/h (3 Bft)
20.08.2023 09:24 24,3 °C 22,6 °C 72 % 87 % 1021,9 hPa 0,0 l/m² 11,1 km/h (2 Bft) NW 325 ° 1 min 144 W/m² 20,3 °C 21,2 °C 16,1 km/h (3 Bft)
20.08.2023 09:25 24,3 °C 22,6 °C 72 % 87 % 1022,0 hPa 0,0 l/m² 6,6 km/h (2 Bft) N-NW 348 ° 1 min 144 W/m² 20,3 °C 22,5 °C 12,9 km/h (3 Bft)
20.08.2023 09:26 24,3 °C 22,7 °C 72 % 87 % 1021,9 hPa 0,0 l/m² 7,7 km/h (2 Bft) N-NW 340 ° 1 min 141 W/m² 20,4 °C 22,3 °C 11,3 km/h (2 Bft)
20.08.2023 09:27 24,2 °C 22,7 °C 72 % 87 % 1021,9 hPa 0,0 l/m² 7,9 km/h (2 Bft) N-NW 348 ° 1 min 137 W/m² 20,4 °C 22,2 °C 12,9 km/h (3 Bft)
20.08.2023 09:28 24,3 °C 22,7 °C 72 % 87 % 1022,0 hPa 0,0 l/m² 5,6 km/h (2 Bft) N-NW 329 ° 1 min 141 W/m² 20,4 °C 22,7 °C 8,0 km/h (2 Bft)
20.08.2023 09:29 24,3 °C 22,7 °C 72 % 87 % 1022,0 hPa 0,0 l/m² 8,9 km/h (2 Bft) N-NO 18 ° 1 min 146 W/m² 20,4 °C 21,9 °C 12,9 km/h (3 Bft)
20.08.2023 09:31 24,3 °C 22,7 °C 72 % 86 % 1022,5 hPa 0,0 l/m² 6,8 km/h (2 Bft) NW 325 ° 2 min 193 W/m² 20,2 °C 22,6 °C 9,7 km/h (2 Bft)
20.08.2023 09:33 24,3 °C 22,7 °C 72 % 86 % 1022,1 hPa 0,0 l/m² 4,8 km/h (1 Bft) W-NW 302 ° 2 min 403 W/m² 20,2 °C 22,7 °C 12,9 km/h (3 Bft)
20.08.2023 09:34 24,3 °C 22,8 °C 72 % 87 % 1022,2 hPa 0,0 l/m² 7,2 km/h (2 Bft) N-NW 348 ° 1 min 403 W/m² 20,5 °C 22,5 °C 11,3 km/h (2 Bft)
20.08.2023 09:35 24,3 °C 22,8 °C 72 % 87 % 1022,1 hPa 0,0 l/m² 4,5 km/h (1 Bft) N-NW 330 ° 1 min 290 W/m² 20,5 °C 22,8 °C 8,0 km/h (2 Bft)
20.08.2023 09:36 24,3 °C 22,8 °C 72 % 86 % 1022,2 hPa 0,0 l/m² 2,3 km/h (1 Bft) W 268 ° 1 min 281 W/m² 20,3 °C 22,8 °C 4,8 km/h (1 Bft)
20.08.2023 09:37 24,3 °C 22,9 °C 72 % 87 % 1022,1 hPa 0,0 l/m² 5,2 km/h (1 Bft) NW 319 ° 1 min 265 W/m² 20,6 °C 22,9 °C 9,7 km/h (2 Bft)
20.08.2023 09:38 24,3 °C 22,9 °C 72 % 87 % 1022,1 hPa 0,0 l/m² 7,1 km/h (2 Bft) NW 321 ° 1 min 239 W/m² 20,6 °C 22,7 °C 12,9 km/h (3 Bft)
20.08.2023 09:39 24,3 °C 23,0 °C 72 % 87 % 1022,1 hPa 0,0 l/m² 8,4 km/h (2 Bft) W-NW 289 ° 1 min 207 W/m² 20,7 °C 22,4 °C 14,5 km/h (3 Bft)
20.08.2023 09:41 24,3 °C 23,1 °C 72 % 87 % 1022,0 hPa 0,0 l/m² 7,5 km/h (2 Bft) NW 307 ° 2 min 200 W/m² 20,8 °C 22,8 °C 14,5 km/h (3 Bft)
20.08.2023 09:43 24,3 °C 23,2 °C 72 % 86 % 1021,9 hPa 0,0 l/m² 5,9 km/h (2 Bft) N-NW 340 ° 2 min 186 W/m² 20,7 °C 23,2 °C 11,3 km/h (2 Bft)
20.08.2023 09:44 24,3 °C 23,2 °C 72 % 86 % 1022,0 hPa 0,0 l/m² 3,2 km/h (1 Bft) W-NW 290 ° 1 min 139 W/m² 20,7 °C 23,2 °C 9,7 km/h (2 Bft)
20.08.2023 09:45 24,3 °C 23,2 °C 72 % 86 % 1022,0 hPa 0,0 l/m² 4,9 km/h (1 Bft) NW 304 ° 1 min 137 W/m² 20,7 °C 23,2 °C 9,7 km/h (2 Bft)
20.08.2023 09:46 24,3 °C 23,2 °C 72 % 86 % 1022,1 hPa 0,0 l/m² 2,9 km/h (1 Bft) W-NW 300 ° 1 min 144 W/m² 20,7 °C 23,2 °C 4,8 km/h (1 Bft)
20.08.2023 09:47 24,3 °C 23,2 °C 72 % 86 % 1022,1 hPa 0,0 l/m² 1,9 km/h (1 Bft) NW 304 ° 1 min 148 W/m² 20,7 °C 23,2 °C 4,8 km/h (1 Bft)
20.08.2023 09:48 24,3 °C 23,3 °C 72 % 86 % 1022,1 hPa 0,0 l/m² 5,1 km/h (1 Bft) N 360 ° 1 min 155 W/m² 20,8 °C 23,3 °C 9,7 km/h (2 Bft)
20.08.2023 09:49 24,4 °C 23,3 °C 72 % 86 % 1022,2 hPa 0,0 l/m² 9,2 km/h (2 Bft) NW 324 ° 1 min 156 W/m² 20,8 °C 22,5 °C 14,5 km/h (3 Bft)
20.08.2023 09:51 24,4 °C 23,4 °C 72 % 86 % 1022,2 hPa 0,0 l/m² 7,8 km/h (2 Bft) W-NW 302 ° 2 min 229 W/m² 20,9 °C 23,0 °C 16,1 km/h (3 Bft)
20.08.2023 09:53 24,4 °C 23,4 °C 72 % 85 % 1022,2 hPa 0,0 l/m² 6,5 km/h (2 Bft) W-NW 289 ° 2 min 515 W/m² 20,7 °C 23,4 °C 12,9 km/h (3 Bft)
20.08.2023 09:54 24,4 °C 23,5 °C 72 % 85 % 1022,2 hPa 0,0 l/m² 3,2 km/h (1 Bft) NW 315 ° 1 min 515 W/m² 20,8 °C 23,5 °C 6,4 km/h (2 Bft)
20.08.2023 09:55 24,4 °C 23,6 °C 72 % 85 % 1022,3 hPa 0,0 l/m² 4,8 km/h (1 Bft) W-NW 292 ° 1 min 360 W/m² 20,9 °C 23,6 °C 11,3 km/h (2 Bft)
20.08.2023 10:01 24,4 °C 23,8 °C 72 % 84 % 1022,2 hPa 0,0 l/m² 8,1 km/h (2 Bft) NW 315 ° 6 min 121 W/m² 20,9 °C 23,3 °C 12,9 km/h (3 Bft)
20.08.2023 10:03 24,4 °C 23,8 °C 72 % 84 % 1022,1 hPa 0,0 l/m² 7,3 km/h (2 Bft) NW 321 ° 2 min 120 W/m² 20,9 °C 23,5 °C 12,9 km/h (3 Bft)
20.08.2023 10:05 24,4 °C 23,9 °C 72 % 83 % 1022,1 hPa 0,0 l/m² 9,6 km/h (2 Bft) N-NW 334 ° 2 min 130 W/m² 20,8 °C 23,0 °C 16,1 km/h (3 Bft)
20.08.2023 10:07 24,4 °C 23,9 °C 72 % 83 % 1022,1 hPa 0,0 l/m² 8,2 km/h (2 Bft) NW 325 ° 2 min 155 W/m² 20,8 °C 23,4 °C 14,5 km/h (3 Bft)
20.08.2023 10:09 24,4 °C 23,9 °C 71 % 82 % 1022,1 hPa 0,0 l/m² 5,2 km/h (1 Bft) N-NW 327 ° 2 min 171 W/m² 20,6 °C 23,9 °C 12,9 km/h (3 Bft)
20.08.2023 10:10 24,4 °C 23,9 °C 71 % 82 % 1022,1 hPa 0,0 l/m² 7,0 km/h (2 Bft) N-NW 344 ° 1 min 181 W/m² 20,6 °C 23,7 °C 14,5 km/h (3 Bft)
20.08.2023 10:12 24,4 °C 24,0 °C 71 % 82 % 1022,2 hPa 0,0 l/m² 6,4 km/h (2 Bft) W-NW 300 ° 2 min 239 W/m² 20,7 °C 24,0 °C 11,3 km/h (2 Bft)
20.08.2023 10:14 24,5 °C 24,0 °C 71 % 82 % 1022,2 hPa 0,0 l/m² 8,2 km/h (2 Bft) W-NW 300 ° 2 min 206 W/m² 20,7 °C 23,5 °C 12,9 km/h (3 Bft)
20.08.2023 10:16 24,4 °C 24,1 °C 71 % 81 % 1022,1 hPa 0,0 l/m² 3,8 km/h (1 Bft) NW 316 ° 2 min 197 W/m² 20,6 °C 24,1 °C 8,0 km/h (2 Bft)
20.08.2023 10:18 24,4 °C 24,0 °C 71 % 81 % 1022,1 hPa 0,0 l/m² 6,4 km/h (2 Bft) N-NW 333 ° 2 min 200 W/m² 20,5 °C 24,0 °C 12,9 km/h (3 Bft)
20.08.2023 10:20 24,4 °C 24,0 °C 71 % 81 % 1022,1 hPa 0,0 l/m² 9,8 km/h (2 Bft) NW 321 ° 2 min 211 W/m² 20,5 °C 23,1 °C 12,9 km/h (3 Bft)
20.08.2023 10:21 24,4 °C 24,0 °C 71 % 81 % 1022,2 hPa 0,0 l/m² 7,5 km/h (2 Bft) N-NW 347 ° 1 min 213 W/m² 20,5 °C 23,7 °C 12,9 km/h (3 Bft)
20.08.2023 10:23 24,4 °C 24,1 °C 71 % 81 % 1022,1 hPa 0,0 l/m² 6,3 km/h (2 Bft) N 350 ° 2 min 209 W/m² 20,6 °C 24,1 °C 8,0 km/h (2 Bft)
20.08.2023 10:25 24,4 °C 24,0 °C 71 % 81 % 1022,1 hPa 0,0 l/m² 6,3 km/h (2 Bft) N-NW 338 ° 2 min 211 W/m² 20,5 °C 24,0 °C 9,7 km/h (2 Bft)
20.08.2023 10:27 24,4 °C 24,0 °C 71 % 81 % 1022,1 hPa 0,0 l/m² 3,8 km/h (1 Bft) N 5 ° 2 min 236 W/m² 20,5 °C 24,0 °C 6,4 km/h (2 Bft)
20.08.2023 10:29 24,4 °C 24,1 °C 71 % 81 % 1022,1 hPa 0,0 l/m² 5,4 km/h (2 Bft) N 355 ° 2 min 246 W/m² 20,6 °C 24,1 °C 8,0 km/h (2 Bft)
20.08.2023 10:30 24,4 °C 24,1 °C 71 % 81 % 1022,1 hPa 0,0 l/m² 3,8 km/h (1 Bft) N-NO 26 ° 1 min 262 W/m² 20,6 °C 24,1 °C 6,4 km/h (2 Bft)
20.08.2023 10:32 24,4 °C 24,1 °C 71 % 81 % 1022,1 hPa 0,0 l/m² 2,9 km/h (1 Bft) N-NO 22 ° 2 min 311 W/m² 20,6 °C 24,1 °C 6,4 km/h (2 Bft)
20.08.2023 10:34 24,4 °C 24,1 °C 71 % 81 % 1022,1 hPa 0,0 l/m² 1,3 km/h (1 Bft) NO 54 ° 2 min 533 W/m² 20,6 °C 24,1 °C 3,2 km/h (1 Bft)
20.08.2023 10:36 24,5 °C 24,1 °C 71 % 81 % 1022,1 hPa 0,0 l/m² 3,9 km/h (1 Bft) NO 46 ° 2 min 714 W/m² 20,6 °C 24,1 °C 8,0 km/h (2 Bft)
20.08.2023 10:38 24,5 °C 24,3 °C 71 % 81 % 1022,1 hPa 0,0 l/m² 4,3 km/h (1 Bft) NO 36 ° 2 min 733 W/m² 20,8 °C 24,3 °C 8,0 km/h (2 Bft)
20.08.2023 10:40 24,6 °C 24,5 °C 71 % 80 % 1022,1 hPa 0,0 l/m² 9,8 km/h (2 Bft) O-NO 57 ° 2 min 779 W/m² 20,8 °C 23,7 °C 17,7 km/h (3 Bft)
20.08.2023 10:41 24,6 °C 24,6 °C 71 % 79 % 1022,1 hPa 0,0 l/m² 10,2 km/h (2 Bft) N-NO 30 ° 1 min 784 W/m² 20,7 °C 23,7 °C 14,5 km/h (3 Bft)
20.08.2023 10:42 24,6 °C 24,7 °C 71 % 78 % 1022,0 hPa 0,0 l/m² 8,7 km/h (2 Bft) N-NO 19 ° 1 min 788 W/m² 20,6 °C 24,1 °C 14,5 km/h (3 Bft)
20.08.2023 10:43 24,6 °C 24,8 °C 71 % 78 % 1022,0 hPa 0,0 l/m² 5,4 km/h (2 Bft) N-NW 340 ° 1 min 724 W/m² 20,7 °C 24,8 °C 8,0 km/h (2 Bft)
20.08.2023 10:45 24,6 °C 25,0 °C 71 % 77 % 1022,1 hPa 0,0 l/m² 6,7 km/h (2 Bft) NW 324 ° 2 min 330 W/m² 20,7 °C 24,9 °C 12,9 km/h (3 Bft)
20.08.2023 10:47 24,6 °C 25,1 °C 71 % 75 % 1022,0 hPa 0,0 l/m² 5,9 km/h (2 Bft) NO 36 ° 2 min 341 W/m² 20,3 °C 25,1 °C 12,9 km/h (3 Bft)
20.08.2023 10:49 24,6 °C 25,2 °C 71 % 75 % 1022,0 hPa 0,0 l/m² 4,8 km/h (1 Bft) N-NW 342 ° 2 min 654 W/m² 20,4 °C 25,2 °C 9,7 km/h (2 Bft)
20.08.2023 10:50 24,6 °C 25,3 °C 70 % 75 % 1022,1 hPa 0,0 l/m² 4,0 km/h (1 Bft) N-NW 346 ° 1 min 759 W/m² 20,5 °C 25,3 °C 9,7 km/h (2 Bft)
20.08.2023 10:52 24,7 °C 25,4 °C 70 % 76 % 1022,1 hPa 0,0 l/m² 5,0 km/h (1 Bft) N-NW 340 ° 2 min 726 W/m² 20,9 °C 25,4 °C 8,0 km/h (2 Bft)
20.08.2023 10:54 24,7 °C 25,6 °C 70 % 74 % 1022,1 hPa 0,0 l/m² 6,8 km/h (2 Bft) N-NO 28 ° 2 min 596 W/m² 20,6 °C 25,5 °C 14,5 km/h (3 Bft)
20.08.2023 10:56 24,7 °C 25,8 °C 70 % 73 % 1022,1 hPa 0,0 l/m² 7,0 km/h (2 Bft) N 5 ° 2 min 712 W/m² 20,6 °C 25,7 °C 12,9 km/h (3 Bft)
20.08.2023 10:58 24,7 °C 25,9 °C 70 % 73 % 1022,0 hPa 0,0 l/m² 4,5 km/h (1 Bft) NW 315 ° 2 min 710 W/m² 20,7 °C 25,9 °C 8,0 km/h (2 Bft)
20.08.2023 11:00 24,7 °C 26,1 °C 70 % 72 % 1022,2 hPa 0,0 l/m² 3,3 km/h (1 Bft) NW 319 ° 2 min 703 W/m² 20,6 °C 26,1 °C 9,7 km/h (2 Bft)
20.08.2023 11:01 24,7 °C 26,2 °C 70 % 72 % 1022,2 hPa 0,0 l/m² 7,3 km/h (2 Bft) N-NW 327 ° 1 min 707 W/m² 20,7 °C 26,0 °C 12,9 km/h (3 Bft)
20.08.2023 11:02 24,8 °C 26,2 °C 70 % 71 % 1022,2 hPa 0,0 l/m² 7,2 km/h (2 Bft) NW 324 ° 1 min 707 W/m² 20,5 °C 26,0 °C 9,7 km/h (2 Bft)
20.08.2023 11:03 24,8 °C 26,2 °C 70 % 71 % 1022,1 hPa 0,0 l/m² 4,7 km/h (1 Bft) W-NW 300 ° 1 min 376 W/m² 20,5 °C 26,2 °C 6,4 km/h (2 Bft)
20.08.2023 11:05 24,8 °C 26,3 °C 70 % 70 % 1022,2 hPa 0,0 l/m² 4,0 km/h (1 Bft) NW 323 ° 2 min 332 W/m² 20,4 °C 26,3 °C 8,0 km/h (2 Bft)
20.08.2023 11:07 24,8 °C 26,5 °C 70 % 70 % 1022,1 hPa 0,0 l/m² 3,6 km/h (1 Bft) N-NW 346 ° 2 min 712 W/m² 20,6 °C 26,5 °C 6,4 km/h (2 Bft)
20.08.2023 11:09 24,8 °C 26,6 °C 70 % 70 % 1022,1 hPa 0,0 l/m² 4,2 km/h (1 Bft) NO 42 ° 2 min 693 W/m² 20,7 °C 26,6 °C 9,7 km/h (2 Bft)
20.08.2023 11:10 24,8 °C 26,6 °C 70 % 69 % 1022,1 hPa 0,0 l/m² 5,6 km/h (2 Bft) N-NO 15 ° 1 min 696 W/m² 20,4 °C 26,6 °C 8,0 km/h (2 Bft)
20.08.2023 11:11 24,8 °C 26,7 °C 70 % 69 % 1022,0 hPa 0,0 l/m² 6,2 km/h (2 Bft) N 350 ° 1 min 703 W/m² 20,5 °C 26,7 °C 8,0 km/h (2 Bft)
20.08.2023 11:12 24,8 °C 26,8 °C 70 % 68 % 1022,1 hPa 0,0 l/m² 5,7 km/h (2 Bft) N-NW 346 ° 1 min 710 W/m² 20,4 °C 26,8 °C 8,0 km/h (2 Bft)
20.08.2023 11:14 24,8 °C 26,8 °C 70 % 68 % 1022,1 hPa 0,0 l/m² 3,7 km/h (1 Bft) N 5 ° 2 min 715 W/m² 20,4 °C 26,8 °C 6,4 km/h (2 Bft)
20.08.2023 11:16 24,8 °C 26,9 °C 70 % 68 % 1022,1 hPa 0,0 l/m² 3,7 km/h (1 Bft) N-NW 340 ° 2 min 715 W/m² 20,5 °C 26,9 °C 8,0 km/h (2 Bft)
20.08.2023 11:18 24,9 °C 26,9 °C 70 % 67 % 1022,0 hPa 0,0 l/m² 1,7 km/h (1 Bft) N 360 ° 2 min 744 W/m² 20,2 °C 26,9 °C 4,8 km/h (1 Bft)
20.08.2023 11:20 24,9 °C 27,1 °C 70 % 70 % 1022,1 hPa 0,0 l/m² 2,2 km/h (1 Bft) O-NO 61 ° 2 min 740 W/m² 21,1 °C 27,1 °C 6,4 km/h (2 Bft)
20.08.2023 11:21 24,9 °C 27,1 °C 70 % 68 % 1022,1 hPa 0,0 l/m² 1,5 km/h (1 Bft) N-NO 23 ° 1 min 747 W/m² 20,7 °C 27,1 °C 4,8 km/h (1 Bft)
20.08.2023 11:22 24,9 °C 27,1 °C 70 % 68 % 1022,1 hPa 0,0 l/m² 5,0 km/h (1 Bft) N-NO 16 ° 1 min 745 W/m² 20,7 °C 27,1 °C 6,4 km/h (2 Bft)
20.08.2023 11:23 24,9 °C 27,2 °C 70 % 69 % 1022,0 hPa 0,0 l/m² 1,1 km/h (1 Bft) N-NO 12 ° 1 min 728 W/m² 21,0 °C 27,2 °C 3,2 km/h (1 Bft)
20.08.2023 11:25 24,9 °C 27,3 °C 70 % 68 % 1022,1 hPa 0,0 l/m² 1,3 km/h (1 Bft) N 11 ° 2 min 719 W/m² 20,9 °C 27,3 °C 3,2 km/h (1 Bft)
20.08.2023 11:27 24,9 °C 27,4 °C 70 % 68 % 1022,0 hPa 0,0 l/m² 1,0 km/h (0 Bft) N 349 ° 2 min 729 W/m² 21,0 °C 27,4 °C 4,8 km/h (1 Bft)
20.08.2023 11:29 25,0 °C 27,6 °C 70 % 69 % 1022,0 hPa 0,0 l/m² 2,4 km/h (1 Bft) N-NO 29 ° 2 min 728 W/m² 21,4 °C 27,6 °C 6,4 km/h (2 Bft)
20.08.2023 11:30 25,0 °C 27,6 °C 70 % 67 % 1022,0 hPa 0,0 l/m² 4,1 km/h (1 Bft) N 355 ° 1 min 728 W/m² 20,9 °C 27,6 °C 6,4 km/h (2 Bft)
20.08.2023 11:32 25,0 °C 27,7 °C 70 % 68 % 1022,1 hPa 0,0 l/m² 1,1 km/h (1 Bft) N-NW 346 ° 2 min 728 W/m² 21,2 °C 27,7 °C 4,8 km/h (1 Bft)
20.08.2023 11:34 24,9 °C 27,8 °C 70 % 67 % 1022,1 hPa 0,0 l/m² 2,7 km/h (1 Bft) O 81 ° 2 min 728 W/m² 21,1 °C 27,8 °C 6,4 km/h (2 Bft)
20.08.2023 11:36 24,9 °C 27,9 °C 70 % 67 % 1022,1 hPa 0,0 l/m² 3,5 km/h (1 Bft) O 80 ° 2 min 728 W/m² 21,2 °C 27,9 °C 6,4 km/h (2 Bft)
20.08.2023 11:38 24,9 °C 28,0 °C 70 % 66 % 1022,1 hPa 0,0 l/m² 3,2 km/h (1 Bft) N-NW 338 ° 2 min 817 W/m² 21,0 °C 28,0 °C 6,4 km/h (2 Bft)
20.08.2023 11:40 24,9 °C 28,1 °C 70 % 67 % 1021,9 hPa 0,0 l/m² 3,2 km/h (1 Bft) O 86 ° 2 min 810 W/m² 21,4 °C 28,1 °C 11,3 km/h (2 Bft)
20.08.2023 11:41 24,9 °C 28,2 °C 70 % 66 % 1022,0 hPa 0,0 l/m² 6,2 km/h (2 Bft) O 81 ° 1 min 819 W/m² 21,2 °C 28,2 °C 11,3 km/h (2 Bft)
20.08.2023 11:43 24,9 °C 28,2 °C 70 % 66 % 1022,0 hPa 0,0 l/m² 6,1 km/h (2 Bft) O 86 ° 2 min 844 W/m² 21,2 °C 28,2 °C 11,3 km/h (2 Bft)
20.08.2023 11:45 24,9 °C 28,2 °C 70 % 68 % 1021,9 hPa 0,0 l/m² 8,8 km/h (2 Bft) O 101 ° 2 min 548 W/m² 21,7 °C 27,9 °C 12,9 km/h (3 Bft)
20.08.2023 11:47 24,8 °C 28,2 °C 70 % 66 % 1021,9 hPa 0,0 l/m² 5,7 km/h (2 Bft) O-SO 105 ° 2 min 585 W/m² 21,2 °C 28,2 °C 9,7 km/h (2 Bft)
20.08.2023 11:49 24,8 °C 28,2 °C 70 % 65 % 1022,0 hPa 0,0 l/m² 3,7 km/h (1 Bft) SO 140 ° 2 min 867 W/m² 21,0 °C 28,2 °C 6,4 km/h (2 Bft)
20.08.2023 11:50 24,8 °C 28,2 °C 70 % 65 % 1021,9 hPa 0,0 l/m² 5,2 km/h (1 Bft) SO 128 ° 1 min 877 W/m² 21,0 °C 28,2 °C 6,4 km/h (2 Bft)
20.08.2023 11:52 24,8 °C 28,2 °C 70 % 67 % 1022,0 hPa 0,0 l/m² 4,3 km/h (1 Bft) O 92 ° 2 min 884 W/m² 21,5 °C 28,2 °C 6,4 km/h (2 Bft)
20.08.2023 11:54 24,8 °C 28,2 °C 70 % 67 % 1021,9 hPa 0,0 l/m² 6,8 km/h (2 Bft) O-NO 67 ° 2 min 791 W/m² 21,5 °C 28,1 °C 11,3 km/h (2 Bft)
20.08.2023 11:56 24,8 °C 28,2 °C 70 % 67 % 1021,9 hPa 0,0 l/m² 3,9 km/h (1 Bft) O-NO 72 ° 2 min 791 W/m² 21,5 °C 28,2 °C 6,4 km/h (2 Bft)
20.08.2023 11:58 24,8 °C 28,1 °C 70 % 66 % 1021,9 hPa 0,0 l/m² 6,0 km/h (2 Bft) O 79 ° 2 min 765 W/m² 21,1 °C 28,1 °C 11,3 km/h (2 Bft)
20.08.2023 12:00 24,8 °C 28,1 °C 70 % 66 % 1022,0 hPa 0,0 l/m² 5,0 km/h (1 Bft) O 89 ° 2 min 937 W/m² 21,1 °C 28,1 °C 8,0 km/h (2 Bft)
20.08.2023 12:01 24,8 °C 28,1 °C 70 % 65 % 1022,0 hPa 0,0 l/m² 2,5 km/h (1 Bft) O 89 ° 1 min 925 W/m² 20,9 °C 28,1 °C 4,8 km/h (1 Bft)
20.08.2023 12:03 24,8 °C 28,1 °C 70 % 66 % 1022,0 hPa 0,0 l/m² 0,0 km/h (0 Bft) O 89 ° 2 min 916 W/m² 21,1 °C 28,1 °C 0,0 km/h (0 Bft)
20.08.2023 12:05 24,8 °C 28,2 °C 70 % 66 % 1022,0 hPa 0,0 l/m² 2,5 km/h (1 Bft) S 178 ° 2 min 916 W/m² 21,2 °C 28,2 °C 9,7 km/h (2 Bft)
20.08.2023 12:07 24,8 °C 28,3 °C 70 % 65 % 1022,0 hPa 0,0 l/m² 6,8 km/h (2 Bft) SO 130 ° 2 min 963 W/m² 21,1 °C 28,2 °C 11,3 km/h (2 Bft)
20.08.2023 12:09 24,8 °C 28,3 °C 70 % 65 % 1021,9 hPa 0,0 l/m² 4,2 km/h (1 Bft) S-SO 161 ° 2 min 963 W/m² 21,1 °C 28,3 °C 9,7 km/h (2 Bft)
20.08.2023 12:11 24,7 °C 28,3 °C 70 % 65 % 1021,9 hPa 0,0 l/m² 3,7 km/h (1 Bft) SO 143 ° 2 min 415 W/m² 21,1 °C 28,3 °C 6,4 km/h (2 Bft)
20.08.2023 12:12 24,7 °C 28,2 °C 70 % 64 % 1021,9 hPa 0,0 l/m² 0,7 km/h (0 Bft) SO 144 ° 1 min 431 W/m² 20,7 °C 28,2 °C 3,2 km/h (1 Bft)
20.08.2023 12:13 24,8 °C 28,2 °C 70 % 65 % 1021,9 hPa 0,0 l/m² 1,6 km/h (1 Bft) SO 144 ° 1 min 381 W/m² 21,0 °C 28,2 °C 3,2 km/h (1 Bft)
20.08.2023 12:14 24,8 °C 28,2 °C 70 % 65 % 1021,9 hPa 0,0 l/m² 2,1 km/h (1 Bft) SO 144 ° 1 min 334 W/m² 21,0 °C 28,2 °C 4,8 km/h (1 Bft)
20.08.2023 12:16 24,8 °C 28,2 °C 70 % 65 % 1021,9 hPa 0,0 l/m² 2,1 km/h (1 Bft) SO 145 ° 2 min 316 W/m² 21,0 °C 28,2 °C 3,2 km/h (1 Bft)
20.08.2023 12:18 24,7 °C 28,1 °C 70 % 66 % 1021,9 hPa 0,0 l/m² 2,8 km/h (1 Bft) SO 146 ° 2 min 332 W/m² 21,1 °C 28,1 °C 4,8 km/h (1 Bft)
20.08.2023 12:20 24,7 °C 28,0 °C 70 % 66 % 1021,9 hPa 0,0 l/m² 0,3 km/h (0 Bft) SO 146 ° 2 min 399 W/m² 21,0 °C 28,0 °C 1,6 km/h (1 Bft)
20.08.2023 12:22 24,8 °C 28,0 °C 70 % 66 % 1021,9 hPa 0,0 l/m² 1,3 km/h (1 Bft) SO 130 ° 2 min 436 W/m² 21,0 °C 28,0 °C 6,4 km/h (2 Bft)
20.08.2023 12:23 24,7 °C 28,0 °C 70 % 66 % 1021,9 hPa 0,0 l/m² 4,0 km/h (1 Bft) SO 130 ° 1 min 482 W/m² 21,0 °C 28,0 °C 4,8 km/h (1 Bft)
20.08.2023 12:24 24,7 °C 27,9 °C 70 % 66 % 1021,9 hPa 0,0 l/m² 2,0 km/h (1 Bft) SO 130 ° 1 min 503 W/m² 20,9 °C 27,9 °C 4,8 km/h (1 Bft)
20.08.2023 12:26 24,7 °C 28,0 °C 70 % 68 % 1021,9 hPa 0,0 l/m² 1,8 km/h (1 Bft) SO 130 ° 2 min 436 W/m² 21,5 °C 28,0 °C 4,8 km/h (1 Bft)
20.08.2023 12:28 24,7 °C 27,9 °C 70 % 67 % 1021,9 hPa 0,0 l/m² 4,0 km/h (1 Bft) SO 128 ° 2 min 373 W/m² 21,2 °C 27,9 °C 6,4 km/h (2 Bft)
20.08.2023 12:30 24,8 °C 27,9 °C 70 % 67 % 1021,8 hPa 0,0 l/m² 3,1 km/h (1 Bft) SO 128 ° 2 min 376 W/m² 21,2 °C 27,9 °C 4,8 km/h (1 Bft)
20.08.2023 12:32 24,7 °C 27,9 °C 70 % 67 % 1021,8 hPa 0,0 l/m² 3,5 km/h (1 Bft) SO 132 ° 2 min 840 W/m² 21,2 °C 27,9 °C 6,4 km/h (2 Bft)
20.08.2023 12:33 24,7 °C 27,9 °C 70 % 68 % 1021,8 hPa 0,0 l/m² 2,8 km/h (1 Bft) SO 132 ° 1 min 847 W/m² 21,4 °C 27,9 °C 4,8 km/h (1 Bft)
20.08.2023 12:34 24,8 °C 27,9 °C 70 % 67 % 1021,9 hPa 0,0 l/m² 3,8 km/h (1 Bft) SO 132 ° 1 min 847 W/m² 21,2 °C 27,9 °C 4,8 km/h (1 Bft)
20.08.2023 12:36 24,7 °C 28,0 °C 70 % 67 % 1021,8 hPa 0,0 l/m² 3,7 km/h (1 Bft) S 170 ° 2 min 933 W/m² 21,3 °C 28,0 °C 6,4 km/h (2 Bft)
20.08.2023 12:38 24,7 °C 28,0 °C 71 % 67 % 1021,8 hPa 0,0 l/m² 4,2 km/h (1 Bft) S-SW 192 ° 2 min 441 W/m² 21,3 °C 28,0 °C 6,4 km/h (2 Bft)
20.08.2023 12:40 24,7 °C 28,1 °C 71 % 67 % 1021,8 hPa 0,0 l/m² 2,4 km/h (1 Bft) S-SW 192 ° 2 min 441 W/m² 21,4 °C 28,1 °C 4,8 km/h (1 Bft)
20.08.2023 12:42 24,7 °C 28,1 °C 71 % 67 % 1021,9 hPa 0,0 l/m² 2,7 km/h (1 Bft) S-SW 192 ° 2 min 352 W/m² 21,4 °C 28,1 °C 4,8 km/h (1 Bft)
20.08.2023 12:44 24,7 °C 28,1 °C 71 % 67 % 1021,8 hPa 0,0 l/m² 3,1 km/h (1 Bft) SO 141 ° 2 min 352 W/m² 21,4 °C 28,1 °C 8,0 km/h (2 Bft)
20.08.2023 12:46 24,7 °C 28,1 °C 71 % 67 % 1021,8 hPa 0,0 l/m² 3,5 km/h (1 Bft) SO 142 ° 2 min 422 W/m² 21,4 °C 28,1 °C 4,8 km/h (1 Bft)
20.08.2023 12:48 24,8 °C 28,1 °C 71 % 66 % 1021,7 hPa 0,0 l/m² 2,5 km/h (1 Bft) SO 142 ° 2 min 501 W/m² 21,1 °C 28,1 °C 4,8 km/h (1 Bft)
20.08.2023 12:50 24,8 °C 28,1 °C 71 % 65 % 1021,7 hPa 0,0 l/m² 2,7 km/h (1 Bft) SO 142 ° 2 min 545 W/m² 20,9 °C 28,1 °C 4,8 km/h (1 Bft)
20.08.2023 12:52 24,7 °C 28,1 °C 71 % 66 % 1021,8 hPa 0,0 l/m² 3,0 km/h (1 Bft) SO 142 ° 2 min 436 W/m² 21,1 °C 28,1 °C 4,8 km/h (1 Bft)
20.08.2023 12:53 24,8 °C 28,1 °C 71 % 66 % 1021,9 hPa 0,0 l/m² 2,1 km/h (1 Bft) SO 142 ° 1 min 359 W/m² 21,1 °C 28,1 °C 3,2 km/h (1 Bft)
20.08.2023 12:54 24,7 °C 28,1 °C 71 % 65 % 1021,8 hPa 0,0 l/m² 1,3 km/h (1 Bft) SO 142 ° 1 min 376 W/m² 20,9 °C 28,1 °C 3,2 km/h (1 Bft)
20.08.2023 12:56 24,8 °C 28,1 °C 71 % 66 % 1021,8 hPa 0,0 l/m² 0,4 km/h (0 Bft) SO 142 ° 2 min 510 W/m² 21,1 °C 28,1 °C 1,6 km/h (1 Bft)
20.08.2023 12:57 24,8 °C 28,1 °C 72 % 66 % 1021,8 hPa 0,0 l/m² 2,5 km/h (1 Bft) SO 142 ° 1 min 510 W/m² 21,1 °C 28,1 °C 4,8 km/h (1 Bft)
20.08.2023 12:58 24,8 °C 28,1 °C 72 % 66 % 1021,9 hPa 0,0 l/m² 2,4 km/h (1 Bft) SO 138 ° 1 min 510 W/m² 21,1 °C 28,1 °C 4,8 km/h (1 Bft)
20.08.2023 12:59 24,8 °C 28,2 °C 72 % 68 % 1021,8 hPa 0,0 l/m² 3,1 km/h (1 Bft) SO 134 ° 1 min 510 W/m² 21,7 °C 28,2 °C 4,8 km/h (1 Bft)
20.08.2023 13:01 24,8 °C 28,2 °C 73 % 68 % 1021,8 hPa 0,0 l/m² 1,2 km/h (1 Bft) SO 136 ° 2 min 944 W/m² 21,7 °C 28,2 °C 3,2 km/h (1 Bft)
20.08.2023 13:02 24,8 °C 28,3 °C 73 % 69 % 1021,9 hPa 0,0 l/m² 3,8 km/h (1 Bft) SW 219 ° 1 min 898 W/m² 22,1 °C 28,3 °C 11,3 km/h (2 Bft)
20.08.2023 13:03 24,8 °C 28,3 °C 73 % 67 % 1021,8 hPa 0,0 l/m² 8,1 km/h (2 Bft) SW 225 ° 1 min 812 W/m² 21,6 °C 28,1 °C 9,7 km/h (2 Bft)
20.08.2023 13:05 24,8 °C 28,4 °C 74 % 65 % 1021,9 hPa 0,0 l/m² 7,7 km/h (2 Bft) W-SW 240 ° 2 min 768 W/m² 21,2 °C 28,2 °C 11,3 km/h (2 Bft)
20.08.2023 13:07 24,8 °C 28,5 °C 74 % 67 % 1021,9 hPa 0,0 l/m² 3,8 km/h (1 Bft) W 264 ° 2 min 476 W/m² 21,8 °C 28,5 °C 9,7 km/h (2 Bft)
20.08.2023 13:09 24,8 °C 28,6 °C 74 % 65 % 1021,9 hPa 0,0 l/m² 2,4 km/h (1 Bft) W 265 ° 2 min 606 W/m² 21,4 °C 28,6 °C 6,4 km/h (2 Bft)
20.08.2023 13:11 24,8 °C 28,6 °C 74 % 64 % 1021,8 hPa 0,0 l/m² 4,5 km/h (1 Bft) S-SW 198 ° 2 min 613 W/m² 21,1 °C 28,6 °C 8,0 km/h (2 Bft)
20.08.2023 13:12 24,8 °C 28,6 °C 74 % 65 % 1021,9 hPa 0,0 l/m² 8,1 km/h (2 Bft) SW 220 ° 1 min 860 W/m² 21,4 °C 28,4 °C 9,7 km/h (2 Bft)
20.08.2023 13:13 24,8 °C 28,6 °C 74 % 65 % 1021,8 hPa 0,0 l/m² 7,1 km/h (2 Bft) W-SW 244 ° 1 min 854 W/m² 21,4 °C 28,5 °C 11,3 km/h (2 Bft)
20.08.2023 13:15 24,9 °C 28,6 °C 74 % 65 % 1021,8 hPa 0,0 l/m² 8,3 km/h (2 Bft) S-SW 199 ° 2 min 759 W/m² 21,4 °C 28,3 °C 14,5 km/h (3 Bft)
20.08.2023 13:16 24,9 °C 28,7 °C 74 % 64 % 1021,8 hPa 0,0 l/m² 9,9 km/h (2 Bft) S-SW 194 ° 1 min 865 W/m² 21,2 °C 28,3 °C 11,3 km/h (2 Bft)
20.08.2023 13:17 24,9 °C 28,7 °C 74 % 64 % 1021,8 hPa 0,0 l/m² 10,2 km/h (2 Bft) S-SW 196 ° 1 min 858 W/m² 21,2 °C 28,2 °C 11,3 km/h (2 Bft)
20.08.2023 13:18 24,9 °C 28,7 °C 74 % 64 % 1021,8 hPa 0,0 l/m² 9,4 km/h (2 Bft) S-SW 195 ° 1 min 874 W/m² 21,2 °C 28,3 °C 11,3 km/h (2 Bft)
20.08.2023 13:20 24,9 °C 28,8 °C 74 % 64 % 1021,9 hPa 0,0 l/m² 7,4 km/h (2 Bft) S 174 ° 2 min 896 W/m² 21,3 °C 28,7 °C 9,7 km/h (2 Bft)
20.08.2023 13:22 24,9 °C 28,8 °C 74 % 64 % 1021,9 hPa 0,0 l/m² 7,2 km/h (2 Bft) S 178 ° 2 min 916 W/m² 21,3 °C 28,7 °C 11,3 km/h (2 Bft)
20.08.2023 13:23 24,9 °C 28,8 °C 74 % 64 % 1021,8 hPa 0,0 l/m² 7,0 km/h (2 Bft) SW 219 ° 1 min 916 W/m² 21,3 °C 28,7 °C 9,7 km/h (2 Bft)
20.08.2023 13:24 24,9 °C 28,8 °C 74 % 64 % 1021,9 hPa 0,0 l/m² 9,7 km/h (2 Bft) W 259 ° 1 min 643 W/m² 21,3 °C 28,4 °C 11,3 km/h (2 Bft)
20.08.2023 13:25 24,9 °C 28,9 °C 74 % 64 % 1021,9 hPa 0,0 l/m² 3,4 km/h (1 Bft) W-SW 257 ° 1 min 626 W/m² 21,4 °C 28,9 °C 9,7 km/h (2 Bft)
20.08.2023 13:27 24,9 °C 28,9 °C 74 % 66 % 1021,9 hPa 0,0 l/m² 6,7 km/h (2 Bft) W-SW 240 ° 2 min 838 W/m² 21,9 °C 28,9 °C 12,9 km/h (3 Bft)
20.08.2023 13:29 24,9 °C 28,9 °C 74 % 64 % 1021,9 hPa 0,0 l/m² 8,0 km/h (2 Bft) SW 232 ° 2 min 872 W/m² 21,4 °C 28,7 °C 11,3 km/h (2 Bft)
20.08.2023 13:31 24,9 °C 29,0 °C 74 % 63 % 1021,9 hPa 0,0 l/m² 6,4 km/h (2 Bft) SW 216 ° 2 min 872 W/m² 21,2 °C 29,0 °C 9,7 km/h (2 Bft)
20.08.2023 13:32 24,9 °C 28,9 °C 74 % 63 % 1021,8 hPa 0,0 l/m² 4,0 km/h (1 Bft) SW 215 ° 1 min 872 W/m² 21,1 °C 28,9 °C 6,4 km/h (2 Bft)
20.08.2023 13:33 24,9 °C 28,9 °C 74 % 63 % 1021,8 hPa 0,0 l/m² 3,3 km/h (1 Bft) SW 215 ° 1 min 802 W/m² 21,1 °C 28,9 °C 4,8 km/h (1 Bft)
20.08.2023 13:35 24,9 °C 29,1 °C 74 % 63 % 1021,8 hPa 0,0 l/m² 5,8 km/h (2 Bft) S-SW 210 ° 2 min 823 W/m² 21,3 °C 29,1 °C 9,7 km/h (2 Bft)
20.08.2023 13:37 24,9 °C 29,1 °C 74 % 63 % 1021,7 hPa 0,0 l/m² 4,5 km/h (1 Bft) SW 223 ° 2 min 823 W/m² 21,3 °C 29,1 °C 8,0 km/h (2 Bft)
20.08.2023 13:39 24,9 °C 29,1 °C 74 % 62 % 1021,8 hPa 0,0 l/m² 5,0 km/h (1 Bft) S-SW 212 ° 2 min 823 W/m² 21,1 °C 29,1 °C 11,3 km/h (2 Bft)
20.08.2023 13:41 24,9 °C 29,1 °C 74 % 63 % 1021,8 hPa 0,0 l/m² 5,9 km/h (2 Bft) S-SW 211 ° 2 min 568 W/m² 21,3 °C 29,1 °C 9,7 km/h (2 Bft)
20.08.2023 13:42 24,9 °C 29,1 °C 74 % 62 % 1021,8 hPa 0,0 l/m² 5,3 km/h (1 Bft) S-SW 194 ° 1 min 893 W/m² 21,1 °C 29,1 °C 6,4 km/h (2 Bft)
20.08.2023 13:43 24,9 °C 29,1 °C 74 % 63 % 1021,7 hPa 0,0 l/m² 2,9 km/h (1 Bft) S 189 ° 1 min 893 W/m² 21,3 °C 29,1 °C 4,8 km/h (1 Bft)
20.08.2023 13:45 24,9 °C 29,1 °C 74 % 62 % 1021,7 hPa 0,0 l/m² 3,8 km/h (1 Bft) S 169 ° 2 min 821 W/m² 21,1 °C 29,1 °C 8,0 km/h (2 Bft)
20.08.2023 13:47 24,9 °C 29,1 °C 74 % 63 % 1021,7 hPa 0,0 l/m² 5,3 km/h (1 Bft) S 172 ° 2 min 471 W/m² 21,3 °C 29,1 °C 8,0 km/h (2 Bft)
20.08.2023 13:49 24,9 °C 29,2 °C 74 % 63 % 1021,7 hPa 0,0 l/m² 7,2 km/h (2 Bft) S 182 ° 2 min 882 W/m² 21,4 °C 29,1 °C 9,7 km/h (2 Bft)
20.08.2023 13:51 24,9 °C 29,2 °C 74 % 63 % 1021,7 hPa 0,0 l/m² 5,8 km/h (2 Bft) S 189 ° 2 min 872 W/m² 21,4 °C 29,2 °C 8,0 km/h (2 Bft)
20.08.2023 13:52 24,9 °C 29,2 °C 74 % 63 % 1021,7 hPa 0,0 l/m² 3,2 km/h (1 Bft) S 189 ° 1 min 889 W/m² 21,4 °C 29,2 °C 6,4 km/h (2 Bft)
20.08.2023 13:53 24,9 °C 29,3 °C 74 % 63 % 1021,7 hPa 0,0 l/m² 4,3 km/h (1 Bft) S 189 ° 1 min 907 W/m² 21,5 °C 29,3 °C 6,4 km/h (2 Bft)
20.08.2023 13:55 24,9 °C 29,3 °C 73 % 63 % 1021,7 hPa 0,0 l/m² 4,8 km/h (1 Bft) S-SW 196 ° 2 min 909 W/m² 21,5 °C 29,3 °C 8,0 km/h (2 Bft)
20.08.2023 13:57 24,9 °C 29,4 °C 73 % 62 % 1021,8 hPa 0,0 l/m² 5,1 km/h (1 Bft) S-SW 196 ° 2 min 462 W/m² 21,3 °C 29,4 °C 6,4 km/h (2 Bft)
20.08.2023 13:59 24,9 °C 29,4 °C 73 % 61 % 1021,7 hPa 0,0 l/m² 6,4 km/h (2 Bft) S 188 ° 2 min 617 W/m² 21,1 °C 29,4 °C 9,7 km/h (2 Bft)
20.08.2023 14:01 24,9 °C 29,3 °C 73 % 61 % 1021,8 hPa 0,0 l/m² 4,6 km/h (1 Bft) S-SW 197 ° 2 min 564 W/m² 21,0 °C 29,3 °C 8,0 km/h (2 Bft)
20.08.2023 14:02 24,9 °C 29,4 °C 73 % 62 % 1021,7 hPa 0,0 l/m² 1,6 km/h (1 Bft) S-SW 197 ° 1 min 564 W/m² 21,3 °C 29,4 °C 3,2 km/h (1 Bft)
20.08.2023 14:03 24,9 °C 29,4 °C 73 % 62 % 1021,7 hPa 0,0 l/m² 1,2 km/h (1 Bft) S-SW 197 ° 1 min 784 W/m² 21,3 °C 29,4 °C 3,2 km/h (1 Bft)
20.08.2023 14:05 24,9 °C 29,4 °C 73 % 62 % 1021,7 hPa 0,0 l/m² 4,2 km/h (1 Bft) S 186 ° 2 min 784 W/m² 21,3 °C 29,4 °C 6,4 km/h (2 Bft)
20.08.2023 14:07 24,9 °C 29,4 °C 73 % 61 % 1021,7 hPa 0,0 l/m² 2,5 km/h (1 Bft) S 186 ° 2 min 401 W/m² 21,1 °C 29,4 °C 4,8 km/h (1 Bft)
20.08.2023 14:09 24,9 °C 29,4 °C 73 % 61 % 1021,9 hPa 0,0 l/m² 1,0 km/h (0 Bft) S 186 ° 2 min 403 W/m² 21,1 °C 29,4 °C 3,2 km/h (1 Bft)
20.08.2023 14:11 24,9 °C 29,3 °C 73 % 62 % 1021,8 hPa 0,0 l/m² 4,4 km/h (1 Bft) S-SW 198 ° 2 min 432 W/m² 21,2 °C 29,3 °C 8,0 km/h (2 Bft)
20.08.2023 14:12 24,9 °C 29,3 °C 73 % 61 % 1021,7 hPa 0,0 l/m² 7,2 km/h (2 Bft) S-SW 205 ° 1 min 443 W/m² 21,0 °C 29,2 °C 8,0 km/h (2 Bft)
20.08.2023 14:13 24,9 °C 29,3 °C 73 % 61 % 1021,8 hPa 0,0 l/m² 6,2 km/h (2 Bft) S-SW 209 ° 1 min 450 W/m² 21,0 °C 29,3 °C 8,0 km/h (2 Bft)
20.08.2023 14:14 24,9 °C 29,2 °C 73 % 62 % 1021,7 hPa 0,0 l/m² 7,4 km/h (2 Bft) W-SW 237 ° 1 min 475 W/m² 21,1 °C 29,1 °C 9,7 km/h (2 Bft)
20.08.2023 14:15 24,9 °C 29,2 °C 73 % 63 % 1021,7 hPa 0,0 l/m² 6,8 km/h (2 Bft) SW 232 ° 1 min 494 W/m² 21,4 °C 29,2 °C 8,0 km/h (2 Bft)
20.08.2023 14:16 24,9 °C 29,2 °C 73 % 64 % 1021,7 hPa 0,0 l/m² 4,2 km/h (1 Bft) W-SW 237 ° 1 min 494 W/m² 21,7 °C 29,2 °C 6,4 km/h (2 Bft)
20.08.2023 14:17 24,9 °C 29,2 °C 73 % 64 % 1021,6 hPa 0,0 l/m² 2,8 km/h (1 Bft) W-SW 242 ° 1 min 494 W/m² 21,7 °C 29,2 °C 6,4 km/h (2 Bft)
20.08.2023 14:18 24,9 °C 29,2 °C 73 % 63 % 1021,6 hPa 0,0 l/m² 2,8 km/h (1 Bft) W-SW 241 ° 1 min 758 W/m² 21,4 °C 29,2 °C 6,4 km/h (2 Bft)
20.08.2023 14:19 24,9 °C 29,2 °C 73 % 63 % 1021,6 hPa 0,0 l/m² 3,1 km/h (1 Bft) W-SW 241 ° 1 min 758 W/m² 21,4 °C 29,2 °C 4,8 km/h (1 Bft)
20.08.2023 14:21 24,9 °C 29,2 °C 73 % 63 % 1021,6 hPa 0,0 l/m² 4,6 km/h (1 Bft) W 260 ° 2 min 531 W/m² 21,4 °C 29,2 °C 11,3 km/h (2 Bft)
20.08.2023 14:23 24,9 °C 29,2 °C 73 % 64 % 1021,6 hPa 0,0 l/m² 2,6 km/h (1 Bft) W 263 ° 2 min 448 W/m² 21,7 °C 29,2 °C 6,4 km/h (2 Bft)
20.08.2023 14:24 24,9 °C 29,2 °C 73 % 63 % 1021,5 hPa 0,0 l/m² 1,1 km/h (1 Bft) W 263 ° 1 min 548 W/m² 21,4 °C 29,2 °C 3,2 km/h (1 Bft)
20.08.2023 14:25 24,9 °C 29,2 °C 73 % 63 % 1021,6 hPa 0,0 l/m² 3,4 km/h (1 Bft) W 263 ° 1 min 497 W/m² 21,4 °C 29,2 °C 4,8 km/h (1 Bft)
20.08.2023 14:26 24,9 °C 29,3 °C 73 % 64 % 1021,6 hPa 0,0 l/m² 3,0 km/h (1 Bft) W 263 ° 1 min 497 W/m² 21,8 °C 29,3 °C 4,8 km/h (1 Bft)
20.08.2023 14:27 24,9 °C 29,3 °C 73 % 65 % 1021,5 hPa 0,0 l/m² 4,4 km/h (1 Bft) W 263 ° 1 min 497 W/m² 22,0 °C 29,3 °C 6,4 km/h (2 Bft)
20.08.2023 14:28 24,9 °C 29,3 °C 73 % 65 % 1021,5 hPa 0,0 l/m² 0,4 km/h (0 Bft) W 263 ° 1 min 497 W/m² 22,0 °C 29,3 °C 1,6 km/h (1 Bft)
20.08.2023 14:29 24,9 °C 29,4 °C 73 % 67 % 1021,5 hPa 0,0 l/m² 0,5 km/h (0 Bft) W 263 ° 1 min 817 W/m² 22,6 °C 29,4 °C 1,6 km/h (1 Bft)
20.08.2023 14:31 24,9 °C 29,4 °C 73 % 63 % 1021,5 hPa 0,0 l/m² 6,8 km/h (2 Bft) SW 218 ° 2 min 788 W/m² 21,6 °C 29,4 °C 9,7 km/h (2 Bft)
20.08.2023 14:33 24,9 °C 29,6 °C 73 % 63 % 1021,5 hPa 0,0 l/m² 8,8 km/h (2 Bft) W 277 ° 2 min 824 W/m² 21,8 °C 29,4 °C 14,5 km/h (3 Bft)
20.08.2023 14:34 24,9 °C 29,6 °C 73 % 63 % 1021,5 hPa 0,0 l/m² 3,1 km/h (1 Bft) W 278 ° 1 min 812 W/m² 21,8 °C 29,6 °C 4,8 km/h (1 Bft)
20.08.2023 14:35 24,9 °C 29,6 °C 73 % 63 % 1021,5 hPa 0,0 l/m² 4,5 km/h (1 Bft) NW 309 ° 1 min 814 W/m² 21,8 °C 29,6 °C 6,4 km/h (2 Bft)
20.08.2023 14:36 24,9 °C 29,6 °C 73 % 63 % 1021,5 hPa 0,0 l/m² 6,8 km/h (2 Bft) N-NW 346 ° 1 min 805 W/m² 21,8 °C 29,6 °C 9,7 km/h (2 Bft)
20.08.2023 14:37 24,9 °C 29,7 °C 73 % 63 % 1021,4 hPa 0,0 l/m² 6,0 km/h (2 Bft) W 281 ° 1 min 826 W/m² 21,9 °C 29,7 °C 9,7 km/h (2 Bft)
20.08.2023 14:38 24,9 °C 29,7 °C 73 % 62 % 1021,4 hPa 0,0 l/m² 3,1 km/h (1 Bft) W 281 ° 1 min 816 W/m² 21,6 °C 29,7 °C 6,4 km/h (2 Bft)
20.08.2023 14:39 24,9 °C 29,7 °C 73 % 64 % 1021,5 hPa 0,0 l/m² 3,7 km/h (1 Bft) W-NW 282 ° 1 min 814 W/m² 22,1 °C 29,7 °C 6,4 km/h (2 Bft)
20.08.2023 14:41 24,9 °C 29,8 °C 73 % 62 % 1021,5 hPa 0,0 l/m² 4,5 km/h (1 Bft) NW 321 ° 2 min 807 W/m² 21,7 °C 29,8 °C 6,4 km/h (2 Bft)
20.08.2023 14:43 24,9 °C 29,9 °C 73 % 62 % 1021,5 hPa 0,0 l/m² 2,9 km/h (1 Bft) NW 321 ° 2 min 772 W/m² 21,8 °C 29,9 °C 4,8 km/h (1 Bft)
20.08.2023 14:44 24,9 °C 29,9 °C 73 % 63 % 1021,5 hPa 0,0 l/m² 4,3 km/h (1 Bft) W 273 ° 1 min 770 W/m² 22,1 °C 29,9 °C 11,3 km/h (2 Bft)
20.08.2023 14:45 24,9 °C 30,0 °C 73 % 63 % 1021,4 hPa 0,0 l/m² 5,4 km/h (2 Bft) W 262 ° 1 min 766 W/m² 22,2 °C 30,0 °C 9,7 km/h (2 Bft)
20.08.2023 14:46 24,9 °C 30,1 °C 73 % 63 % 1021,4 hPa 0,0 l/m² 5,3 km/h (1 Bft) W 259 ° 1 min 763 W/m² 22,3 °C 30,1 °C 9,7 km/h (2 Bft)
20.08.2023 14:47 24,9 °C 30,1 °C 72 % 60 % 1021,4 hPa 0,0 l/m² 3,9 km/h (1 Bft) W 260 ° 1 min 763 W/m² 21,5 °C 30,1 °C 6,4 km/h (2 Bft)
20.08.2023 14:48 24,9 °C 30,2 °C 72 % 63 % 1021,3 hPa 0,0 l/m² 3,1 km/h (1 Bft) W 259 ° 1 min 788 W/m² 22,4 °C 30,2 °C 6,4 km/h (2 Bft)
20.08.2023 14:49 24,9 °C 30,2 °C 72 % 63 % 1021,4 hPa 0,0 l/m² 2,9 km/h (1 Bft) W 262 ° 1 min 788 W/m² 22,4 °C 30,2 °C 4,8 km/h (1 Bft)
20.08.2023 14:51 24,9 °C 30,3 °C 72 % 60 % 1021,2 hPa 0,0 l/m² 0,7 km/h (0 Bft) W 262 ° 2 min 788 W/m² 21,6 °C 30,3 °C 3,2 km/h (1 Bft)
20.08.2023 14:53 24,9 °C 30,3 °C 72 % 61 % 1021,3 hPa 0,0 l/m² 2,2 km/h (1 Bft) S 170 ° 2 min 772 W/m² 21,9 °C 30,3 °C 6,4 km/h (2 Bft)
20.08.2023 14:54 24,9 °C 30,4 °C 72 % 60 % 1021,3 hPa 0,0 l/m² 4,6 km/h (1 Bft) S-SO 162 ° 1 min 758 W/m² 21,7 °C 30,4 °C 8,0 km/h (2 Bft)
20.08.2023 14:55 24,9 °C 30,4 °C 72 % 60 % 1021,3 hPa 0,0 l/m² 1,8 km/h (1 Bft) S-SO 162 ° 1 min 698 W/m² 21,7 °C 30,4 °C 3,2 km/h (1 Bft)
20.08.2023 14:56 24,9 °C 30,4 °C 72 % 60 % 1021,3 hPa 0,0 l/m² 5,4 km/h (2 Bft) W-SW 257 ° 1 min 526 W/m² 21,7 °C 30,4 °C 9,7 km/h (2 Bft)
20.08.2023 14:57 24,9 °C 30,4 °C 72 % 61 % 1021,3 hPa 0,0 l/m² 4,7 km/h (1 Bft) W-SW 240 ° 1 min 559 W/m² 22,0 °C 30,4 °C 6,4 km/h (2 Bft)
20.08.2023 14:58 24,9 °C 30,4 °C 72 % 62 % 1021,2 hPa 0,0 l/m² 3,5 km/h (1 Bft) W-SW 242 ° 1 min 570 W/m² 22,3 °C 30,4 °C 4,8 km/h (1 Bft)
20.08.2023 14:59 24,9 °C 30,5 °C 72 % 61 % 1021,2 hPa 0,0 l/m² 4,7 km/h (1 Bft) W-SW 244 ° 1 min 548 W/m² 22,1 °C 30,5 °C 6,4 km/h (2 Bft)
20.08.2023 15:01 24,9 °C 30,5 °C 72 % 60 % 1021,2 hPa 0,0 l/m² 8,8 km/h (2 Bft) SW 223 ° 2 min 775 W/m² 21,8 °C 30,3 °C 12,9 km/h (3 Bft)
20.08.2023 15:03 24,9 °C 30,4 °C 72 % 61 % 1021,2 hPa 0,0 l/m² 8,9 km/h (2 Bft) W-SW 254 ° 2 min 759 W/m² 22,0 °C 30,2 °C 12,9 km/h (3 Bft)
20.08.2023 15:04 24,9 °C 30,4 °C 72 % 62 % 1021,2 hPa 0,0 l/m² 6,3 km/h (2 Bft) W 263 ° 1 min 758 W/m² 22,3 °C 30,4 °C 8,0 km/h (2 Bft)
20.08.2023 15:05 24,9 °C 30,4 °C 72 % 62 % 1021,2 hPa 0,0 l/m² 3,3 km/h (1 Bft) W 261 ° 1 min 729 W/m² 22,3 °C 30,4 °C 4,8 km/h (1 Bft)
20.08.2023 15:06 24,9 °C 30,5 °C 72 % 62 % 1021,3 hPa 0,0 l/m² 6,1 km/h (2 Bft) SW 231 ° 1 min 749 W/m² 22,4 °C 30,5 °C 8,0 km/h (2 Bft)
20.08.2023 15:07 24,9 °C 30,5 °C 72 % 63 % 1021,2 hPa 0,0 l/m² 3,2 km/h (1 Bft) SW 233 ° 1 min 745 W/m² 22,6 °C 30,5 °C 4,8 km/h (1 Bft)
20.08.2023 15:08 24,9 °C 30,5 °C 72 % 62 % 1021,2 hPa 0,0 l/m² 3,1 km/h (1 Bft) SW 230 ° 1 min 744 W/m² 22,4 °C 30,5 °C 4,8 km/h (1 Bft)
20.08.2023 15:09 24,9 °C 30,5 °C 72 % 62 % 1021,2 hPa 0,0 l/m² 4,6 km/h (1 Bft) W-SW 248 ° 1 min 737 W/m² 22,4 °C 30,5 °C 6,4 km/h (2 Bft)
20.08.2023 15:11 24,9 °C 30,6 °C 72 % 60 % 1021,2 hPa 0,0 l/m² 3,1 km/h (1 Bft) W-SW 238 ° 2 min 740 W/m² 21,9 °C 30,6 °C 8,0 km/h (2 Bft)
20.08.2023 15:13 24,9 °C 30,6 °C 72 % 61 % 1021,2 hPa 0,0 l/m² 5,0 km/h (1 Bft) W-SW 250 ° 2 min 747 W/m² 22,2 °C 30,6 °C 6,4 km/h (2 Bft)
20.08.2023 15:14 24,9 °C 30,6 °C 72 % 62 % 1021,2 hPa 0,0 l/m² 4,2 km/h (1 Bft) W-SW 250 ° 1 min 777 W/m² 22,5 °C 30,6 °C 6,4 km/h (2 Bft)
20.08.2023 15:15 24,9 °C 30,6 °C 72 % 61 % 1021,2 hPa 0,0 l/m² 3,9 km/h (1 Bft) W-SW 250 ° 1 min 777 W/m² 22,2 °C 30,6 °C 4,8 km/h (1 Bft)
20.08.2023 15:16 24,9 °C 30,7 °C 72 % 61 % 1021,1 hPa 0,0 l/m² 2,8 km/h (1 Bft) W 266 ° 1 min 524 W/m² 22,3 °C 30,7 °C 6,4 km/h (2 Bft)
20.08.2023 15:17 24,9 °C 30,7 °C 72 % 63 % 1021,2 hPa 0,0 l/m² 4,8 km/h (1 Bft) N-NW 331 ° 1 min 619 W/m² 22,8 °C 30,7 °C 9,7 km/h (2 Bft)
20.08.2023 15:18 24,9 °C 30,7 °C 72 % 61 % 1021,2 hPa 0,0 l/m² 5,1 km/h (1 Bft) NW 305 ° 1 min 619 W/m² 22,3 °C 30,7 °C 8,0 km/h (2 Bft)
20.08.2023 15:19 24,9 °C 30,7 °C 72 % 62 % 1021,2 hPa 0,0 l/m² 5,4 km/h (2 Bft) N-NW 337 ° 1 min 802 W/m² 22,6 °C 30,7 °C 8,0 km/h (2 Bft)
20.08.2023 15:21 25,0 °C 30,8 °C 72 % 60 % 1021,2 hPa 0,0 l/m² 7,1 km/h (2 Bft) N-NW 338 ° 2 min 802 W/m² 22,1 °C 30,8 °C 9,7 km/h (2 Bft)
20.08.2023 15:23 24,9 °C 30,8 °C 72 % 61 % 1021,2 hPa 0,0 l/m² 4,3 km/h (1 Bft) N-NW 342 ° 2 min 812 W/m² 22,4 °C 30,8 °C 8,0 km/h (2 Bft)
20.08.2023 15:24 24,9 °C 30,9 °C 72 % 61 % 1021,2 hPa 0,0 l/m² 7,8 km/h (2 Bft) N-NW 327 ° 1 min 835 W/m² 22,5 °C 30,8 °C 12,9 km/h (3 Bft)
20.08.2023 15:25 24,9 °C 30,9 °C 72 % 61 % 1021,3 hPa 0,0 l/m² 5,1 km/h (1 Bft) N-NW 342 ° 1 min 814 W/m² 22,5 °C 30,9 °C 6,4 km/h (2 Bft)
20.08.2023 15:26 24,9 °C 30,9 °C 72 % 60 % 1021,2 hPa 0,0 l/m² 4,8 km/h (1 Bft) N-NW 336 ° 1 min 824 W/m² 22,2 °C 30,9 °C 6,4 km/h (2 Bft)
20.08.2023 15:27 25,0 °C 30,9 °C 72 % 59 % 1021,2 hPa 0,0 l/m² 3,7 km/h (1 Bft) N-NW 336 ° 1 min 837 W/m² 21,9 °C 30,9 °C 6,4 km/h (2 Bft)
20.08.2023 15:28 24,9 °C 30,9 °C 72 % 59 % 1021,2 hPa 0,0 l/m² 1,8 km/h (1 Bft) N-NW 336 ° 1 min 854 W/m² 21,9 °C 30,9 °C 4,8 km/h (1 Bft)
20.08.2023 15:29 25,0 °C 30,9 °C 72 % 59 % 1021,2 hPa 0,0 l/m² 1,3 km/h (1 Bft) N-NW 336 ° 1 min 849 W/m² 21,9 °C 30,9 °C 6,4 km/h (2 Bft)
20.08.2023 15:31 25,0 °C 31,1 °C 72 % 61 % 1021,3 hPa 0,0 l/m² 1,4 km/h (1 Bft) N-NW 336 ° 2 min 831 W/m² 22,7 °C 31,1 °C 6,4 km/h (2 Bft)
20.08.2023 15:33 25,0 °C 31,1 °C 72 % 59 % 1021,2 hPa 0,0 l/m² 2,2 km/h (1 Bft) O-SO 113 ° 2 min 831 W/m² 22,1 °C 31,1 °C 4,8 km/h (1 Bft)
20.08.2023 15:34 25,0 °C 31,1 °C 72 % 59 % 1021,2 hPa 0,0 l/m² 2,5 km/h (1 Bft) O-SO 113 ° 1 min 399 W/m² 22,1 °C 31,1 °C 4,8 km/h (1 Bft)
20.08.2023 15:35 25,0 °C 31,1 °C 72 % 58 % 1021,1 hPa 0,0 l/m² 0,2 km/h (0 Bft) O-SO 118 ° 1 min 424 W/m² 21,8 °C 31,1 °C 1,6 km/h (1 Bft)
20.08.2023 15:36 25,0 °C 31,1 °C 72 % 58 % 1021,2 hPa 0,0 l/m² 1,8 km/h (1 Bft) O-SO 118 ° 1 min 415 W/m² 21,8 °C 31,1 °C 3,2 km/h (1 Bft)
20.08.2023 15:37 25,1 °C 31,1 °C 72 % 58 % 1021,2 hPa 0,0 l/m² 3,7 km/h (1 Bft) S-SO 165 ° 1 min 415 W/m² 21,8 °C 31,1 °C 6,4 km/h (2 Bft)
20.08.2023 15:38 25,1 °C 31,1 °C 72 % 58 % 1021,1 hPa 0,0 l/m² 3,7 km/h (1 Bft) S 170 ° 1 min 504 W/m² 21,8 °C 31,1 °C 8,0 km/h (2 Bft)
20.08.2023 15:39 25,1 °C 31,1 °C 72 % 59 % 1021,1 hPa 0,0 l/m² 6,3 km/h (2 Bft) S-SW 202 ° 1 min 522 W/m² 22,1 °C 31,1 °C 8,0 km/h (2 Bft)
20.08.2023 15:41 25,1 °C 31,0 °C 72 % 58 % 1021,1 hPa 0,0 l/m² 7,1 km/h (2 Bft) S 188 ° 2 min 522 W/m² 21,7 °C 31,0 °C 9,7 km/h (2 Bft)
20.08.2023 15:43 25,0 °C 30,9 °C 72 % 58 % 1021,1 hPa 0,0 l/m² 5,0 km/h (1 Bft) SW 229 ° 2 min 295 W/m² 21,6 °C 30,9 °C 9,7 km/h (2 Bft)
20.08.2023 15:45 25,1 °C 30,8 °C 72 % 58 % 1021,1 hPa 0,0 l/m² 5,7 km/h (2 Bft) S-SW 200 ° 2 min 301 W/m² 21,6 °C 30,8 °C 8,0 km/h (2 Bft)
20.08.2023 15:46 25,1 °C 30,7 °C 72 % 58 % 1021,0 hPa 0,0 l/m² 4,1 km/h (1 Bft) S-SW 200 ° 1 min 302 W/m² 21,5 °C 30,7 °C 6,4 km/h (2 Bft)
20.08.2023 15:47 25,1 °C 30,7 °C 72 % 59 % 1021,0 hPa 0,0 l/m² 2,8 km/h (1 Bft) S-SW 200 ° 1 min 320 W/m² 21,7 °C 30,7 °C 4,8 km/h (1 Bft)
20.08.2023 15:48 25,1 °C 30,6 °C 72 % 59 % 1021,1 hPa 0,0 l/m² 0,8 km/h (0 Bft) S-SW 200 ° 1 min 244 W/m² 21,6 °C 30,6 °C 1,6 km/h (1 Bft)
20.08.2023 15:49 25,1 °C 30,6 °C 72 % 59 % 1021,1 hPa 0,0 l/m² 1,1 km/h (1 Bft) S-SW 200 ° 1 min 244 W/m² 21,6 °C 30,6 °C 1,6 km/h (1 Bft)
20.08.2023 15:51 25,1 °C 30,5 °C 72 % 60 % 1021,0 hPa 0,0 l/m² 2,3 km/h (1 Bft) S-SW 200 ° 2 min 661 W/m² 21,8 °C 30,5 °C 3,2 km/h (1 Bft)
20.08.2023 15:53 25,1 °C 30,5 °C 72 % 62 % 1021,1 hPa 0,0 l/m² 2,2 km/h (1 Bft) S-SW 198 ° 2 min 686 W/m² 22,4 °C 30,5 °C 4,8 km/h (1 Bft)
20.08.2023 15:54 25,1 °C 30,4 °C 72 % 62 % 1021,0 hPa 0,0 l/m² 1,9 km/h (1 Bft) S-SW 210 ° 1 min 677 W/m² 22,3 °C 30,4 °C 3,2 km/h (1 Bft)
20.08.2023 15:55 25,1 °C 30,4 °C 72 % 62 % 1021,1 hPa 0,0 l/m² 0,3 km/h (0 Bft) S-SW 210 ° 1 min 679 W/m² 22,3 °C 30,4 °C 1,6 km/h (1 Bft)
20.08.2023 15:56 25,1 °C 30,5 °C 72 % 61 % 1021,1 hPa 0,0 l/m² 3,7 km/h (1 Bft) W-NW 298 ° 1 min 679 W/m² 22,1 °C 30,5 °C 4,8 km/h (1 Bft)
20.08.2023 15:57 25,1 °C 30,5 °C 72 % 61 % 1021,1 hPa 0,0 l/m² 5,3 km/h (1 Bft) NW 314 ° 1 min 666 W/m² 22,1 °C 30,5 °C 6,4 km/h (2 Bft)
20.08.2023 15:58 25,1 °C 30,5 °C 72 % 60 % 1021,0 hPa 0,0 l/m² 0,6 km/h (0 Bft) NW 314 ° 1 min 649 W/m² 21,8 °C 30,5 °C 3,2 km/h (1 Bft)
20.08.2023 15:59 25,1 °C 30,6 °C 72 % 60 % 1021,0 hPa 0,0 l/m² 0,0 km/h (0 Bft) NW 314 ° 1 min 615 W/m² 21,9 °C 30,6 °C 0,0 km/h (0 Bft)
20.08.2023 16:01 25,1 °C 30,6 °C 72 % 60 % 1021,1 hPa 0,0 l/m² 4,0 km/h (1 Bft) W-SW 248 ° 2 min 633 W/m² 21,9 °C 30,6 °C 9,7 km/h (2 Bft)
20.08.2023 16:03 25,1 °C 30,7 °C 72 % 62 % 1021,0 hPa 0,0 l/m² 6,6 km/h (2 Bft) W-SW 257 ° 2 min 640 W/m² 22,6 °C 30,7 °C 9,7 km/h (2 Bft)
20.08.2023 16:04 25,1 °C 30,7 °C 72 % 61 % 1021,0 hPa 0,0 l/m² 6,8 km/h (2 Bft) W 259 ° 1 min 645 W/m² 22,3 °C 30,7 °C 12,9 km/h (3 Bft)
20.08.2023 16:05 25,1 °C 30,7 °C 72 % 61 % 1020,9 hPa 0,0 l/m² 6,5 km/h (2 Bft) W-SW 241 ° 1 min 645 W/m² 22,3 °C 30,7 °C 11,3 km/h (2 Bft)
20.08.2023 16:06 25,1 °C 30,7 °C 72 % 61 % 1021,0 hPa 0,0 l/m² 6,1 km/h (2 Bft) W 267 ° 1 min 615 W/m² 22,3 °C 30,7 °C 9,7 km/h (2 Bft)
20.08.2023 16:07 25,1 °C 30,7 °C 72 % 60 % 1021,0 hPa 0,0 l/m² 4,3 km/h (1 Bft) W-NW 283 ° 1 min 615 W/m² 22,0 °C 30,7 °C 6,4 km/h (2 Bft)
20.08.2023 16:08 25,1 °C 30,8 °C 72 % 61 % 1021,0 hPa 0,0 l/m² 4,5 km/h (1 Bft) W 273 ° 1 min 613 W/m² 22,4 °C 30,8 °C 9,7 km/h (2 Bft)
20.08.2023 16:09 25,1 °C 30,8 °C 72 % 61 % 1020,9 hPa 0,0 l/m² 5,7 km/h (2 Bft) W-NW 297 ° 1 min 610 W/m² 22,4 °C 30,8 °C 6,4 km/h (2 Bft)
20.08.2023 16:11 25,1 °C 30,8 °C 72 % 60 % 1020,9 hPa 0,0 l/m² 3,5 km/h (1 Bft) W 269 ° 2 min 568 W/m² 22,1 °C 30,8 °C 6,4 km/h (2 Bft)
20.08.2023 16:13 25,1 °C 30,9 °C 72 % 61 % 1020,9 hPa 0,0 l/m² 1,8 km/h (1 Bft) W 264 ° 2 min 589 W/m² 22,5 °C 30,9 °C 4,8 km/h (1 Bft)
20.08.2023 16:14 25,1 °C 30,9 °C 72 % 60 % 1020,9 hPa 0,0 l/m² 0,0 km/h (0 Bft) W 264 ° 1 min 541 W/m² 22,2 °C 30,9 °C 0,0 km/h (0 Bft)
20.08.2023 16:15 25,1 °C 31,0 °C 72 % 58 % 1020,8 hPa 0,0 l/m² 0,1 km/h (0 Bft) W 264 ° 1 min 571 W/m² 21,7 °C 31,0 °C 1,6 km/h (1 Bft)
20.08.2023 16:16 25,1 °C 31,0 °C 72 % 59 % 1020,9 hPa 0,0 l/m² 2,4 km/h (1 Bft) W 263 ° 1 min 568 W/m² 22,0 °C 31,0 °C 3,2 km/h (1 Bft)
20.08.2023 16:17 25,1 °C 30,9 °C 72 % 58 % 1020,9 hPa 0,0 l/m² 2,3 km/h (1 Bft) W 263 ° 1 min 573 W/m² 21,6 °C 30,9 °C 4,8 km/h (1 Bft)
20.08.2023 16:18 25,0 °C 31,0 °C 72 % 59 % 1020,8 hPa 0,0 l/m² 0,9 km/h (0 Bft) S 173 ° 1 min 571 W/m² 22,0 °C 31,0 °C 3,2 km/h (1 Bft)
20.08.2023 16:19 25,1 °C 31,0 °C 72 % 58 % 1021,0 hPa 0,0 l/m² 2,2 km/h (1 Bft) W 259 ° 1 min 571 W/m² 21,7 °C 31,0 °C 6,4 km/h (2 Bft)
20.08.2023 16:21 25,1 °C 31,1 °C 72 % 60 % 1020,9 hPa 0,0 l/m² 4,2 km/h (1 Bft) W 274 ° 2 min 571 W/m² 22,4 °C 31,1 °C 11,3 km/h (2 Bft)
20.08.2023 16:23 25,1 °C 31,1 °C 72 % 59 % 1020,9 hPa 0,0 l/m² 3,3 km/h (1 Bft) NW 311 ° 2 min 566 W/m² 22,1 °C 31,1 °C 6,4 km/h (2 Bft)
20.08.2023 16:24 25,1 °C 31,2 °C 72 % 59 % 1021,0 hPa 0,0 l/m² 4,1 km/h (1 Bft) NW 325 ° 1 min 570 W/m² 22,2 °C 31,2 °C 6,4 km/h (2 Bft)
20.08.2023 16:25 25,0 °C 31,2 °C 72 % 58 % 1020,9 hPa 0,0 l/m² 3,6 km/h (1 Bft) NW 313 ° 1 min 568 W/m² 21,9 °C 31,2 °C 6,4 km/h (2 Bft)
20.08.2023 16:26 25,0 °C 31,2 °C 72 % 58 % 1020,9 hPa 0,0 l/m² 3,1 km/h (1 Bft) N-NW 329 ° 1 min 554 W/m² 21,9 °C 31,2 °C 4,8 km/h (1 Bft)
20.08.2023 16:27 25,0 °C 31,2 °C 72 % 58 % 1020,9 hPa 0,0 l/m² 0,0 km/h (0 Bft) N-NW 329 ° 1 min 561 W/m² 21,9 °C 31,2 °C 0,0 km/h (0 Bft)
20.08.2023 16:28 25,1 °C 31,3 °C 72 % 59 % 1020,9 hPa 0,0 l/m² 1,4 km/h (1 Bft) W-NW 298 ° 1 min 538 W/m² 22,3 °C 31,3 °C 4,8 km/h (1 Bft)
20.08.2023 16:29 25,1 °C 31,3 °C 72 % 59 % 1020,9 hPa 0,0 l/m² 5,1 km/h (1 Bft) W-NW 284 ° 1 min 446 W/m² 22,3 °C 31,3 °C 9,7 km/h (2 Bft)
20.08.2023 16:31 25,0 °C 31,3 °C 72 % 58 % 1020,9 hPa 0,0 l/m² 6,8 km/h (2 Bft) W 263 ° 2 min 251 W/m² 22,0 °C 31,3 °C 11,3 km/h (2 Bft)
20.08.2023 16:33 25,0 °C 31,3 °C 72 % 58 % 1020,9 hPa 0,0 l/m² 5,2 km/h (1 Bft) W 273 ° 2 min 403 W/m² 22,0 °C 31,3 °C 9,7 km/h (2 Bft)
20.08.2023 16:34 25,0 °C 31,3 °C 72 % 58 % 1021,0 hPa 0,0 l/m² 5,4 km/h (2 Bft) W 267 ° 1 min 346 W/m² 22,0 °C 31,3 °C 9,7 km/h (2 Bft)
20.08.2023 16:35 25,0 °C 31,2 °C 72 % 58 % 1021,0 hPa 0,0 l/m² 3,0 km/h (1 Bft) W 268 ° 1 min 533 W/m² 21,9 °C 31,2 °C 6,4 km/h (2 Bft)
20.08.2023 16:36 25,0 °C 31,2 °C 72 % 59 % 1020,9 hPa 0,0 l/m² 1,6 km/h (1 Bft) W 269 ° 1 min 543 W/m² 22,2 °C 31,2 °C 3,2 km/h (1 Bft)
20.08.2023 16:37 25,0 °C 31,2 °C 72 % 60 % 1020,9 hPa 0,0 l/m² 4,1 km/h (1 Bft) W 269 ° 1 min 540 W/m² 22,5 °C 31,2 °C 4,8 km/h (1 Bft)
20.08.2023 16:38 25,0 °C 31,2 °C 72 % 58 % 1020,9 hPa 0,0 l/m² 6,3 km/h (2 Bft) W-SW 242 ° 1 min 557 W/m² 21,9 °C 31,2 °C 9,7 km/h (2 Bft)
20.08.2023 16:39 25,0 °C 31,3 °C 72 % 58 % 1021,0 hPa 0,0 l/m² 7,4 km/h (2 Bft) SW 227 ° 1 min 566 W/m² 22,0 °C 31,2 °C 9,7 km/h (2 Bft)
20.08.2023 16:41 25,0 °C 31,2 °C 72 % 57 % 1020,9 hPa 0,0 l/m² 5,2 km/h (1 Bft) SW 224 ° 2 min 555 W/m² 21,6 °C 31,2 °C 8,0 km/h (2 Bft)
20.08.2023 16:43 25,0 °C 31,2 °C 72 % 57 % 1020,9 hPa 0,0 l/m² 1,2 km/h (1 Bft) N-NW 338 ° 2 min 545 W/m² 21,6 °C 31,2 °C 4,8 km/h (1 Bft)
20.08.2023 16:44 25,0 °C 31,2 °C 72 % 57 % 1020,9 hPa 0,0 l/m² 3,1 km/h (1 Bft) N-NW 337 ° 1 min 540 W/m² 21,6 °C 31,2 °C 4,8 km/h (1 Bft)
20.08.2023 16:45 25,0 °C 31,2 °C 72 % 58 % 1020,8 hPa 0,0 l/m² 2,4 km/h (1 Bft) N-NW 337 ° 1 min 538 W/m² 21,9 °C 31,2 °C 4,8 km/h (1 Bft)
20.08.2023 16:47 25,0 °C 31,2 °C 72 % 57 % 1020,8 hPa 0,0 l/m² 0,7 km/h (0 Bft) N-NW 346 ° 2 min 464 W/m² 21,6 °C 31,2 °C 4,8 km/h (1 Bft)
20.08.2023 16:48 25,0 °C 31,3 °C 72 % 58 % 1020,8 hPa 0,0 l/m² 1,7 km/h (1 Bft) N-NW 346 ° 1 min 429 W/m² 22,0 °C 31,3 °C 3,2 km/h (1 Bft)
20.08.2023 16:49 25,0 °C 31,3 °C 72 % 59 % 1020,8 hPa 0,0 l/m² 0,6 km/h (0 Bft) N-NW 348 ° 1 min 515 W/m² 22,3 °C 31,3 °C 3,2 km/h (1 Bft)
20.08.2023 16:51 25,0 °C 31,3 °C 72 % 58 % 1020,8 hPa 0,0 l/m² 1,8 km/h (1 Bft) N 355 ° 2 min 522 W/m² 22,0 °C 31,3 °C 4,8 km/h (1 Bft)
20.08.2023 16:53 25,0 °C 31,3 °C 72 % 59 % 1020,8 hPa 0,0 l/m² 4,9 km/h (1 Bft) N-NW 340 ° 2 min 439 W/m² 22,3 °C 31,3 °C 8,0 km/h (2 Bft)
20.08.2023 16:54 24,9 °C 31,3 °C 72 % 58 % 1020,7 hPa 0,0 l/m² 3,9 km/h (1 Bft) N-NW 340 ° 1 min 490 W/m² 22,0 °C 31,3 °C 6,4 km/h (2 Bft)
20.08.2023 16:55 25,0 °C 31,4 °C 72 % 58 % 1020,8 hPa 0,0 l/m² 4,0 km/h (1 Bft) N-NW 340 ° 1 min 464 W/m² 22,1 °C 31,4 °C 6,4 km/h (2 Bft)
20.08.2023 16:56 24,9 °C 31,4 °C 72 % 58 % 1020,8 hPa 0,0 l/m² 4,0 km/h (1 Bft) N-NW 340 ° 1 min 464 W/m² 22,1 °C 31,4 °C 6,4 km/h (2 Bft)
20.08.2023 16:57 25,0 °C 31,4 °C 72 % 58 % 1020,7 hPa 0,0 l/m² 4,6 km/h (1 Bft) N-NW 342 ° 1 min 464 W/m² 22,1 °C 31,4 °C 6,4 km/h (2 Bft)
20.08.2023 16:58 25,0 °C 31,4 °C 72 % 58 % 1020,8 hPa 0,0 l/m² 7,3 km/h (2 Bft) N-NW 339 ° 1 min 464 W/m² 22,1 °C 31,4 °C 9,7 km/h (2 Bft)
20.08.2023 16:59 25,0 °C 31,4 °C 72 % 58 % 1020,7 hPa 0,0 l/m² 7,8 km/h (2 Bft) N 355 ° 1 min 473 W/m² 22,1 °C 31,3 °C 9,7 km/h (2 Bft)
20.08.2023 17:01 24,9 °C 31,3 °C 72 % 58 % 1020,7 hPa 0,0 l/m² 3,1 km/h (1 Bft) N-NW 345 ° 2 min 385 W/m² 22,0 °C 31,3 °C 6,4 km/h (2 Bft)
20.08.2023 17:03 24,9 °C 31,3 °C 72 % 58 % 1020,7 hPa 0,0 l/m² 4,9 km/h (1 Bft) N-NW 338 ° 2 min 476 W/m² 22,0 °C 31,3 °C 8,0 km/h (2 Bft)
20.08.2023 17:04 25,0 °C 31,3 °C 72 % 58 % 1020,6 hPa 0,0 l/m² 4,7 km/h (1 Bft) N-NW 337 ° 1 min 468 W/m² 22,0 °C 31,3 °C 6,4 km/h (2 Bft)
20.08.2023 17:05 24,9 °C 31,3 °C 72 % 58 % 1020,6 hPa 0,0 l/m² 5,0 km/h (1 Bft) N-NW 337 ° 1 min 461 W/m² 22,0 °C 31,3 °C 6,4 km/h (2 Bft)
20.08.2023 17:07 24,9 °C 31,3 °C 72 % 58 % 1020,6 hPa 0,0 l/m² 5,1 km/h (1 Bft) N-NW 340 ° 2 min 448 W/m² 22,0 °C 31,3 °C 6,4 km/h (2 Bft)
20.08.2023 17:08 25,0 °C 31,3 °C 72 % 58 % 1020,7 hPa 0,0 l/m² 3,4 km/h (1 Bft) N-NW 348 ° 1 min 443 W/m² 22,0 °C 31,3 °C 4,8 km/h (1 Bft)
20.08.2023 17:09 24,9 °C 31,3 °C 72 % 59 % 1020,7 hPa 0,0 l/m² 4,2 km/h (1 Bft) N 360 ° 1 min 438 W/m² 22,3 °C 31,3 °C 6,4 km/h (2 Bft)
20.08.2023 17:11 24,9 °C 31,3 °C 72 % 58 % 1020,7 hPa 0,0 l/m² 4,9 km/h (1 Bft) N 355 ° 2 min 438 W/m² 22,0 °C 31,3 °C 8,0 km/h (2 Bft)
20.08.2023 17:13 24,9 °C 31,2 °C 72 % 59 % 1020,7 hPa 0,0 l/m² 5,9 km/h (2 Bft) NW 325 ° 2 min 434 W/m² 22,2 °C 31,2 °C 9,7 km/h (2 Bft)
20.08.2023 17:15 25,0 °C 31,2 °C 72 % 58 % 1020,7 hPa 0,0 l/m² 5,9 km/h (2 Bft) N-NW 339 ° 2 min 418 W/m² 21,9 °C 31,2 °C 8,0 km/h (2 Bft)
20.08.2023 17:16 24,9 °C 31,2 °C 72 % 58 % 1020,6 hPa 0,0 l/m² 4,8 km/h (1 Bft) N-NW 341 ° 1 min 415 W/m² 21,9 °C 31,2 °C 6,4 km/h (2 Bft)
20.08.2023 17:17 24,9 °C 31,2 °C 72 % 58 % 1020,7 hPa 0,0 l/m² 5,2 km/h (1 Bft) N 355 ° 1 min 415 W/m² 21,9 °C 31,2 °C 6,4 km/h (2 Bft)
20.08.2023 17:18 24,9 °C 31,2 °C 72 % 58 % 1020,6 hPa 0,0 l/m² 4,1 km/h (1 Bft) N 355 ° 1 min 418 W/m² 21,9 °C 31,2 °C 6,4 km/h (2 Bft)
20.08.2023 17:19 24,9 °C 31,1 °C 72 % 58 % 1020,7 hPa 0,0 l/m² 2,1 km/h (1 Bft) N 355 ° 1 min 418 W/m² 21,8 °C 31,1 °C 4,8 km/h (1 Bft)
20.08.2023 17:21 24,9 °C 31,1 °C 72 % 58 % 1020,6 hPa 0,0 l/m² 2,4 km/h (1 Bft) N 355 ° 2 min 424 W/m² 21,8 °C 31,1 °C 4,8 km/h (1 Bft)
20.08.2023 17:23 25,0 °C 31,0 °C 72 % 59 % 1020,6 hPa 0,0 l/m² 4,0 km/h (1 Bft) N 10 ° 2 min 420 W/m² 22,0 °C 31,0 °C 6,4 km/h (2 Bft)
20.08.2023 17:24 25,0 °C 31,0 °C 72 % 59 % 1020,6 hPa 0,0 l/m² 1,9 km/h (1 Bft) N 10 ° 1 min 415 W/m² 22,0 °C 31,0 °C 4,8 km/h (1 Bft)
20.08.2023 17:25 24,9 °C 31,0 °C 72 % 58 % 1020,6 hPa 0,0 l/m² 0,0 km/h (0 Bft) N 10 ° 1 min 413 W/m² 21,7 °C 31,0 °C 0,0 km/h (0 Bft)
20.08.2023 17:26 24,9 °C 30,9 °C 72 % 59 % 1020,6 hPa 0,0 l/m² 0,0 km/h (0 Bft) N 10 ° 1 min 408 W/m² 21,9 °C 30,9 °C 0,0 km/h (0 Bft)
20.08.2023 17:27 24,9 °C 30,9 °C 72 % 58 % 1020,6 hPa 0,0 l/m² 0,0 km/h (0 Bft) N 10 ° 1 min 406 W/m² 21,6 °C 30,9 °C 0,0 km/h (0 Bft)
20.08.2023 17:28 25,0 °C 30,9 °C 72 % 58 % 1020,5 hPa 0,0 l/m² 0,0 km/h (0 Bft) N 10 ° 1 min 404 W/m² 21,6 °C 30,9 °C 0,0 km/h (0 Bft)
20.08.2023 17:29 24,9 °C 31,0 °C 72 % 58 % 1020,6 hPa 0,0 l/m² 0,0 km/h (0 Bft) N 10 ° 1 min 403 W/m² 21,7 °C 31,0 °C 0,0 km/h (0 Bft)
20.08.2023 17:31 24,9 °C 30,9 °C 72 % 60 % 1020,6 hPa 0,0 l/m² 1,1 km/h (1 Bft) N 9 ° 2 min 404 W/m² 22,2 °C 30,9 °C 6,4 km/h (2 Bft)
20.08.2023 17:33 25,0 °C 31,0 °C 72 % 59 % 1020,6 hPa 0,0 l/m² 4,1 km/h (1 Bft) N 350 ° 2 min 399 W/m² 22,0 °C 31,0 °C 8,0 km/h (2 Bft)
20.08.2023 17:34 25,0 °C 31,0 °C 72 % 59 % 1020,6 hPa 0,0 l/m² 5,6 km/h (2 Bft) N 355 ° 1 min 396 W/m² 22,0 °C 31,0 °C 9,7 km/h (2 Bft)
20.08.2023 17:35 24,9 °C 31,1 °C 72 % 58 % 1020,6 hPa 0,0 l/m² 7,8 km/h (2 Bft) N 355 ° 1 min 390 W/m² 21,8 °C 31,0 °C 9,7 km/h (2 Bft)
20.08.2023 17:36 24,9 °C 31,1 °C 72 % 58 % 1020,6 hPa 0,0 l/m² 5,8 km/h (2 Bft) N-NW 346 ° 1 min 390 W/m² 21,8 °C 31,1 °C 9,7 km/h (2 Bft)
20.08.2023 17:37 25,0 °C 31,0 °C 72 % 59 % 1020,6 hPa 0,0 l/m² 4,3 km/h (1 Bft) N-NW 342 ° 1 min 385 W/m² 22,0 °C 31,0 °C 6,4 km/h (2 Bft)
20.08.2023 17:38 25,0 °C 31,0 °C 72 % 59 % 1020,6 hPa 0,0 l/m² 6,6 km/h (2 Bft) N-NW 329 ° 1 min 381 W/m² 22,0 °C 31,0 °C 9,7 km/h (2 Bft)
20.08.2023 17:39 24,9 °C 31,0 °C 72 % 58 % 1020,6 hPa 0,0 l/m² 7,3 km/h (2 Bft) W-NW 303 ° 1 min 374 W/m² 21,7 °C 30,9 °C 11,3 km/h (2 Bft)
20.08.2023 17:41 25,0 °C 31,0 °C 72 % 58 % 1020,7 hPa 0,0 l/m² 4,6 km/h (1 Bft) NW 306 ° 2 min 371 W/m² 21,7 °C 31,0 °C 8,0 km/h (2 Bft)
20.08.2023 17:43 24,9 °C 30,9 °C 72 % 59 % 1020,6 hPa 0,0 l/m² 3,5 km/h (1 Bft) N 355 ° 2 min 362 W/m² 21,9 °C 30,9 °C 6,4 km/h (2 Bft)
20.08.2023 17:44 24,9 °C 30,9 °C 72 % 61 % 1020,6 hPa 0,0 l/m² 6,2 km/h (2 Bft) N 355 ° 1 min 359 W/m² 22,5 °C 30,9 °C 8,0 km/h (2 Bft)
20.08.2023 17:45 24,9 °C 30,7 °C 72 % 61 % 1020,6 hPa 0,0 l/m² 7,6 km/h (2 Bft) N-NW 334 ° 1 min 359 W/m² 22,3 °C 30,6 °C 12,9 km/h (3 Bft)
20.08.2023 17:46 25,0 °C 30,2 °C 72 % 60 % 1020,5 hPa 0,0 l/m² 7,1 km/h (2 Bft) N-NW 346 ° 1 min 357 W/m² 21,6 °C 30,1 °C 8,0 km/h (2 Bft)
20.08.2023 17:47 25,0 °C 29,9 °C 72 % 60 % 1020,6 hPa 0,0 l/m² 5,0 km/h (1 Bft) N 351 ° 1 min 355 W/m² 21,3 °C 29,9 °C 8,0 km/h (2 Bft)
20.08.2023 17:48 24,9 °C 30,8 °C 72 % 60 % 1020,6 hPa 0,0 l/m² 2,4 km/h (1 Bft) N 355 ° 1 min 352 W/m² 22,1 °C 30,8 °C 4,8 km/h (1 Bft)
20.08.2023 17:49 24,9 °C 31,6 °C 72 % 58 % 1020,6 hPa 0,0 l/m² 5,5 km/h (2 Bft) N-NW 345 ° 1 min 346 W/m² 22,3 °C 31,6 °C 6,4 km/h (2 Bft)
20.08.2023 17:51 25,0 °C 33,2 °C 72 % 55 % 1020,6 hPa 0,0 l/m² 4,2 km/h (1 Bft) N-NW 345 ° 2 min 334 W/m² 22,9 °C 33,2 °C 6,4 km/h (2 Bft)
20.08.2023 17:53 24,9 °C 33,7 °C 72 % 51 % 1020,5 hPa 0,0 l/m² 3,8 km/h (1 Bft) N 355 ° 2 min 329 W/m² 22,1 °C 33,7 °C 6,4 km/h (2 Bft)
20.08.2023 17:54 25,0 °C 34,2 °C 72 % 51 % 1020,5 hPa 0,0 l/m² 2,5 km/h (1 Bft) N 355 ° 1 min 323 W/m² 22,6 °C 34,2 °C 3,2 km/h (1 Bft)
20.08.2023 17:55 25,0 °C 34,7 °C 72 % 51 % 1020,5 hPa 0,0 l/m² 3,1 km/h (1 Bft) N 360 ° 1 min 318 W/m² 23,0 °C 34,7 °C 6,4 km/h (2 Bft)
20.08.2023 17:56 25,0 °C 34,9 °C 72 % 49 % 1020,5 hPa 0,0 l/m² 4,5 km/h (1 Bft) NO 34 ° 1 min 320 W/m² 22,6 °C 34,9 °C 6,4 km/h (2 Bft)
20.08.2023 17:57 24,9 °C 34,7 °C 72 % 50 % 1020,5 hPa 0,0 l/m² 4,2 km/h (1 Bft) N-NO 27 ° 1 min 302 W/m² 22,7 °C 34,7 °C 6,4 km/h (2 Bft)
20.08.2023 17:58 25,0 °C 34,7 °C 72 % 50 % 1020,5 hPa 0,0 l/m² 4,6 km/h (1 Bft) N-NO 24 ° 1 min 301 W/m² 22,7 °C 34,7 °C 8,0 km/h (2 Bft)
20.08.2023 17:59 25,0 °C 34,5 °C 72 % 50 % 1020,5 hPa 0,0 l/m² 5,6 km/h (2 Bft) N-NO 17 ° 1 min 299 W/m² 22,5 °C 34,5 °C 8,0 km/h (2 Bft)
20.08.2023 18:01 24,9 °C 34,2 °C 72 % 52 % 1020,4 hPa 0,0 l/m² 6,0 km/h (2 Bft) N-NW 339 ° 2 min 294 W/m² 22,9 °C 34,2 °C 8,0 km/h (2 Bft)
20.08.2023 18:03 25,0 °C 32,4 °C 72 % 57 % 1020,4 hPa 0,0 l/m² 3,6 km/h (1 Bft) NW 309 ° 2 min 287 W/m² 22,8 °C 32,4 °C 6,4 km/h (2 Bft)
20.08.2023 18:04 24,9 °C 31,4 °C 72 % 57 % 1020,4 hPa 0,0 l/m² 3,0 km/h (1 Bft) NW 309 ° 1 min 281 W/m² 21,8 °C 31,4 °C 4,8 km/h (1 Bft)
20.08.2023 18:05 24,9 °C 30,5 °C 72 % 58 % 1020,4 hPa 0,0 l/m² 2,6 km/h (1 Bft) NW 316 ° 1 min 279 W/m² 21,3 °C 30,5 °C 4,8 km/h (1 Bft)
20.08.2023 18:06 24,9 °C 29,8 °C 71 % 63 % 1020,3 hPa 0,0 l/m² 5,7 km/h (2 Bft) N-NW 343 ° 1 min 276 W/m² 22,0 °C 29,8 °C 8,0 km/h (2 Bft)
20.08.2023 18:07 24,9 °C 29,4 °C 71 % 64 % 1020,3 hPa 0,0 l/m² 6,3 km/h (2 Bft) N-NW 342 ° 1 min 274 W/m² 21,9 °C 29,4 °C 8,0 km/h (2 Bft)
20.08.2023 18:08 24,9 °C 28,9 °C 71 % 65 % 1020,2 hPa 0,0 l/m² 7,6 km/h (2 Bft) N 10 ° 1 min 272 W/m² 21,6 °C 28,7 °C 11,3 km/h (2 Bft)
20.08.2023 18:09 24,9 °C 28,6 °C 71 % 65 % 1020,3 hPa 0,0 l/m² 8,3 km/h (2 Bft) N-NW 327 ° 1 min 267 W/m² 21,4 °C 28,3 °C 9,7 km/h (2 Bft)
20.08.2023 18:11 24,9 °C 28,4 °C 71 % 66 % 1020,3 hPa 0,0 l/m² 3,7 km/h (1 Bft) W 265 ° 2 min 264 W/m² 21,4 °C 28,4 °C 8,0 km/h (2 Bft)
20.08.2023 18:13 24,9 °C 28,4 °C 72 % 66 % 1020,4 hPa 0,0 l/m² 3,8 km/h (1 Bft) W-NW 283 ° 2 min 260 W/m² 21,4 °C 28,4 °C 6,4 km/h (2 Bft)
20.08.2023 18:14 24,9 °C 28,4 °C 72 % 65 % 1020,3 hPa 0,0 l/m² 3,0 km/h (1 Bft) W-NW 283 ° 1 min 257 W/m² 21,2 °C 28,4 °C 4,8 km/h (1 Bft)
20.08.2023 18:15 24,9 °C 28,4 °C 72 % 65 % 1020,4 hPa 0,0 l/m² 3,2 km/h (1 Bft) W-NW 283 ° 1 min 248 W/m² 21,2 °C 28,4 °C 4,8 km/h (1 Bft)
20.08.2023 18:16 24,9 °C 28,4 °C 72 % 65 % 1020,3 hPa 0,0 l/m² 5,6 km/h (2 Bft) W-NW 296 ° 1 min 244 W/m² 21,2 °C 28,4 °C 6,4 km/h (2 Bft)
20.08.2023 18:17 24,9 °C 28,3 °C 72 % 65 % 1020,3 hPa 0,0 l/m² 7,3 km/h (2 Bft) NW 317 ° 1 min 244 W/m² 21,1 °C 28,2 °C 9,7 km/h (2 Bft)
20.08.2023 18:18 24,9 °C 28,3 °C 72 % 66 % 1020,3 hPa 0,0 l/m² 6,0 km/h (2 Bft) N-NW 332 ° 1 min 241 W/m² 21,3 °C 28,3 °C 9,7 km/h (2 Bft)
20.08.2023 18:19 24,9 °C 28,3 °C 72 % 65 % 1020,3 hPa 0,0 l/m² 7,1 km/h (2 Bft) N-NW 333 ° 1 min 237 W/m² 21,1 °C 28,2 °C 9,7 km/h (2 Bft)
20.08.2023 18:21 24,9 °C 28,3 °C 71 % 66 % 1020,3 hPa 0,0 l/m² 6,1 km/h (2 Bft) N-NW 342 ° 2 min 232 W/m² 21,3 °C 28,3 °C 8,0 km/h (2 Bft)
20.08.2023 18:23 24,9 °C 28,2 °C 71 % 65 % 1020,3 hPa 0,0 l/m² 5,6 km/h (2 Bft) N-NW 348 ° 2 min 223 W/m² 21,0 °C 28,2 °C 9,7 km/h (2 Bft)
20.08.2023 18:24 24,9 °C 28,2 °C 72 % 65 % 1020,4 hPa 0,0 l/m² 4,1 km/h (1 Bft) N-NW 348 ° 1 min 221 W/m² 21,0 °C 28,2 °C 6,4 km/h (2 Bft)
20.08.2023 18:25 24,9 °C 28,2 °C 72 % 65 % 1020,3 hPa 0,0 l/m² 3,5 km/h (1 Bft) N-NW 347 ° 1 min 216 W/m² 21,0 °C 28,2 °C 4,8 km/h (1 Bft)
20.08.2023 18:26 24,9 °C 28,2 °C 71 % 66 % 1020,4 hPa 0,0 l/m² 1,6 km/h (1 Bft) N-NW 347 ° 1 min 190 W/m² 21,2 °C 28,2 °C 3,2 km/h (1 Bft)
20.08.2023 18:27 24,9 °C 28,2 °C 71 % 65 % 1020,3 hPa 0,0 l/m² 4,7 km/h (1 Bft) N-NW 345 ° 1 min 135 W/m² 21,0 °C 28,2 °C 6,4 km/h (2 Bft)
20.08.2023 18:28 24,9 °C 28,2 °C 71 % 66 % 1020,4 hPa 0,0 l/m² 6,0 km/h (2 Bft) N-NW 344 ° 1 min 202 W/m² 21,2 °C 28,2 °C 8,0 km/h (2 Bft)
20.08.2023 18:29 24,9 °C 28,1 °C 71 % 65 % 1020,3 hPa 0,0 l/m² 5,6 km/h (2 Bft) N-NW 344 ° 1 min 202 W/m² 20,9 °C 28,1 °C 8,0 km/h (2 Bft)
20.08.2023 18:31 24,9 °C 28,1 °C 72 % 65 % 1020,3 hPa 0,0 l/m² 2,2 km/h (1 Bft) N 350 ° 2 min 200 W/m² 20,9 °C 28,1 °C 4,8 km/h (1 Bft)
20.08.2023 18:33 24,9 °C 28,1 °C 72 % 65 % 1020,3 hPa 0,0 l/m² 0,0 km/h (0 Bft) N 350 ° 2 min 197 W/m² 20,9 °C 28,1 °C 0,0 km/h (0 Bft)
20.08.2023 18:34 24,9 °C 28,2 °C 71 % 66 % 1020,3 hPa 0,0 l/m² 1,4 km/h (1 Bft) N 350 ° 1 min 192 W/m² 21,2 °C 28,2 °C 3,2 km/h (1 Bft)
20.08.2023 18:35 24,9 °C 28,2 °C 71 % 65 % 1020,3 hPa 0,0 l/m² 0,4 km/h (0 Bft) N 350 ° 1 min 190 W/m² 21,0 °C 28,2 °C 1,6 km/h (1 Bft)
20.08.2023 18:36 24,9 °C 28,2 °C 71 % 66 % 1020,2 hPa 0,0 l/m² 0,0 km/h (0 Bft) N 350 ° 1 min 188 W/m² 21,2 °C 28,2 °C 0,0 km/h (0 Bft)
20.08.2023 18:37 24,9 °C 28,2 °C 71 % 66 % 1020,3 hPa 0,0 l/m² 0,0 km/h (0 Bft) N 350 ° 1 min 185 W/m² 21,2 °C 28,2 °C 0,0 km/h (0 Bft)
20.08.2023 18:38 24,9 °C 28,1 °C 71 % 66 % 1020,3 hPa 0,0 l/m² 0,0 km/h (0 Bft) N 350 ° 1 min 179 W/m² 21,1 °C 28,1 °C 0,0 km/h (0 Bft)
20.08.2023 18:39 24,9 °C 28,1 °C 71 % 65 % 1020,3 hPa 0,0 l/m² 0,0 km/h (0 Bft) N 350 ° 1 min 178 W/m² 20,9 °C 28,1 °C 0,0 km/h (0 Bft)
20.08.2023 18:41 24,9 °C 28,1 °C 71 % 65 % 1020,3 hPa 0,0 l/m² 0,0 km/h (0 Bft) N 350 ° 2 min 171 W/m² 20,9 °C 28,1 °C 0,0 km/h (0 Bft)
20.08.2023 18:43 24,9 °C 28,1 °C 71 % 65 % 1020,3 hPa 0,0 l/m² 0,0 km/h (0 Bft) N 350 ° 2 min 167 W/m² 20,9 °C 28,1 °C 0,0 km/h (0 Bft)
20.08.2023 18:45 24,9 °C 28,2 °C 71 % 65 % 1020,3 hPa 0,0 l/m² 1,8 km/h (1 Bft) N 350 ° 2 min 123 W/m² 21,0 °C 28,2 °C 3,2 km/h (1 Bft)
20.08.2023 18:46 24,9 °C 28,2 °C 71 % 67 % 1020,2 hPa 0,0 l/m² 3,9 km/h (1 Bft) O-NO 57 ° 1 min 86 W/m² 21,5 °C 28,2 °C 8,0 km/h (2 Bft)
20.08.2023 18:47 24,9 °C 28,1 °C 71 % 66 % 1020,3 hPa 0,0 l/m² 5,5 km/h (2 Bft) NO 46 ° 1 min 83 W/m² 21,1 °C 28,1 °C 9,7 km/h (2 Bft)
20.08.2023 18:48 24,9 °C 28,1 °C 71 % 66 % 1020,3 hPa 0,0 l/m² 5,0 km/h (1 Bft) N-NO 15 ° 1 min 86 W/m² 21,1 °C 28,1 °C 6,4 km/h (2 Bft)
20.08.2023 18:49 24,9 °C 28,1 °C 71 % 66 % 1020,3 hPa 0,0 l/m² 4,7 km/h (1 Bft) NW 310 ° 1 min 141 W/m² 21,1 °C 28,1 °C 8,0 km/h (2 Bft)
20.08.2023 18:51 24,9 °C 28,1 °C 71 % 66 % 1020,2 hPa 0,0 l/m² 5,2 km/h (1 Bft) NW 316 ° 2 min 130 W/m² 21,1 °C 28,1 °C 9,7 km/h (2 Bft)
20.08.2023 18:53 24,9 °C 28,0 °C 71 % 66 % 1020,2 hPa 0,0 l/m² 4,3 km/h (1 Bft) NW 316 ° 2 min 63 W/m² 21,0 °C 28,0 °C 6,4 km/h (2 Bft)
20.08.2023 18:54 24,9 °C 28,0 °C 71 % 66 % 1020,3 hPa 0,0 l/m² 3,8 km/h (1 Bft) NW 320 ° 1 min 58 W/m² 21,0 °C 28,0 °C 4,8 km/h (1 Bft)
20.08.2023 18:55 24,9 °C 28,0 °C 71 % 66 % 1020,3 hPa 0,0 l/m² 3,5 km/h (1 Bft) NW 320 ° 1 min 53 W/m² 21,0 °C 28,0 °C 4,8 km/h (1 Bft)
20.08.2023 18:56 24,9 °C 27,9 °C 71 % 65 % 1020,3 hPa 0,0 l/m² 1,5 km/h (1 Bft) NW 320 ° 1 min 60 W/m² 20,7 °C 27,9 °C 4,8 km/h (1 Bft)
20.08.2023 18:57 24,9 °C 27,9 °C 71 % 66 % 1020,3 hPa 0,0 l/m² 0,6 km/h (0 Bft) NW 320 ° 1 min 63 W/m² 20,9 °C 27,9 °C 1,6 km/h (1 Bft)
20.08.2023 18:58 24,9 °C 27,9 °C 71 % 66 % 1020,3 hPa 0,0 l/m² 3,2 km/h (1 Bft) NW 321 ° 1 min 90 W/m² 20,9 °C 27,9 °C 4,8 km/h (1 Bft)
20.08.2023 18:59 24,9 °C 27,9 °C 71 % 65 % 1020,3 hPa 0,0 l/m² 3,8 km/h (1 Bft) NW 321 ° 1 min 113 W/m² 20,7 °C 27,9 °C 4,8 km/h (1 Bft)
20.08.2023 19:01 24,9 °C 27,9 °C 71 % 66 % 1020,3 hPa 0,0 l/m² 3,1 km/h (1 Bft) NW 323 ° 2 min 77 W/m² 20,9 °C 27,9 °C 4,8 km/h (1 Bft)
20.08.2023 19:03 24,9 °C 27,9 °C 71 % 65 % 1020,3 hPa 0,0 l/m² 5,8 km/h (2 Bft) N-NW 335 ° 2 min 63 W/m² 20,7 °C 27,9 °C 8,0 km/h (2 Bft)
20.08.2023 19:04 24,9 °C 27,9 °C 71 % 65 % 1020,2 hPa 0,0 l/m² 5,1 km/h (1 Bft) N-NW 339 ° 1 min 65 W/m² 20,7 °C 27,9 °C 6,4 km/h (2 Bft)
20.08.2023 19:05 24,9 °C 27,9 °C 71 % 66 % 1020,2 hPa 0,0 l/m² 5,6 km/h (2 Bft) N-NW 335 ° 1 min 54 W/m² 20,9 °C 27,9 °C 8,0 km/h (2 Bft)
20.08.2023 19:06 24,9 °C 27,9 °C 71 % 66 % 1020,2 hPa 0,0 l/m² 6,4 km/h (2 Bft) N-NW 342 ° 1 min 56 W/m² 20,9 °C 27,9 °C 9,7 km/h (2 Bft)
20.08.2023 19:07 24,9 °C 27,9 °C 71 % 65 % 1020,3 hPa 0,0 l/m² 5,1 km/h (1 Bft) N-NW 343 ° 0 min 49 W/m² 20,7 °C 27,9 °C 8,0 km/h (2 Bft)
20.08.2023 19:08 24,9 °C 27,9 °C 71 % 66 % 1020,2 hPa 0,0 l/m² 4,7 km/h (1 Bft) N-NW 343 ° 0 min 47 W/m² 20,9 °C 27,9 °C 6,4 km/h (2 Bft)
20.08.2023 19:09 24,9 °C 27,9 °C 71 % 66 % 1020,3 hPa 0,0 l/m² 5,6 km/h (2 Bft) N-NW 344 ° 0 min 47 W/m² 20,9 °C 27,9 °C 6,4 km/h (2 Bft)
20.08.2023 19:11 24,9 °C 27,8 °C 71 % 66 % 1020,3 hPa 0,0 l/m² 2,9 km/h (1 Bft) N-NW 344 ° 0 min 47 W/m² 20,8 °C 27,8 °C 4,8 km/h (1 Bft)
20.08.2023 19:13 24,9 °C 27,8 °C 71 % 66 % 1020,3 hPa 0,0 l/m² 3,7 km/h (1 Bft) N-NW 345 ° 0 min 42 W/m² 20,8 °C 27,8 °C 4,8 km/h (1 Bft)
20.08.2023 19:14 24,9 °C 27,8 °C 71 % 66 % 1020,2 hPa 0,0 l/m² 1,7 km/h (1 Bft) N-NW 345 ° 0 min 40 W/m² 20,8 °C 27,8 °C 3,2 km/h (1 Bft)
20.08.2023 19:15 25,0 °C 27,8 °C 71 % 66 % 1020,2 hPa 0,0 l/m² 2,8 km/h (1 Bft) N-NW 345 ° 0 min 40 W/m² 20,8 °C 27,8 °C 3,2 km/h (1 Bft)
20.08.2023 19:16 24,9 °C 27,8 °C 71 % 67 % 1020,2 hPa 0,0 l/m² 1,8 km/h (1 Bft) N-NW 345 ° 0 min 39 W/m² 21,1 °C 27,8 °C 3,2 km/h (1 Bft)
20.08.2023 19:17 24,9 °C 27,7 °C 71 % 66 % 1020,1 hPa 0,0 l/m² 2,1 km/h (1 Bft) N-NW 345 ° 0 min 35 W/m² 20,8 °C 27,7 °C 3,2 km/h (1 Bft)
20.08.2023 19:18 24,9 °C 27,7 °C 71 % 66 % 1020,2 hPa 0,0 l/m² 2,8 km/h (1 Bft) N-NW 345 ° 0 min 37 W/m² 20,8 °C 27,7 °C 4,8 km/h (1 Bft)
20.08.2023 19:19 25,0 °C 27,7 °C 71 % 66 % 1020,2 hPa 0,0 l/m² 1,4 km/h (1 Bft) N-NW 345 ° 0 min 35 W/m² 20,8 °C 27,7 °C 3,2 km/h (1 Bft)
20.08.2023 19:21 24,9 °C 27,6 °C 71 % 66 % 1020,2 hPa 0,0 l/m² 1,5 km/h (1 Bft) N-NW 345 ° 0 min 40 W/m² 20,7 °C 27,6 °C 3,2 km/h (1 Bft)
20.08.2023 19:23 25,0 °C 27,6 °C 72 % 66 % 1020,2 hPa 0,0 l/m² 2,4 km/h (1 Bft) N-NW 345 ° 2 min 53 W/m² 20,7 °C 27,6 °C 4,8 km/h (1 Bft)
20.08.2023 19:24 25,0 °C 27,6 °C 71 % 66 % 1020,2 hPa 0,0 l/m² 2,1 km/h (1 Bft) N-NW 345 ° 0 min 47 W/m² 20,7 °C 27,6 °C 3,2 km/h (1 Bft)
20.08.2023 19:25 25,0 °C 27,6 °C 71 % 67 % 1020,2 hPa 0,0 l/m² 0,1 km/h (0 Bft) N-NW 345 ° 0 min 33 W/m² 20,9 °C 27,6 °C 1,6 km/h (1 Bft)
20.08.2023 19:26 25,0 °C 27,6 °C 71 % 68 % 1020,3 hPa 0,0 l/m² 3,5 km/h (1 Bft) NO 44 ° 0 min 32 W/m² 21,1 °C 27,6 °C 6,4 km/h (2 Bft)
20.08.2023 19:27 25,0 °C 27,5 °C 72 % 67 % 1020,3 hPa 0,0 l/m² 2,3 km/h (1 Bft) NO 35 ° 0 min 33 W/m² 20,8 °C 27,5 °C 6,4 km/h (2 Bft)
20.08.2023 19:28 25,0 °C 27,4 °C 72 % 67 % 1020,3 hPa 0,0 l/m² 2,6 km/h (1 Bft) NO 38 ° 0 min 33 W/m² 20,7 °C 27,4 °C 4,8 km/h (1 Bft)
20.08.2023 19:29 25,0 °C 27,4 °C 72 % 67 % 1020,3 hPa 0,0 l/m² 1,9 km/h (1 Bft) NO 38 ° 0 min 35 W/m² 20,7 °C 27,4 °C 6,4 km/h (2 Bft)
20.08.2023 19:31 25,0 °C 27,4 °C 72 % 67 % 1020,3 hPa 0,0 l/m² 3,4 km/h (1 Bft) NO 41 ° 0 min 33 W/m² 20,7 °C 27,4 °C 4,8 km/h (1 Bft)
20.08.2023 19:33 25,0 °C 27,4 °C 72 % 67 % 1020,3 hPa 0,0 l/m² 1,3 km/h (1 Bft) NO 41 ° 0 min 32 W/m² 20,7 °C 27,4 °C 3,2 km/h (1 Bft)
20.08.2023 19:34 25,0 °C 27,4 °C 72 % 67 % 1020,3 hPa 0,0 l/m² 2,1 km/h (1 Bft) NO 41 ° 0 min 32 W/m² 20,7 °C 27,4 °C 3,2 km/h (1 Bft)
20.08.2023 19:35 25,1 °C 27,4 °C 72 % 68 % 1020,3 hPa 0,0 l/m² 0,3 km/h (0 Bft) NO 41 ° 0 min 30 W/m² 21,0 °C 27,4 °C 1,6 km/h (1 Bft)
20.08.2023 19:36 25,1 °C 27,4 °C 72 % 68 % 1020,3 hPa 0,0 l/m² 1,9 km/h (1 Bft) NO 41 ° 0 min 30 W/m² 21,0 °C 27,4 °C 3,2 km/h (1 Bft)
20.08.2023 19:37 25,0 °C 27,4 °C 72 % 68 % 1020,3 hPa 0,0 l/m² 0,6 km/h (0 Bft) NO 41 ° 0 min 28 W/m² 21,0 °C 27,4 °C 3,2 km/h (1 Bft)
20.08.2023 19:38 25,0 °C 27,4 °C 72 % 68 % 1020,3 hPa 0,0 l/m² 2,3 km/h (1 Bft) NO 41 ° 0 min 28 W/m² 21,0 °C 27,4 °C 4,8 km/h (1 Bft)
20.08.2023 19:39 25,1 °C 27,3 °C 72 % 68 % 1020,3 hPa 0,0 l/m² 0,6 km/h (0 Bft) NO 41 ° 0 min 26 W/m² 20,9 °C 27,3 °C 3,2 km/h (1 Bft)
20.08.2023 19:41 25,1 °C 27,3 °C 72 % 69 % 1020,3 hPa 0,0 l/m² 0,9 km/h (0 Bft) NO 41 ° 0 min 26 W/m² 21,1 °C 27,3 °C 3,2 km/h (1 Bft)
20.08.2023 19:43 25,1 °C 27,2 °C 72 % 68 % 1020,4 hPa 0,0 l/m² 2,3 km/h (1 Bft) NO 41 ° 0 min 26 W/m² 20,8 °C 27,2 °C 4,8 km/h (1 Bft)
20.08.2023 19:44 25,0 °C 27,2 °C 72 % 69 % 1020,4 hPa 0,0 l/m² 1,1 km/h (1 Bft) NO 41 ° 0 min 26 W/m² 21,0 °C 27,2 °C 4,8 km/h (1 Bft)
20.08.2023 19:45 25,1 °C 27,1 °C 72 % 69 % 1020,4 hPa 0,0 l/m² 1,9 km/h (1 Bft) NO 41 ° 0 min 26 W/m² 20,9 °C 27,1 °C 3,2 km/h (1 Bft)
20.08.2023 19:46 25,1 °C 27,1 °C 72 % 69 % 1020,4 hPa 0,0 l/m² 1,6 km/h (1 Bft) NO 41 ° 0 min 26 W/m² 20,9 °C 27,1 °C 3,2 km/h (1 Bft)
20.08.2023 19:47 25,1 °C 27,1 °C 72 % 69 % 1020,3 hPa 0,0 l/m² 1,9 km/h (1 Bft) NO 41 ° 0 min 26 W/m² 20,9 °C 27,1 °C 3,2 km/h (1 Bft)
20.08.2023 19:48 25,1 °C 27,1 °C 72 % 69 % 1020,4 hPa 0,0 l/m² 1,9 km/h (1 Bft) NO 41 ° 0 min 25 W/m² 20,9 °C 27,1 °C 3,2 km/h (1 Bft)
20.08.2023 19:49 25,1 °C 27,1 °C 72 % 69 % 1020,3 hPa 0,0 l/m² 1,6 km/h (1 Bft) NO 41 ° 0 min 25 W/m² 20,9 °C 27,1 °C 3,2 km/h (1 Bft)
20.08.2023 19:51 25,1 °C 27,1 °C 72 % 69 % 1020,3 hPa 0,0 l/m² 1,8 km/h (1 Bft) NO 41 ° 0 min 25 W/m² 20,9 °C 27,1 °C 3,2 km/h (1 Bft)
20.08.2023 19:53 25,1 °C 27,0 °C 72 % 69 % 1020,3 hPa 0,0 l/m² 1,1 km/h (1 Bft) NO 41 ° 0 min 25 W/m² 20,8 °C 27,0 °C 3,2 km/h (1 Bft)
20.08.2023 19:54 25,1 °C 26,9 °C 72 % 70 % 1020,4 hPa 0,0 l/m² 1,0 km/h (0 Bft) NO 41 ° 0 min 23 W/m² 21,0 °C 26,9 °C 3,2 km/h (1 Bft)
20.08.2023 19:55 25,1 °C 26,9 °C 72 % 69 % 1020,3 hPa 0,0 l/m² 2,3 km/h (1 Bft) NO 41 ° 0 min 21 W/m² 20,7 °C 26,9 °C 4,8 km/h (1 Bft)
20.08.2023 19:56 25,1 °C 26,9 °C 72 % 70 % 1020,3 hPa 0,0 l/m² 2,3 km/h (1 Bft) NO 41 ° 0 min 21 W/m² 21,0 °C 26,9 °C 4,8 km/h (1 Bft)
20.08.2023 19:57 25,1 °C 26,9 °C 72 % 70 % 1020,4 hPa 0,0 l/m² 3,0 km/h (1 Bft) NO 40 ° 0 min 19 W/m² 21,0 °C 26,9 °C 4,8 km/h (1 Bft)
20.08.2023 19:58 25,1 °C 26,8 °C 72 % 70 % 1020,4 hPa 0,0 l/m² 1,7 km/h (1 Bft) NO 41 ° 0 min 19 W/m² 20,9 °C 26,8 °C 3,2 km/h (1 Bft)
20.08.2023 19:59 25,1 °C 26,8 °C 72 % 70 % 1020,3 hPa 0,0 l/m² 1,9 km/h (1 Bft) NO 41 ° 0 min 19 W/m² 20,9 °C 26,8 °C 4,8 km/h (1 Bft)
20.08.2023 20:01 25,1 °C 26,8 °C 72 % 70 % 1020,4 hPa 0,0 l/m² 3,8 km/h (1 Bft) NO 38 ° 0 min 16 W/m² 20,9 °C 26,8 °C 6,4 km/h (2 Bft)
20.08.2023 20:03 25,1 °C 26,7 °C 72 % 70 % 1020,4 hPa 0,0 l/m² 3,5 km/h (1 Bft) NO 40 ° 0 min 16 W/m² 20,8 °C 26,7 °C 6,4 km/h (2 Bft)
20.08.2023 20:04 25,1 °C 26,7 °C 72 % 70 % 1020,4 hPa 0,0 l/m² 3,9 km/h (1 Bft) NO 38 ° 0 min 14 W/m² 20,8 °C 26,7 °C 6,4 km/h (2 Bft)
20.08.2023 20:05 25,1 °C 26,7 °C 72 % 70 % 1020,4 hPa 0,0 l/m² 2,3 km/h (1 Bft) NO 38 ° 0 min 14 W/m² 20,8 °C 26,7 °C 4,8 km/h (1 Bft)
20.08.2023 20:06 25,1 °C 26,7 °C 72 % 71 % 1020,4 hPa 0,0 l/m² 2,1 km/h (1 Bft) NO 37 ° 0 min 12 W/m² 21,0 °C 26,7 °C 4,8 km/h (1 Bft)
20.08.2023 20:07 25,1 °C 26,7 °C 72 % 71 % 1020,4 hPa 0,0 l/m² 0,6 km/h (0 Bft) NO 37 ° 0 min 12 W/m² 21,0 °C 26,7 °C 3,2 km/h (1 Bft)
20.08.2023 20:08 25,1 °C 26,6 °C 72 % 71 % 1020,4 hPa 0,0 l/m² 0,2 km/h (0 Bft) NO 37 ° 0 min 11 W/m² 20,9 °C 26,6 °C 1,6 km/h (1 Bft)
20.08.2023 20:09 25,1 °C 26,6 °C 72 % 71 % 1020,5 hPa 0,0 l/m² 1,6 km/h (1 Bft) NO 37 ° 0 min 11 W/m² 20,9 °C 26,6 °C 3,2 km/h (1 Bft)
20.08.2023 20:11 25,1 °C 26,5 °C 72 % 70 % 1020,4 hPa 0,0 l/m² 2,3 km/h (1 Bft) N-NO 32 ° 0 min 9 W/m² 20,6 °C 26,5 °C 4,8 km/h (1 Bft)
20.08.2023 20:13 25,1 °C 26,5 °C 72 % 70 % 1020,5 hPa 0,0 l/m² 2,6 km/h (1 Bft) N-NO 18 ° 0 min 7 W/m² 20,6 °C 26,5 °C 6,4 km/h (2 Bft)
20.08.2023 20:14 25,1 °C 26,4 °C 72 % 70 % 1020,5 hPa 0,0 l/m² 3,0 km/h (1 Bft) N-NO 24 ° 0 min 7 W/m² 20,5 °C 26,4 °C 6,4 km/h (2 Bft)
20.08.2023 20:15 25,1 °C 26,4 °C 72 % 70 % 1020,5 hPa 0,0 l/m² 1,8 km/h (1 Bft) N-NO 23 ° 0 min 7 W/m² 20,5 °C 26,4 °C 4,8 km/h (1 Bft)
20.08.2023 20:17 25,1 °C 26,4 °C 72 % 69 % 1020,5 hPa 0,0 l/m² 2,2 km/h (1 Bft) N-NO 26 ° 0 min 7 W/m² 20,2 °C 26,4 °C 4,8 km/h (1 Bft)
20.08.2023 20:18 25,1 °C 26,4 °C 72 % 70 % 1020,5 hPa 0,0 l/m² 1,1 km/h (1 Bft) N-NO 26 ° 0 min 5 W/m² 20,5 °C 26,4 °C 3,2 km/h (1 Bft)
20.08.2023 20:19 25,1 °C 26,4 °C 72 % 70 % 1020,5 hPa 0,0 l/m² 0,9 km/h (0 Bft) N-NO 26 ° 0 min 5 W/m² 20,5 °C 26,4 °C 3,2 km/h (1 Bft)
20.08.2023 20:21 25,1 °C 26,4 °C 72 % 70 % 1020,5 hPa 0,0 l/m² 0,8 km/h (0 Bft) N-NO 26 ° 0 min 5 W/m² 20,5 °C 26,4 °C 4,8 km/h (1 Bft)
20.08.2023 20:23 25,1 °C 26,3 °C 72 % 70 % 1020,5 hPa 0,0 l/m² 0,6 km/h (0 Bft) N-NO 26 ° 0 min 0 W/m² 20,4 °C 26,3 °C 3,2 km/h (1 Bft)
20.08.2023 20:24 25,1 °C 26,3 °C 72 % 70 % 1020,5 hPa 0,0 l/m² 1,6 km/h (1 Bft) N-NO 27 ° 0 min 0 W/m² 20,4 °C 26,3 °C 4,8 km/h (1 Bft)
20.08.2023 20:25 25,1 °C 26,3 °C 72 % 70 % 1020,5 hPa 0,0 l/m² 3,3 km/h (1 Bft) N-NO 26 ° 0 min 0 W/m² 20,4 °C 26,3 °C 4,8 km/h (1 Bft)
20.08.2023 20:26 25,2 °C 26,2 °C 72 % 70 % 1020,6 hPa 0,0 l/m² 2,6 km/h (1 Bft) N-NO 26 ° 0 min 0 W/m² 20,3 °C 26,2 °C 3,2 km/h (1 Bft)
20.08.2023 20:27 25,1 °C 26,2 °C 72 % 70 % 1020,6 hPa 0,0 l/m² 1,4 km/h (1 Bft) N-NO 26 ° 0 min 0 W/m² 20,3 °C 26,2 °C 3,2 km/h (1 Bft)
20.08.2023 20:28 25,1 °C 26,2 °C 72 % 70 % 1020,6 hPa 0,0 l/m² 0,6 km/h (0 Bft) N-NO 26 ° 0 min 0 W/m² 20,3 °C 26,2 °C 1,6 km/h (1 Bft)
20.08.2023 20:29 25,2 °C 26,2 °C 72 % 70 % 1020,6 hPa 0,0 l/m² 0,3 km/h (0 Bft) N-NO 26 ° 0 min 0 W/m² 20,3 °C 26,2 °C 1,6 km/h (1 Bft)
20.08.2023 20:31 25,2 °C 26,1 °C 72 % 71 % 1020,6 hPa 0,0 l/m² 1,4 km/h (1 Bft) N-NO 26 ° 0 min 0 W/m² 20,4 °C 26,1 °C 3,2 km/h (1 Bft)
20.08.2023 20:33 25,2 °C 26,1 °C 72 % 71 % 1020,7 hPa 0,0 l/m² 2,0 km/h (1 Bft) N-NO 26 ° 0 min 0 W/m² 20,4 °C 26,1 °C 3,2 km/h (1 Bft)
20.08.2023 20:34 25,2 °C 26,1 °C 72 % 70 % 1020,6 hPa 0,0 l/m² 1,9 km/h (1 Bft) N-NO 26 ° 0 min 0 W/m² 20,2 °C 26,1 °C 3,2 km/h (1 Bft)
20.08.2023 20:35 25,2 °C 26,1 °C 72 % 71 % 1020,7 hPa 0,0 l/m² 2,9 km/h (1 Bft) N-NO 26 ° 0 min 0 W/m² 20,4 °C 26,1 °C 4,8 km/h (1 Bft)
20.08.2023 20:36 25,2 °C 26,0 °C 72 % 71 % 1020,7 hPa 0,0 l/m² 2,1 km/h (1 Bft) N-NO 26 ° 0 min 0 W/m² 20,3 °C 26,0 °C 3,2 km/h (1 Bft)
20.08.2023 20:37 25,2 °C 26,0 °C 72 % 71 % 1020,7 hPa 0,0 l/m² 1,0 km/h (0 Bft) N-NO 26 ° 0 min 0 W/m² 20,3 °C 26,0 °C 3,2 km/h (1 Bft)
20.08.2023 20:38 25,2 °C 26,0 °C 72 % 71 % 1020,8 hPa 0,0 l/m² 1,2 km/h (1 Bft) N-NO 24 ° 0 min 0 W/m² 20,3 °C 26,0 °C 4,8 km/h (1 Bft)
20.08.2023 20:39 25,2 °C 25,9 °C 72 % 70 % 1020,8 hPa 0,0 l/m² 2,1 km/h (1 Bft) N-NO 24 ° 0 min 0 W/m² 20,0 °C 25,9 °C 3,2 km/h (1 Bft)
20.08.2023 20:41 25,2 °C 25,9 °C 72 % 71 % 1020,8 hPa 0,0 l/m² 2,9 km/h (1 Bft) N-NO 15 ° 0 min 0 W/m² 20,2 °C 25,9 °C 4,8 km/h (1 Bft)
20.08.2023 20:43 25,2 °C 25,9 °C 72 % 71 % 1020,8 hPa 0,0 l/m² 2,1 km/h (1 Bft) N-NO 17 ° 0 min 0 W/m² 20,2 °C 25,9 °C 4,8 km/h (1 Bft)
20.08.2023 20:44 25,2 °C 25,8 °C 72 % 70 % 1020,8 hPa 0,0 l/m² 1,9 km/h (1 Bft) N-NO 17 ° 0 min 0 W/m² 19,9 °C 25,8 °C 3,2 km/h (1 Bft)
20.08.2023 20:45 25,2 °C 25,8 °C 72 % 71 % 1020,9 hPa 0,0 l/m² 2,7 km/h (1 Bft) N-NO 17 ° 0 min 0 W/m² 20,1 °C 25,8 °C 4,8 km/h (1 Bft)
20.08.2023 20:46 25,2 °C 25,8 °C 72 % 71 % 1020,9 hPa 0,0 l/m² 1,7 km/h (1 Bft) N-NO 17 ° 0 min 0 W/m² 20,1 °C 25,8 °C 3,2 km/h (1 Bft)
20.08.2023 20:47 25,2 °C 25,8 °C 72 % 70 % 1020,9 hPa 0,0 l/m² 0,7 km/h (0 Bft) N-NO 17 ° 0 min 0 W/m² 19,9 °C 25,8 °C 1,6 km/h (1 Bft)
20.08.2023 20:48 25,2 °C 25,7 °C 72 % 70 % 1021,0 hPa 0,0 l/m² 0,3 km/h (0 Bft) N-NO 17 ° 0 min 0 W/m² 19,8 °C 25,7 °C 1,6 km/h (1 Bft)
20.08.2023 20:49 25,2 °C 25,7 °C 72 % 70 % 1020,9 hPa 0,0 l/m² 0,4 km/h (0 Bft) N-NO 18 ° 0 min 0 W/m² 19,8 °C 25,7 °C 3,2 km/h (1 Bft)
20.08.2023 20:50 25,2 °C 25,7 °C 72 % 71 % 1021,0 hPa 0,0 l/m² 1,4 km/h (1 Bft) N-NO 18 ° 0 min 0 W/m² 20,0 °C 25,7 °C 3,2 km/h (1 Bft)
20.08.2023 20:52 25,2 °C 25,7 °C 72 % 71 % 1021,0 hPa 0,0 l/m² 2,9 km/h (1 Bft) N-NO 24 ° 0 min 0 W/m² 20,0 °C 25,7 °C 4,8 km/h (1 Bft)
20.08.2023 20:53 25,2 °C 25,7 °C 72 % 71 % 1020,9 hPa 0,0 l/m² 3,5 km/h (1 Bft) N-NO 32 ° 0 min 0 W/m² 20,0 °C 25,7 °C 6,4 km/h (2 Bft)
20.08.2023 20:54 25,2 °C 25,6 °C 72 % 71 % 1021,1 hPa 0,0 l/m² 1,7 km/h (1 Bft) N-NO 32 ° 0 min 0 W/m² 19,9 °C 25,6 °C 4,8 km/h (1 Bft)
20.08.2023 20:55 25,2 °C 25,6 °C 72 % 71 % 1021,1 hPa 0,0 l/m² 1,1 km/h (1 Bft) N-NO 32 ° 0 min 0 W/m² 19,9 °C 25,6 °C 3,2 km/h (1 Bft)
20.08.2023 20:56 25,2 °C 25,6 °C 72 % 71 % 1021,1 hPa 0,0 l/m² 0,6 km/h (0 Bft) N-NO 32 ° 0 min 0 W/m² 19,9 °C 25,6 °C 1,6 km/h (1 Bft)
20.08.2023 20:57 25,2 °C 25,6 °C 72 % 71 % 1021,1 hPa 0,0 l/m² 1,0 km/h (0 Bft) N-NO 32 ° 0 min 0 W/m² 19,9 °C 25,6 °C 3,2 km/h (1 Bft)
20.08.2023 20:58 25,2 °C 25,6 °C 72 % 71 % 1021,1 hPa 0,0 l/m² 1,4 km/h (1 Bft) N-NO 32 ° 0 min 0 W/m² 19,9 °C 25,6 °C 4,8 km/h (1 Bft)
20.08.2023 20:59 25,2 °C 25,4 °C 72 % 73 % 1021,1 hPa 0,0 l/m² 0,1 km/h (0 Bft) N-NO 32 ° 0 min 0 W/m² 20,2 °C 25,4 °C 1,6 km/h (1 Bft)
20.08.2023 21:01 25,2 °C 25,1 °C 72 % 75 % 1021,1 hPa 0,0 l/m² 0,4 km/h (0 Bft) N-NO 32 ° 0 min 0 W/m² 20,3 °C 25,1 °C 1,6 km/h (1 Bft)
20.08.2023 21:03 25,2 °C 24,7 °C 72 % 78 % 1021,1 hPa 0,0 l/m² 0,5 km/h (0 Bft) N-NO 32 ° 0 min 0 W/m² 20,6 °C 24,7 °C 1,6 km/h (1 Bft)
20.08.2023 21:04 25,3 °C 24,5 °C 72 % 79 % 1021,1 hPa 0,0 l/m² 0,2 km/h (0 Bft) N-NO 32 ° 0 min 0 W/m² 20,6 °C 24,5 °C 1,6 km/h (1 Bft)
20.08.2023 21:05 25,3 °C 24,4 °C 72 % 79 % 1021,1 hPa 0,0 l/m² 0,0 km/h (0 Bft) N-NO 32 ° 0 min 0 W/m² 20,5 °C 24,4 °C 0,0 km/h (0 Bft)
20.08.2023 21:06 25,3 °C 24,3 °C 72 % 79 % 1021,1 hPa 0,0 l/m² 0,0 km/h (0 Bft) N-NO 32 ° 0 min 0 W/m² 20,4 °C 24,3 °C 0,0 km/h (0 Bft)
20.08.2023 21:07 25,3 °C 24,2 °C 72 % 79 % 1021,1 hPa 0,0 l/m² 0,0 km/h (0 Bft) N-NO 32 ° 0 min 0 W/m² 20,3 °C 24,2 °C 0,0 km/h (0 Bft)
20.08.2023 21:08 25,3 °C 24,2 °C 72 % 80 % 1021,1 hPa 0,0 l/m² 0,2 km/h (0 Bft) N-NO 32 ° 0 min 0 W/m² 20,5 °C 24,2 °C 1,6 km/h (1 Bft)
20.08.2023 21:09 25,3 °C 24,1 °C 72 % 80 % 1021,0 hPa 0,0 l/m² 0,0 km/h (0 Bft) N-NO 32 ° 0 min 0 W/m² 20,4 °C 24,1 °C 0,0 km/h (0 Bft)
20.08.2023 21:11 25,3 °C 24,0 °C 72 % 81 % 1021,0 hPa 0,0 l/m² 1,0 km/h (0 Bft) N-NO 32 ° 0 min 0 W/m² 20,5 °C 24,0 °C 3,2 km/h (1 Bft)
20.08.2023 21:13 25,3 °C 23,8 °C 72 % 82 % 1021,0 hPa 0,0 l/m² 1,2 km/h (1 Bft) N-NO 32 ° 0 min 0 W/m² 20,5 °C 23,8 °C 3,2 km/h (1 Bft)
20.08.2023 21:14 25,3 °C 23,6 °C 72 % 83 % 1021,1 hPa 0,0 l/m² 0,0 km/h (0 Bft) N-NO 32 ° 0 min 0 W/m² 20,5 °C 23,6 °C 0,0 km/h (0 Bft)
20.08.2023 21:15 25,3 °C 23,6 °C 72 % 83 % 1021,1 hPa 0,0 l/m² 0,0 km/h (0 Bft) N-NO 32 ° 0 min 0 W/m² 20,5 °C 23,6 °C 0,0 km/h (0 Bft)
20.08.2023 21:16 25,3 °C 23,5 °C 72 % 83 % 1021,1 hPa 0,0 l/m² 0,0 km/h (0 Bft) N-NO 32 ° 0 min 0 W/m² 20,4 °C 23,5 °C 0,0 km/h (0 Bft)
20.08.2023 21:17 25,3 °C 23,4 °C 72 % 83 % 1021,1 hPa 0,0 l/m² 0,0 km/h (0 Bft) N-NO 32 ° 0 min 0 W/m² 20,3 °C 23,4 °C 0,0 km/h (0 Bft)
20.08.2023 21:18 25,3 °C 23,4 °C 72 % 83 % 1021,1 hPa 0,0 l/m² 0,0 km/h (0 Bft) N-NO 32 ° 0 min 0 W/m² 20,3 °C 23,4 °C 0,0 km/h (0 Bft)
20.08.2023 21:19 25,3 °C 23,4 °C 72 % 83 % 1021,1 hPa 0,0 l/m² 0,0 km/h (0 Bft) N-NO 32 ° 0 min 0 W/m² 20,3 °C 23,4 °C 0,0 km/h (0 Bft)
20.08.2023 21:21 25,3 °C 23,3 °C 72 % 83 % 1021,1 hPa 0,0 l/m² 0,0 km/h (0 Bft) N-NO 32 ° 0 min 0 W/m² 20,2 °C 23,3 °C 0,0 km/h (0 Bft)
20.08.2023 21:23 25,4 °C 23,3 °C 72 % 83 % 1021,1 hPa 0,0 l/m² 0,0 km/h (0 Bft) N-NO 32 ° 0 min 0 W/m² 20,2 °C 23,3 °C 0,0 km/h (0 Bft)
20.08.2023 21:24 25,4 °C 23,3 °C 72 % 83 % 1021,1 hPa 0,0 l/m² 0,0 km/h (0 Bft) N-NO 32 ° 0 min 0 W/m² 20,2 °C 23,3 °C 0,0 km/h (0 Bft)
20.08.2023 21:25 25,4 °C 23,3 °C 72 % 84 % 1021,1 hPa 0,0 l/m² 0,0 km/h (0 Bft) N-NO 32 ° 0 min 0 W/m² 20,4 °C 23,3 °C 0,0 km/h (0 Bft)
20.08.2023 21:26 25,4 °C 23,3 °C 72 % 84 % 1021,1 hPa 0,0 l/m² 0,0 km/h (0 Bft) N-NO 32 ° 0 min 0 W/m² 20,4 °C 23,3 °C 0,0 km/h (0 Bft)
20.08.2023 21:27 25,4 °C 23,3 °C 72 % 84 % 1021,2 hPa 0,0 l/m² 0,0 km/h (0 Bft) N-NO 32 ° 0 min 0 W/m² 20,4 °C 23,3 °C 0,0 km/h (0 Bft)
20.08.2023 21:28 25,4 °C 23,3 °C 72 % 84 % 1021,2 hPa 0,0 l/m² 0,0 km/h (0 Bft) N-NO 32 ° 0 min 0 W/m² 20,4 °C 23,3 °C 0,0 km/h (0 Bft)
20.08.2023 21:29 25,4 °C 23,2 °C 72 % 84 % 1021,2 hPa 0,0 l/m² 0,0 km/h (0 Bft) N-NO 32 ° 0 min 0 W/m² 20,3 °C 23,2 °C 0,0 km/h (0 Bft)
20.08.2023 21:30 25,4 °C 23,2 °C 72 % 84 % 1021,2 hPa 0,0 l/m² 0,2 km/h (0 Bft) N-NO 32 ° 0 min 0 W/m² 20,3 °C 23,2 °C 1,6 km/h (1 Bft)
20.08.2023 21:32 25,4 °C 23,2 °C 72 % 83 % 1021,2 hPa 0,0 l/m² 0,0 km/h (0 Bft) N-NO 32 ° 0 min 0 W/m² 20,1 °C 23,2 °C 1,6 km/h (1 Bft)
20.08.2023 21:33 25,4 °C 23,3 °C 72 % 84 % 1021,2 hPa 0,0 l/m² 0,0 km/h (0 Bft) N-NO 32 ° 0 min 0 W/m² 20,4 °C 23,3 °C 0,0 km/h (0 Bft)
20.08.2023 21:34 25,4 °C 23,2 °C 72 % 84 % 1021,2 hPa 0,0 l/m² 0,0 km/h (0 Bft) N-NO 32 ° 0 min 0 W/m² 20,3 °C 23,2 °C 0,0 km/h (0 Bft)
20.08.2023 21:35 25,4 °C 23,2 °C 72 % 84 % 1021,2 hPa 0,0 l/m² 0,0 km/h (0 Bft) N-NO 32 ° 0 min 0 W/m² 20,3 °C 23,2 °C 0,0 km/h (0 Bft)
20.08.2023 21:36 25,4 °C 23,2 °C 72 % 84 % 1021,2 hPa 0,0 l/m² 0,3 km/h (0 Bft) N-NO 32 ° 0 min 0 W/m² 20,3 °C 23,2 °C 1,6 km/h (1 Bft)
20.08.2023 21:37 25,4 °C 23,1 °C 72 % 84 % 1021,2 hPa 0,0 l/m² 1,2 km/h (1 Bft) N-NO 32 ° 0 min 0 W/m² 20,2 °C 23,1 °C 1,6 km/h (1 Bft)
20.08.2023 21:38 25,4 °C 23,1 °C 72 % 85 % 1021,2 hPa 0,0 l/m² 0,0 km/h (0 Bft) N-NO 32 ° 0 min 0 W/m² 20,4 °C 23,1 °C 0,0 km/h (0 Bft)
20.08.2023 21:39 25,4 °C 23,0 °C 72 % 85 % 1021,2 hPa 0,0 l/m² 0,0 km/h (0 Bft) N-NO 32 ° 0 min 0 W/m² 20,3 °C 23,0 °C 0,0 km/h (0 Bft)
20.08.2023 21:41 25,4 °C 22,9 °C 72 % 85 % 1021,2 hPa 0,0 l/m² 0,0 km/h (0 Bft) N-NO 32 ° 0 min 0 W/m² 20,2 °C 22,9 °C 0,0 km/h (0 Bft)
20.08.2023 21:43 25,4 °C 22,8 °C 72 % 85 % 1021,2 hPa 0,0 l/m² 0,0 km/h (0 Bft) N-NO 32 ° 0 min 0 W/m² 20,1 °C 22,8 °C 0,0 km/h (0 Bft)
20.08.2023 21:44 25,4 °C 22,7 °C 72 % 85 % 1021,2 hPa 0,0 l/m² 0,0 km/h (0 Bft) N-NO 32 ° 0 min 0 W/m² 20,0 °C 22,7 °C 0,0 km/h (0 Bft)
20.08.2023 21:46 25,4 °C 22,7 °C 72 % 85 % 1021,2 hPa 0,0 l/m² 0,0 km/h (0 Bft) N-NO 32 ° 0 min 0 W/m² 20,0 °C 22,7 °C 0,0 km/h (0 Bft)
20.08.2023 21:47 25,4 °C 22,7 °C 72 % 85 % 1021,3 hPa 0,0 l/m² 0,0 km/h (0 Bft) N-NO 32 ° 0 min 0 W/m² 20,0 °C 22,7 °C 0,0 km/h (0 Bft)
20.08.2023 21:48 25,4 °C 22,7 °C 72 % 85 % 1021,2 hPa 0,0 l/m² 0,0 km/h (0 Bft) N-NO 32 ° 0 min 0 W/m² 20,0 °C 22,7 °C 0,0 km/h (0 Bft)
20.08.2023 21:49 25,4 °C 22,7 °C 72 % 85 % 1021,2 hPa 0,0 l/m² 0,0 km/h (0 Bft) N-NO 32 ° 0 min 0 W/m² 20,0 °C 22,7 °C 0,0 km/h (0 Bft)
20.08.2023 21:51 25,4 °C 22,7 °C 72 % 85 % 1021,2 hPa 0,0 l/m² 0,0 km/h (0 Bft) N-NO 32 ° 0 min 0 W/m² 20,0 °C 22,7 °C 0,0 km/h (0 Bft)
20.08.2023 21:53 25,4 °C 22,7 °C 72 % 86 % 1021,3 hPa 0,0 l/m² 0,0 km/h (0 Bft) N-NO 32 ° 0 min 0 W/m² 20,2 °C 22,7 °C 0,0 km/h (0 Bft)
20.08.2023 21:54 25,4 °C 22,6 °C 72 % 86 % 1021,2 hPa 0,0 l/m² 0,0 km/h (0 Bft) N-NO 32 ° 0 min 0 W/m² 20,1 °C 22,6 °C 0,0 km/h (0 Bft)
20.08.2023 21:55 25,4 °C 22,5 °C 71 % 87 % 1021,2 hPa 0,0 l/m² 0,0 km/h (0 Bft) N-NO 32 ° 0 min 0 W/m² 20,2 °C 22,5 °C 0,0 km/h (0 Bft)
20.08.2023 21:56 25,4 °C 22,4 °C 71 % 87 % 1021,2 hPa 0,0 l/m² 0,0 km/h (0 Bft) N-NO 32 ° 0 min 0 W/m² 20,1 °C 22,4 °C 0,0 km/h (0 Bft)
20.08.2023 21:57 25,4 °C 22,4 °C 71 % 87 % 1021,3 hPa 0,0 l/m² 0,0 km/h (0 Bft) N-NO 32 ° 0 min 0 W/m² 20,1 °C 22,4 °C 0,0 km/h (0 Bft)
20.08.2023 21:58 25,4 °C 22,4 °C 71 % 87 % 1021,2 hPa 0,0 l/m² 0,0 km/h (0 Bft) N-NO 32 ° 0 min 0 W/m² 20,1 °C 22,4 °C 0,0 km/h (0 Bft)
20.08.2023 21:59 25,4 °C 22,3 °C 71 % 87 % 1021,2 hPa 0,0 l/m² 0,0 km/h (0 Bft) N-NO 32 ° 0 min 0 W/m² 20,0 °C 22,3 °C 0,0 km/h (0 Bft)
20.08.2023 22:01 25,4 °C 22,4 °C 71 % 86 % 1021,2 hPa 0,0 l/m² 0,0 km/h (0 Bft) N-NO 32 ° 0 min 0 W/m² 19,9 °C 22,4 °C 0,0 km/h (0 Bft)
20.08.2023 22:03 25,3 °C 22,4 °C 71 % 86 % 1021,2 hPa 0,0 l/m² 0,0 km/h (0 Bft) N-NO 32 ° 0 min 0 W/m² 19,9 °C 22,4 °C 0,0 km/h (0 Bft)
20.08.2023 22:04 25,4 °C 22,5 °C 71 % 85 % 1021,2 hPa 0,0 l/m² 0,0 km/h (0 Bft) N-NO 32 ° 0 min 0 W/m² 19,8 °C 22,5 °C 0,0 km/h (0 Bft)
20.08.2023 22:05 25,4 °C 22,5 °C 71 % 85 % 1021,2 hPa 0,0 l/m² 0,0 km/h (0 Bft) N-NO 32 ° 0 min 0 W/m² 19,8 °C 22,5 °C 0,0 km/h (0 Bft)
20.08.2023 22:06 25,3 °C 22,6 °C 71 % 85 % 1021,2 hPa 0,0 l/m² 0,0 km/h (0 Bft) N-NO 32 ° 0 min 0 W/m² 19,9 °C 22,6 °C 0,0 km/h (0 Bft)
20.08.2023 22:07 25,3 °C 22,6 °C 71 % 85 % 1021,2 hPa 0,0 l/m² 0,0 km/h (0 Bft) N-NO 32 ° 0 min 0 W/m² 19,9 °C 22,6 °C 0,0 km/h (0 Bft)
20.08.2023 22:08 25,3 °C 22,6 °C 71 % 85 % 1021,2 hPa 0,0 l/m² 0,0 km/h (0 Bft) N-NO 32 ° 0 min 0 W/m² 19,9 °C 22,6 °C 0,0 km/h (0 Bft)
20.08.2023 22:09 25,4 °C 22,5 °C 71 % 85 % 1021,1 hPa 0,0 l/m² 0,2 km/h (0 Bft) N-NO 32 ° 0 min 0 W/m² 19,8 °C 22,5 °C 1,6 km/h (1 Bft)
20.08.2023 22:11 25,4 °C 22,3 °C 71 % 86 % 1021,2 hPa 0,0 l/m² 0,0 km/h (0 Bft) N-NO 32 ° 0 min 0 W/m² 19,8 °C 22,3 °C 0,0 km/h (0 Bft)
20.08.2023 22:13 25,3 °C 22,2 °C 71 % 87 % 1021,1 hPa 0,0 l/m² 1,8 km/h (1 Bft) N-NO 32 ° 0 min 0 W/m² 19,9 °C 22,2 °C 4,8 km/h (1 Bft)
20.08.2023 22:14 25,3 °C 22,1 °C 71 % 87 % 1021,1 hPa 0,0 l/m² 3,5 km/h (1 Bft) NO 38 ° 0 min 0 W/m² 19,8 °C 22,1 °C 4,8 km/h (1 Bft)
20.08.2023 22:15 25,3 °C 22,0 °C 71 % 87 % 1021,1 hPa 0,0 l/m² 3,3 km/h (1 Bft) NO 38 ° 0 min 0 W/m² 19,7 °C 22,0 °C 4,8 km/h (1 Bft)
20.08.2023 22:16 25,3 °C 21,9 °C 71 % 87 % 1021,2 hPa 0,0 l/m² 2,8 km/h (1 Bft) NO 38 ° 0 min 0 W/m² 19,6 °C 21,9 °C 3,2 km/h (1 Bft)
20.08.2023 22:17 25,3 °C 21,9 °C 71 % 87 % 1021,2 hPa 0,0 l/m² 2,8 km/h (1 Bft) NO 38 ° 0 min 0 W/m² 19,6 °C 21,9 °C 4,8 km/h (1 Bft)
20.08.2023 22:18 25,4 °C 21,8 °C 71 % 88 % 1021,1 hPa 0,0 l/m² 1,6 km/h (1 Bft) NO 38 ° 0 min 0 W/m² 19,7 °C 21,8 °C 3,2 km/h (1 Bft)
20.08.2023 22:19 25,4 °C 21,8 °C 71 % 88 % 1021,1 hPa 0,0 l/m² 1,3 km/h (1 Bft) NO 38 ° 0 min 0 W/m² 19,7 °C 21,8 °C 1,6 km/h (1 Bft)
20.08.2023 22:21 25,3 °C 21,7 °C 71 % 88 % 1021,2 hPa 0,0 l/m² 2,0 km/h (1 Bft) NO 38 ° 0 min 0 W/m² 19,6 °C 21,7 °C 3,2 km/h (1 Bft)
20.08.2023 22:23 25,3 °C 21,6 °C 71 % 88 % 1021,2 hPa 0,0 l/m² 2,1 km/h (1 Bft) NO 38 ° 0 min 0 W/m² 19,5 °C 21,6 °C 3,2 km/h (1 Bft)
20.08.2023 22:24 25,3 °C 21,6 °C 71 % 88 % 1021,2 hPa 0,0 l/m² 1,7 km/h (1 Bft) NO 38 ° 0 min 0 W/m² 19,5 °C 21,6 °C 3,2 km/h (1 Bft)
20.08.2023 22:25 25,3 °C 21,5 °C 71 % 88 % 1021,2 hPa 0,0 l/m² 0,0 km/h (0 Bft) NO 38 ° 0 min 0 W/m² 19,4 °C 21,5 °C 0,0 km/h (0 Bft)
20.08.2023 22:26 25,3 °C 21,5 °C 71 % 89 % 1021,2 hPa 0,0 l/m² 0,0 km/h (0 Bft) NO 38 ° 0 min 0 W/m² 19,6 °C 21,5 °C 0,0 km/h (0 Bft)
20.08.2023 22:27 25,3 °C 21,4 °C 71 % 89 % 1021,3 hPa 0,0 l/m² 0,0 km/h (0 Bft) NO 38 ° 0 min 0 W/m² 19,5 °C 21,4 °C 0,0 km/h (0 Bft)
20.08.2023 22:28 25,3 °C 21,4 °C 71 % 89 % 1021,3 hPa 0,0 l/m² 0,0 km/h (0 Bft) NO 38 ° 0 min 0 W/m² 19,5 °C 21,4 °C 0,0 km/h (0 Bft)
20.08.2023 22:29 25,3 °C 21,4 °C 71 % 89 % 1021,2 hPa 0,0 l/m² 1,0 km/h (0 Bft) NO 38 ° 0 min 0 W/m² 19,5 °C 21,4 °C 1,6 km/h (1 Bft)
20.08.2023 22:31 25,3 °C 21,4 °C 71 % 89 % 1021,3 hPa 0,0 l/m² 2,9 km/h (1 Bft) NO 38 ° 0 min 0 W/m² 19,5 °C 21,4 °C 4,8 km/h (1 Bft)
20.08.2023 22:33 25,3 °C 21,6 °C 71 % 88 % 1021,3 hPa 0,0 l/m² 1,4 km/h (1 Bft) NO 38 ° 0 min 0 W/m² 19,5 °C 21,6 °C 3,2 km/h (1 Bft)
20.08.2023 22:34 25,3 °C 21,7 °C 71 % 87 % 1021,3 hPa 0,0 l/m² 0,2 km/h (0 Bft) NO 38 ° 0 min 0 W/m² 19,4 °C 21,7 °C 1,6 km/h (1 Bft)
20.08.2023 22:35 25,3 °C 21,8 °C 71 % 87 % 1021,3 hPa 0,0 l/m² 0,2 km/h (0 Bft) NO 38 ° 0 min 0 W/m² 19,5 °C 21,8 °C 1,6 km/h (1 Bft)
20.08.2023 22:36 25,3 °C 21,9 °C 71 % 86 % 1021,3 hPa 0,0 l/m² 0,1 km/h (0 Bft) NO 38 ° 0 min 0 W/m² 19,4 °C 21,9 °C 1,6 km/h (1 Bft)
20.08.2023 22:37 25,3 °C 22,0 °C 71 % 85 % 1021,4 hPa 0,0 l/m² 0,0 km/h (0 Bft) NO 38 ° 0 min 0 W/m² 19,4 °C 22,0 °C 0,0 km/h (0 Bft)
20.08.2023 22:38 25,3 °C 22,0 °C 71 % 85 % 1021,4 hPa 0,0 l/m² 0,0 km/h (0 Bft) NO 38 ° 0 min 0 W/m² 19,4 °C 22,0 °C 0,0 km/h (0 Bft)
20.08.2023 22:39 25,3 °C 22,1 °C 71 % 85 % 1021,4 hPa 0,0 l/m² 0,1 km/h (0 Bft) NO 38 ° 0 min 0 W/m² 19,5 °C 22,1 °C 1,6 km/h (1 Bft)
20.08.2023 22:41 25,3 °C 22,1 °C 71 % 85 % 1021,5 hPa 0,0 l/m² 0,0 km/h (0 Bft) NO 38 ° 0 min 0 W/m² 19,5 °C 22,1 °C 0,0 km/h (0 Bft)
20.08.2023 22:43 25,2 °C 21,8 °C 71 % 86 % 1021,5 hPa 0,0 l/m² 0,0 km/h (0 Bft) NO 38 ° 0 min 0 W/m² 19,3 °C 21,8 °C 0,0 km/h (0 Bft)
20.08.2023 22:44 25,3 °C 21,8 °C 71 % 86 % 1021,5 hPa 0,0 l/m² 0,0 km/h (0 Bft) NO 38 ° 0 min 0 W/m² 19,3 °C 21,8 °C 0,0 km/h (0 Bft)
20.08.2023 22:45 25,3 °C 21,6 °C 71 % 86 % 1021,4 hPa 0,0 l/m² 0,0 km/h (0 Bft) NO 38 ° 0 min 0 W/m² 19,2 °C 21,6 °C 0,0 km/h (0 Bft)
20.08.2023 22:46 25,3 °C 21,6 °C 71 % 87 % 1021,5 hPa 0,0 l/m² 0,0 km/h (0 Bft) NO 38 ° 0 min 0 W/m² 19,3 °C 21,6 °C 0,0 km/h (0 Bft)
20.08.2023 22:47 25,3 °C 21,5 °C 71 % 87 % 1021,5 hPa 0,0 l/m² 0,0 km/h (0 Bft) NO 38 ° 0 min 0 W/m² 19,2 °C 21,5 °C 0,0 km/h (0 Bft)
20.08.2023 22:48 25,3 °C 21,4 °C 71 % 88 % 1021,4 hPa 0,0 l/m² 0,0 km/h (0 Bft) NO 38 ° 0 min 0 W/m² 19,3 °C 21,4 °C 0,0 km/h (0 Bft)
20.08.2023 22:49 25,3 °C 21,4 °C 71 % 88 % 1021,5 hPa 0,0 l/m² 0,0 km/h (0 Bft) NO 38 ° 0 min 0 W/m² 19,3 °C 21,4 °C 0,0 km/h (0 Bft)
20.08.2023 22:51 25,2 °C 21,3 °C 71 % 89 % 1021,5 hPa 0,0 l/m² 0,0 km/h (0 Bft) NO 38 ° 0 min 0 W/m² 19,4 °C 21,3 °C 0,0 km/h (0 Bft)
20.08.2023 22:53 25,2 °C 21,3 °C 71 % 89 % 1021,4 hPa 0,0 l/m² 0,0 km/h (0 Bft) NO 38 ° 0 min 0 W/m² 19,4 °C 21,3 °C 0,0 km/h (0 Bft)
20.08.2023 22:54 25,2 °C 21,3 °C 71 % 89 % 1021,5 hPa 0,0 l/m² 0,0 km/h (0 Bft) NO 38 ° 0 min 0 W/m² 19,4 °C 21,3 °C 0,0 km/h (0 Bft)
20.08.2023 22:55 25,3 °C 21,3 °C 71 % 89 % 1021,5 hPa 0,0 l/m² 0,0 km/h (0 Bft) NO 38 ° 0 min 0 W/m² 19,4 °C 21,3 °C 0,0 km/h (0 Bft)
20.08.2023 22:56 25,2 °C 21,2 °C 71 % 89 % 1021,5 hPa 0,0 l/m² 0,0 km/h (0 Bft) NO 38 ° 0 min 0 W/m² 19,3 °C 21,2 °C 0,0 km/h (0 Bft)
20.08.2023 22:57 25,2 °C 21,2 °C 71 % 89 % 1021,5 hPa 0,0 l/m² 0,0 km/h (0 Bft) NO 38 ° 0 min 0 W/m² 19,3 °C 21,2 °C 0,0 km/h (0 Bft)
20.08.2023 22:58 25,2 °C 21,2 °C 71 % 89 % 1021,5 hPa 0,0 l/m² 0,0 km/h (0 Bft) NO 38 ° 0 min 0 W/m² 19,3 °C 21,2 °C 0,0 km/h (0 Bft)
20.08.2023 22:59 25,2 °C 21,2 °C 71 % 89 % 1021,5 hPa 0,0 l/m² 0,0 km/h (0 Bft) NO 38 ° 0 min 0 W/m² 19,3 °C 21,2 °C 0,0 km/h (0 Bft)
20.08.2023 23:01 25,2 °C 21,1 °C 71 % 90 % 1021,5 hPa 0,0 l/m² 0,0 km/h (0 Bft) NO 38 ° 0 min 0 W/m² 19,4 °C 21,1 °C 0,0 km/h (0 Bft)
20.08.2023 23:03 25,2 °C 21,0 °C 71 % 90 % 1021,5 hPa 0,0 l/m² 0,0 km/h (0 Bft) NO 38 ° 0 min 0 W/m² 19,3 °C 21,0 °C 0,0 km/h (0 Bft)
20.08.2023 23:04 25,2 °C 21,1 °C 71 % 90 % 1021,4 hPa 0,0 l/m² 0,0 km/h (0 Bft) NO 38 ° 0 min 0 W/m² 19,4 °C 21,1 °C 0,0 km/h (0 Bft)
20.08.2023 23:05 25,2 °C 21,0 °C 71 % 90 % 1021,4 hPa 0,0 l/m² 0,0 km/h (0 Bft) NO 38 ° 0 min 0 W/m² 19,3 °C 21,0 °C 0,0 km/h (0 Bft)
20.08.2023 23:06 25,2 °C 21,0 °C 71 % 90 % 1021,5 hPa 0,0 l/m² 0,0 km/h (0 Bft) NO 38 ° 0 min 0 W/m² 19,3 °C 21,0 °C 0,0 km/h (0 Bft)
20.08.2023 23:07 25,2 °C 21,0 °C 71 % 90 % 1021,5 hPa 0,0 l/m² 0,0 km/h (0 Bft) NO 38 ° 0 min 0 W/m² 19,3 °C 21,0 °C 0,0 km/h (0 Bft)
20.08.2023 23:08 25,2 °C 20,9 °C 71 % 90 % 1021,5 hPa 0,0 l/m² 0,0 km/h (0 Bft) NO 38 ° 0 min 0 W/m² 19,2 °C 20,9 °C 0,0 km/h (0 Bft)
20.08.2023 23:09 25,2 °C 20,9 °C 71 % 90 % 1021,5 hPa 0,0 l/m² 0,0 km/h (0 Bft) NO 38 ° 0 min 0 W/m² 19,2 °C 20,9 °C 0,0 km/h (0 Bft)
20.08.2023 23:10 25,2 °C 20,9 °C 71 % 90 % 1021,4 hPa 0,0 l/m² 0,0 km/h (0 Bft) NO 38 ° 0 min 0 W/m² 19,2 °C 20,9 °C 0,0 km/h (0 Bft)
20.08.2023 23:12 25,2 °C 20,9 °C 71 % 90 % 1021,4 hPa 0,0 l/m² 0,0 km/h (0 Bft) NO 38 ° 0 min 0 W/m² 19,2 °C 20,9 °C 0,0 km/h (0 Bft)
20.08.2023 23:13 25,2 °C 20,8 °C 71 % 90 % 1021,4 hPa 0,0 l/m² 0,0 km/h (0 Bft) NO 38 ° 0 min 0 W/m² 19,1 °C 20,8 °C 0,0 km/h (0 Bft)
20.08.2023 23:14 25,2 °C 20,8 °C 71 % 90 % 1021,4 hPa 0,0 l/m² 0,0 km/h (0 Bft) NO 38 ° 0 min 0 W/m² 19,1 °C 20,8 °C 0,0 km/h (0 Bft)
20.08.2023 23:15 25,2 °C 20,8 °C 71 % 90 % 1021,5 hPa 0,0 l/m² 0,0 km/h (0 Bft) NO 38 ° 0 min 0 W/m² 19,1 °C 20,8 °C 0,0 km/h (0 Bft)
20.08.2023 23:16 25,2 °C 20,8 °C 71 % 91 % 1021,5 hPa 0,0 l/m² 0,0 km/h (0 Bft) N 0 ° 0 min 0 W/m² 19,3 °C 20,8 °C 0,0 km/h (0 Bft)
20.08.2023 23:23 25,2 °C 20,9 °C 71 % 91 % 1021,5 hPa 0,0 l/m² 0,0 km/h (0 Bft) NO 38 ° 0 min 0 W/m² 19,4 °C 20,9 °C 0,0 km/h (0 Bft)
20.08.2023 23:24 25,2 °C 20,9 °C 71 % 91 % 1021,5 hPa 0,0 l/m² 0,0 km/h (0 Bft) NO 38 ° 0 min 0 W/m² 19,4 °C 20,9 °C 0,0 km/h (0 Bft)
20.08.2023 23:25 25,2 °C 20,9 °C 71 % 91 % 1021,5 hPa 0,0 l/m² 0,0 km/h (0 Bft) NO 38 ° 0 min 0 W/m² 19,4 °C 20,9 °C 0,0 km/h (0 Bft)
20.08.2023 23:26 25,1 °C 20,9 °C 71 % 90 % 1021,6 hPa 0,0 l/m² 0,0 km/h (0 Bft) NO 38 ° 0 min 0 W/m² 19,2 °C 20,9 °C 0,0 km/h (0 Bft)
20.08.2023 23:27 25,2 °C 20,8 °C 71 % 90 % 1021,5 hPa 0,0 l/m² 0,0 km/h (0 Bft) NO 38 ° 0 min 0 W/m² 19,1 °C 20,8 °C 0,0 km/h (0 Bft)
20.08.2023 23:29 25,2 °C 20,7 °C 71 % 90 % 1021,5 hPa 0,0 l/m² 0,0 km/h (0 Bft) NO 38 ° 0 min 0 W/m² 19,0 °C 20,7 °C 0,0 km/h (0 Bft)
20.08.2023 23:30 25,2 °C 20,7 °C 71 % 91 % 1021,6 hPa 0,0 l/m² 0,0 km/h (0 Bft) NO 38 ° 0 min 0 W/m² 19,2 °C 20,7 °C 0,0 km/h (0 Bft)
20.08.2023 23:31 25,1 °C 20,6 °C 71 % 91 % 1021,6 hPa 0,0 l/m² 0,0 km/h (0 Bft) NO 38 ° 0 min 0 W/m² 19,1 °C 20,6 °C 0,0 km/h (0 Bft)
20.08.2023 23:32 25,1 °C 20,6 °C 71 % 91 % 1021,6 hPa 0,0 l/m² 0,0 km/h (0 Bft) NO 38 ° 0 min 0 W/m² 19,1 °C 20,6 °C 0,0 km/h (0 Bft)
20.08.2023 23:34 25,1 °C 20,4 °C 71 % 91 % 1021,6 hPa 0,0 l/m² 0,0 km/h (0 Bft) NO 38 ° 0 min 0 W/m² 18,9 °C 20,4 °C 0,0 km/h (0 Bft)
20.08.2023 23:35 25,1 °C 20,4 °C 71 % 91 % 1021,6 hPa 0,0 l/m² 0,0 km/h (0 Bft) NO 38 ° 0 min 0 W/m² 18,9 °C 20,4 °C 0,0 km/h (0 Bft)
20.08.2023 23:37 25,1 °C 20,4 °C 71 % 92 % 1021,7 hPa 0,0 l/m² 0,2 km/h (0 Bft) NO 38 ° 0 min 0 W/m² 19,1 °C 20,4 °C 1,6 km/h (1 Bft)
20.08.2023 23:39 25,1 °C 20,4 °C 71 % 92 % 1021,7 hPa 0,0 l/m² 0,0 km/h (0 Bft) NO 38 ° 0 min 0 W/m² 19,1 °C 20,4 °C 0,0 km/h (0 Bft)
20.08.2023 23:40 25,1 °C 20,5 °C 71 % 92 % 1021,7 hPa 0,0 l/m² 0,0 km/h (0 Bft) NO 38 ° 0 min 0 W/m² 19,2 °C 20,5 °C 0,0 km/h (0 Bft)
20.08.2023 23:41 25,1 °C 20,5 °C 71 % 92 % 1021,7 hPa 0,0 l/m² 0,0 km/h (0 Bft) NO 38 ° 0 min 0 W/m² 19,2 °C 20,5 °C 0,0 km/h (0 Bft)
20.08.2023 23:42 25,1 °C 20,5 °C 71 % 92 % 1021,8 hPa 0,0 l/m² 0,0 km/h (0 Bft) NO 38 ° 0 min 0 W/m² 19,2 °C 20,5 °C 0,0 km/h (0 Bft)
20.08.2023 23:44 25,1 °C 20,5 °C 71 % 92 % 1021,7 hPa 0,0 l/m² 0,0 km/h (0 Bft) NO 38 ° 0 min 0 W/m² 19,2 °C 20,5 °C 0,0 km/h (0 Bft)
20.08.2023 23:45 25,1 °C 20,5 °C 71 % 92 % 1021,7 hPa 0,0 l/m² 0,0 km/h (0 Bft) NO 38 ° 0 min 0 W/m² 19,2 °C 20,5 °C 0,0 km/h (0 Bft)
20.08.2023 23:47 25,1 °C 20,4 °C 71 % 92 % 1021,7 hPa 0,0 l/m² 0,0 km/h (0 Bft) NO 38 ° 0 min 0 W/m² 19,1 °C 20,4 °C 0,0 km/h (0 Bft)
20.08.2023 23:49 25,1 °C 20,4 °C 71 % 92 % 1021,7 hPa 0,0 l/m² 0,0 km/h (0 Bft) NO 38 ° 0 min 0 W/m² 19,1 °C 20,4 °C 0,0 km/h (0 Bft)
20.08.2023 23:50 25,1 °C 20,3 °C 71 % 92 % 1021,7 hPa 0,0 l/m² 0,0 km/h (0 Bft) NO 38 ° 0 min 0 W/m² 19,0 °C 20,3 °C 0,0 km/h (0 Bft)
20.08.2023 23:51 25,1 °C 20,3 °C 71 % 92 % 1021,8 hPa 0,0 l/m² 0,0 km/h (0 Bft) NO 38 ° 0 min 0 W/m² 19,0 °C 20,3 °C 0,0 km/h (0 Bft)
20.08.2023 23:52 25,1 °C 20,3 °C 71 % 92 % 1021,8 hPa 0,0 l/m² 0,0 km/h (0 Bft) NO 38 ° 0 min 0 W/m² 19,0 °C 20,3 °C 0,0 km/h (0 Bft)
20.08.2023 23:54 25,1 °C 20,3 °C 71 % 92 % 1021,8 hPa 0,0 l/m² 0,0 km/h (0 Bft) NO 38 ° 0 min 0 W/m² 19,0 °C 20,3 °C 0,0 km/h (0 Bft)
20.08.2023 23:55 25,1 °C 20,4 °C 71 % 92 % 1021,8 hPa 0,0 l/m² 0,0 km/h (0 Bft) NO 38 ° 0 min 0 W/m² 19,1 °C 20,4 °C 0,0 km/h (0 Bft)
20.08.2023 23:57 25,1 °C 20,4 °C 71 % 92 % 1021,8 hPa 0,0 l/m² 0,0 km/h (0 Bft) NO 38 ° 0 min 0 W/m² 19,1 °C 20,4 °C 0,0 km/h (0 Bft)
20.08.2023 23:59 25,1 °C 20,4 °C 71 % 92 % 1021,8 hPa 0,0 l/m² 0,0 km/h (0 Bft) NO 38 ° 0 min 0 W/m² 19,1 °C 20,4 °C 0,0 km/h (0 Bft)
_ Min-Zeit 08:53 23:54 00:17 17:56 00:00 - 23:59 - - - - 23:35 05:42 23:59
Minimum _ 24,1 °C 20,3 °C 68 % 49 % 1018,2 hPa - 0,0 km/h (0 Bft) - - - - 18,9 °C 19,9 °C 0,0 km/h (0 Bft)
_ Max-Zeit 22:19 17:56 13:53 23:59 09:31 23:59 05:42 - - 10:01 12:09 17:55 17:56 05:41
Maximum _ 25,4 °C 34,9 °C 74 % 92 % 1022,5 hPa 0,0 l/m² 13,8 km/h
N (3 Bft)
- - 6 min 963 W/m² 23,0 °C 34,9 °C 24,1 km/h
NW (4 Bft)
Durchschnitt _ 24,6 °C 25,4 °C 71 % 77 % 1020,8 hPa #0,0 l/m² 3,3 km/h (1 Bft) W - #11:04 h 217 W/m² 20,8 °C 25,4 °C 6,5 km/h (2 Bft)
© 2009 Mathias Hoßbach